     2              OBSERVATION DATA    GPS                 RINEX VERSION / TYPE
teqc 2000Feb29 Duncan Agnew 20000426 17:41:26UTC            PGM / RUN BY / DATE
                                                            COMMENT
L2: 1 -> 1; 150 -> 5; 250 -> 9                              COMMENT
L2: 1 -> 1; 150 -> 5; 250 -> 9                              COMMENT
L2: 1 -> 1; 150 -> 5; 250 -> 9                              COMMENT
L2: 1 -> 1; 150 -> 5; 250 -> 9                              COMMENT
L2: 1 -> 1; 150 -> 5; 250 -> 9                              COMMENT
Original Marker Name: PKO2                                  COMMENT
Campaign Name: Hector Postseismic                           COMMENT
4-Character Station Name: PK02                              COMMENT
6-Character Antenna Code: DMRCHT                            COMMENT
Vertical Measurement Point: BCR                             COMMENT
Vertical Offset to Rinex Ref. Point: 0.0348                 COMMENT
Radial Measurement Point: ECF                               COMMENT
Radial Offset to Rinex Ref. Point: 0.1897                   COMMENT
Antenna Height from Field Measurement: 0.7440 m             COMMENT
Additional Antenna Identification Info.:                    COMMENT
Turborogue and Ashtech Choke Ring                           COMMENT
Original XYZ: -2314401.0722 -4698741.1978 3628322.8838      COMMENT
New XYZ position is based on association with SCEC monument COMMENT
E1F2T8V9+0011. Position of that monument is believed to be  COMMENT
valid to within 1 m horizontally; vertical accuracy         COMMENT
should be no worse than 3-times this value.                 COMMENT
                                                            COMMENT
Revised Rinex header created by UCSD GPS archive for        COMMENT
GSAC on 16-Jun-2000 (2000:168) 22:17:54 GMT                 COMMENT
For assistance contact dagnew@ucsd.edu                      COMMENT
or anderson@python.ucsd.edu                                 COMMENT
                                                            COMMENT
PK02 99                                                     MARKER NAME
DAE SCRIPPS INSTITUTION OF OCEANOGRAPHY                     OBSERVER / AGENCY
317 ASHTECH Z-XII3 CC00                                     REC # / TYPE / VERS
408 DORNE-MARGOL. TYPE T                                    ANT # / TYPE
 -2314393.8856 -4698726.5985  3628259.0748                  APPROX POSITION XYZ
        0.6846        0.0000        0.0000                  ANTENNA: DELTA H/E/N
     1     1     0                                          WAVELENGTH FACT L1/2
     7    C1    L1    L2    P1    P2    S1    S2            # / TYPES OF OBSERV
     0                                                      INTERVAL
  2000     3    14     0     0   30.000000                  TIME OF FIRST OBS
  2000     3    14    23    59   30.000000                  TIME OF LAST OBS
                                                            END OF HEADER
 00  3 14  0  0 30.0000000  0  6G17G 5G30G24G10G 6
  22913746.753   -14774757.68049 -11278102.48546  22913746.653    22913761.605
       226.000         178.000
  21994270.629     3605682.25349   2825056.37847  21994270.563    21994285.565
       230.000         188.000
  20722948.254   -14596389.55249 -11343658.15847  20722948.841    20722959.726
       243.000         211.000
  23040234.985    13486418.78349  10591923.17746  23040234.907    23040250.765
       222.000         169.000
  20920777.622   -18448677.65049 -14348943.09047  20920777.117    20920789.157
       241.000         206.000
  21173636.725   -16186368.86449 -12603045.97647  21173636.047    21173647.714
       240.000         207.000
 00  3 14  0  1  0.0000000  0  6G17G 5G30G24G10G 6
  22900957.413   -14841965.83249 -11330472.33046  22900956.398    22900972.343
       224.000         178.000
  22011355.702     3695464.12949   2895016.12147  22011355.885    22011370.156
       231.000         188.000
  20728762.186   -14565837.21149 -11319851.16847  20728762.896    20728774.081
       245.000         211.000
  23054598.177    13561898.18949  10650738.19946  23054597.634    23054613.904
       220.000         168.000
  20926509.913   -18418554.19749 -14325470.28147  20926509.359    20926521.254
       242.000         206.000
  21163470.582   -16239791.42349 -12644673.87447  21163470.474    21163482.492
       240.000         207.000
 00  3 14  0  1 30.0000000  0  6G17G 5G30G24G10G 6
  22888206.878   -14908969.63349 -11382682.94246  22888206.464    22888221.897
       225.000         178.000
  22028504.844     3785582.85049   2965238.35947  22028505.123    22028518.900
       233.000         188.000
  20734689.621   -14534688.65249 -11295579.59547  20734690.153    20734701.226
       244.000         211.000
  23068962.150    13637382.19149  10709556.79646  23068963.029    23068978.734
       221.000         167.000
  20932360.266   -18387810.59249 -14301514.22947  20932359.839    20932371.982
       240.000         206.000
  21153345.060   -16293002.08049 -12686136.66847  21153343.725    21153357.796
       239.000         207.000
 00  3 14  0  2  0.0000000  0  6G17G 5G30G24G10G 6
  22875498.583   -14975751.28249 -11434720.44946  22875497.543    22875514.209
       225.000         178.000
  22045719.474     3876045.63349   3035728.70147  22045719.596    22045733.890
       234.000         188.000
  20740730.838   -14502942.15749 -11270842.09047  20740731.211    20740742.380
       243.000         211.000
  23083332.130    13712896.20049  10768398.77946  23083332.471    23083348.974
       220.000         167.000
  20938333.474   -18356421.05649 -14277054.86147  20938333.054    20938344.988
       241.000         206.000
  21143259.029   -16346003.44849 -12727436.36547  21143258.527    21143269.779
       240.000         207.000
 00  3 14  0  2 30.0000000  0  6G17G 5G30G24G10G 6
  22862837.205   -15042286.71849 -11486566.11046  22862836.857    22862852.463
       225.000         177.000
  22062996.423     3966835.85749   3106474.19247  22062996.695    22063011.111
       230.000         188.000
  20746885.960   -14470596.75249 -11245637.91047  20746886.669    20746898.050
       244.000         211.000
  23097705.863    13788430.78249  10827256.79346  23097705.571    23097721.129
       219.000         166.000
  20944427.778   -18324395.37549 -14252099.78947  20944427.175    20944439.352
       241.000         206.000
  21133212.282   -16398798.90549 -12768575.61747  21133212.871    21133224.072
       242.000         208.000
 00  3 14  0  3  0.0000000  0  6G17G 5G30G24G10G 6
  22850223.000   -15108574.05849 -11538218.44346  22850222.610    22850237.125
       226.000         177.000
  22080334.480     4057948.17249   3177470.62446  22080334.742    22080349.146
       230.000         187.000
  20753153.748   -14437659.58949 -11219972.61747  20753154.130    20753165.341
       242.000         210.000
  23112081.947    13863976.85849  10886123.75046  23112082.358    23112097.883
       218.000         165.000
  20950640.633   -18291746.52749 -14226659.13447  20950640.104    20950652.481
       240.000         206.000
  21123204.472   -16451390.08049 -12809555.66447  21123205.229    21123216.791
       244.000         207.000
 00  3 14  0  3 30.0000000  0  6G17G 5G30G24G10G 6
  22837654.606   -15174621.04849 -11589683.48646  22837654.861    22837670.286
       226.000         177.000
  22097729.503     4149358.82449   3248699.55246  22097729.660    22097744.744
       231.000         187.000
  20759531.789   -14404142.41549 -11193855.37347  20759532.275    20759543.641
       243.000         211.000
  23126462.510    13939547.45549  10945009.83046  23126462.593    23126478.958
       218.000         166.000
  20956968.159   -18258495.39749 -14200749.16347  20956967.823    20956979.508
       240.000         206.000
  21113232.440   -16503793.59949 -12850389.51247  21113233.143    21113244.452
       243.000         208.000
 00  3 14  0  4  0.0000000  0  6G17G 5G30G24G10G 6
  22825128.966   -15240443.12849 -11640973.28946  22825128.003    22825143.212
       225.000         177.000
  22115175.912     4241039.59949   3320138.96446  22115175.603    22115190.480
       230.000         185.000
  20766019.154   -14370050.99349 -11167290.65947  20766019.904    20766031.189
       243.000         211.000
  23140845.344    14015128.57449  11003904.10046  23140845.856    23140861.336
       220.000         166.000
  20963401.194   -18224689.38749 -14174406.81947  20963400.500    20963412.665
       241.000         206.000
  21103296.689   -16556006.21549 -12891074.60147  21103297.031    21103307.686
       243.000         207.000
 00  3 14  0  4 30.0000000  0  6G17G 5G30G24G10G 6
  22812643.258   -15306055.54249 -11692099.72946  22812642.366    22812657.279
       226.000         177.000
  22132673.055     4332987.65449   3391786.65046  22132673.529    22132687.787
       229.000         184.000
  20772616.340   -14335382.63149 -11140276.37747  20772616.747    20772627.979
       243.000         210.000
  23155227.929    14090708.67749  11062797.60046  23155228.309    23155245.387
       220.000         166.000
  20969936.842   -18190344.43549 -14147644.52747  20969936.125    20969948.565
       241.000         206.000
  21093400.220   -16608012.52549 -12931598.91347  21093400.043    21093411.653
       242.000         208.000
 00  3 14  0  5  0.0000000  0  6G17G 5G30G24G10G 6
  22800195.679   -15371467.68749 -11743070.10046  22800195.793    22800210.223
       227.000         177.000
  22150221.307     4425203.49549   3463642.98146  22150221.461    22150236.045
       228.000         184.000
  20779324.371   -14300131.69749 -11112808.15547  20779324.783    20779336.169
       242.000         210.000
  23169612.992    14166301.56949  11121701.01546  23169613.760    23169629.991
       220.000         167.000
  20976578.602   -18155441.44549 -14120447.39847  20976578.207    20976590.115
       240.000         206.000
  21083545.316   -16659799.84149 -12971952.59247  21083545.145    21083556.892
       242.000         208.000
 00  3 14  0  5 30.0000000  0  6G17G 5G30G24G10G 6
  22787788.535   -15436666.87249 -11793874.52946  22787787.593    22787802.552
       225.000         177.000
  22167819.634     4517683.17549   3535704.91546  22167819.758    22167834.646
       228.000         185.000
  20786143.687   -14264296.19149 -11084884.41047  20786144.222    20786155.564
       244.000         210.000
  23184003.276    14241921.85849  11180625.79146  23184003.348    23184017.866
       219.000         165.000
  20983329.061   -18119967.84849 -14092805.64147  20983328.544    20983340.683
       241.000         206.000
  21073733.073   -16711363.87049 -13012132.28647  21073732.608    21073744.639
       241.000         208.000
 00  3 14  0  6  0.0000000  0  6G17G 5G30G24G10G 6
  22775421.844   -15501654.04549 -11844513.75546  22775420.824    22775436.878
       226.000         178.000
  22185470.847     4610440.15749   3607982.91946  22185471.238    22185485.971
       229.000         186.000
  20793072.850   -14227883.34649 -11056510.80147  20793073.085    20793084.892
       243.000         210.000
  23198396.773    14317558.97449  11239563.70046  23198397.344    23198413.130
       220.000         165.000
  20990189.235   -18083917.45249 -14064714.43647  20990188.755    20990200.740
       241.000         206.000
  21063964.310   -16762698.06249 -13052132.88847  21063964.111    21063975.554
       242.000         207.000
 00  3 14  0  6 30.0000000  0  6G17G 5G30G24G10G 6
  22763095.360   -15566429.19149 -11894987.78046  22763094.288    22763109.538
       226.000         178.000
  22203176.870     4703485.32149   3680485.47046  22203177.400    22203191.939
       229.000         185.000
  20800110.380   -14190900.89249 -11027693.34447  20800110.833    20800122.215
       243.000         210.000
  23212793.835    14393215.35849  11298516.61346  23212793.437    23212809.504
       219.000         165.000
  20997162.435   -18047272.92549 -14036160.27147  20997161.987    20997173.921
       241.000         206.000
  21054237.311   -16813813.25449 -13091962.83747  21054237.794    21054248.942
       243.000         208.000
 00  3 14  0  7  0.0000000  0  6G17G 5G30G24G10G 6
  22750810.985   -15630983.65949 -11945289.82946  22750810.232    22750826.030
       225.000         179.000
  22220936.520     4796812.60649   3753207.86446  22220936.895    22220951.770
       230.000         184.000
  20807254.583   -14153357.95149 -10998439.14747  20807255.007    20807266.448
       243.000         209.000
  23227194.220    14468890.61749  11357484.25546  23227193.908    23227209.291
       218.000         164.000
  21004248.080   -18010037.82049 -14007145.91147  21004247.462    21004259.702
       241.000         206.000
  21044549.584   -16864721.96449 -13131631.88047  21044549.581    21044561.059
       242.000         208.000
 00  3 14  0  7 30.0000000  0  7G17G 5G30G24G13G10G 6
  22738561.444   -15695354.54849 -11995448.83346  22738561.132    22738575.483
       226.000         179.000
  22238743.969     4890390.35149   3826125.42046  22238744.178    22238758.359
       229.000         184.000
  20814496.957   -14115299.13049 -10968782.96247  20814497.573    20814508.883
       243.000         210.000
  23241590.490    14544543.89849  11416434.74846  23241590.332    23241605.930
       219.000         163.000
  24865532.673    -3253879.31549  -2525421.45445  24865533.220    24865549.988
       205.000         134.000
  21011433.500   -17972277.97149 -13977722.66147  21011433.038    21011444.912
       241.000         206.000
  21034893.948   -16915462.40549 -13171169.82347  21034893.866    21034906.032
       241.000         208.000
 00  3 14  0  8  0.0000000  0  7G17G 5G30G24G13G10G 6
  22726350.843   -15759521.17049 -12045448.66846  22726349.835    22726366.138
       225.000         180.000
  22256604.903     4984249.23549   3899262.05446  22256605.243    22256620.148
       230.000         184.000
  20821845.815   -14076680.08449 -10938690.25447  20821846.566    20821857.592
       242.000         209.000
  23255988.157    14620204.04549  11475390.57646  23255989.304    23256003.990
       219.000         163.000
  24862522.321    -3269698.78849  -2537748.20745  24862521.714    24862538.949
       203.000         134.000
  21018724.345   -17933964.41749 -13947867.97047  21018724.170    21018735.752
       241.000         205.000
  21025276.391   -16966002.62449 -13210551.74147  21025276.554    21025288.486
       242.000         208.000
 00  3 14  0  8 30.0000000  0  7G17G 5G30G24G13G10G 6
  22714180.832   -15823474.62749 -12095282.40546  22714179.940    22714194.401
       225.000         180.000
  22274515.106     5078367.25749   3972600.59746  22274515.774    22274530.687
       230.000         184.000
  20829301.157   -14037502.02349 -10908161.92547  20829301.744    20829313.440
       243.000         210.000
  23270386.862    14695868.62749  11534349.89146  23270387.736    23270402.759
       219.000         163.000
  24859601.111    -3285049.15949  -2549709.41845  24859602.066    24859619.818
       206.000         135.000
  21026120.126   -17895099.51449 -13917583.63947  21026119.720    21026131.585
       241.000         205.000
  21015696.389   -17016345.40449 -13249779.82847  21015696.026    21015707.371
       243.000         208.000
 00  3 14  0  9  0.0000000  0  7G17G 5G30G24G13G10G 6
  22702051.896   -15887211.95249 -12144947.70646  22702051.207    22702067.115
       227.000         181.000
  22292470.643     5172723.24549   4046124.57246  22292470.914    22292485.805
       228.000         185.000
  20836860.843   -13997775.80049 -10877206.47747  20836861.641    20836872.785
       244.000         209.000
  23284784.292    14771527.33349  11593304.60646  23284784.789    23284800.270
       218.000         163.000
  24856768.064    -3299936.89049  -2561310.15745  24856768.787    24856785.571
       206.000         135.000
  21033618.060   -17855697.36349 -13886880.68447  21033617.799    21033629.897
       240.000         205.000
  21006152.713   -17066497.21449 -13288859.08447  21006152.763    21006164.526
       243.000         209.000
 00  3 14  0  9 30.0000000  0  7G17G 5G30G24G13G10G 6
  22689962.420   -15950741.59949 -12194451.21146  22689961.536    22689976.927
       225.000         180.000
  22310468.676     5267302.54049   4119822.56346  22310468.474    22310483.388
       230.000         184.000
  20844523.055   -13957510.98849 -10845831.34647  20844523.976    20844535.097
       245.000         210.000
  23299178.054    14847167.52249  11652244.90045  23299177.645    23299194.158
       218.000         162.000
  24854023.982    -3314357.96849  -2572547.27245  24854023.588    24854042.024
       202.000         137.000
  21041217.732   -17815761.03949 -13855761.48447  21041216.999    21041229.216
       240.000         205.000
  20996645.879   -17116456.19849 -13327788.09747  20996645.235    20996657.706
       242.000         210.000
 00  3 14  0 10  0.0000000  0  7G17G 5G30G24G13G10G 6
  22677914.122   -16014055.76149 -12243786.78346  22677913.687    22677928.538
       227.000         181.000
  22328507.481     5362096.13249   4193687.53746  22328508.095    22328522.013
       229.000         183.000
  20852288.644   -13916703.06049 -10814033.00747  20852289.320    20852300.796
       243.000         209.000
  23313567.912    14922786.92349  11711169.00845  23313568.582    23313583.742
       219.000         162.000
  24851367.773    -3328314.79549  -2583422.61245  24851367.936    24851385.859
       203.000         137.000
  21048922.216   -17775273.76949 -13824212.98247  21048921.755    21048933.887
       239.000         205.000
  20987174.938   -17166225.78349 -13366569.53547  20987175.481    20987186.566
       244.000         210.000
 00  3 14  0 10 30.0000000  0  7G17G 5G30G24G13G10G 6
  22665907.085   -16077152.83149 -12292953.19446  22665907.089    22665921.868
       229.000         181.000
  22346587.169     5457104.42649   4267719.80246  22346587.409    22346602.130
       228.000         182.000
  20860156.878   -13875355.51449 -10781814.19547  20860157.463    20860169.028
       243.000         210.000
  23327955.197    14998392.51949  11770082.35045  23327955.592    23327971.368
       218.000         162.000
  24848798.888    -3341813.06649  -2593940.64045  24848799.554    24848816.873
       205.000         137.000
  21056731.176   -17734237.42749 -13792236.62447  21056730.479    21056742.884
       240.000         205.000
  20977742.112   -17215796.25349 -13405195.81347  20977741.852    20977754.141
       242.000         210.000
 00  3 14  0 11  0.0000000  0  7G17G 5G30G24G13G10G 6
  22653939.420   -16140042.97349 -12341958.37246  22653939.104    22653954.561
       229.000         182.000
  22364710.675     5552343.78649   4341932.11246  22364711.183    22364725.998
       229.000         180.000
  20868129.240   -13833460.75749 -10749168.97747  20868129.844    20868141.298
       243.000         209.000
  23342341.556    15073991.87149  11828990.81245  23342342.183    23342357.933
       218.000         162.000
  24846315.140    -3354865.60249  -2604111.36145  24846314.544    24846333.681
       201.000         136.000
  21064644.438   -17692653.34749 -13759833.47047  21064643.920    21064656.059
       241.000         205.000
  20968349.229   -17265155.86949 -13443657.80347  20968349.144    20968360.108
       244.000         211.000
 00  3 14  0 11 30.0000000  0  7G17G 5G30G24G13G10G 6
  22642009.697   -16202734.17649 -12390808.53946  22642009.073    22642023.746
       230.000         183.000
  22382880.528     5647827.16949   4416334.56846  22382880.254    22382895.982
       227.000         180.000
  20876207.937   -13791007.52849 -10716088.58947  20876208.532    20876219.815
       244.000         210.000
  23356729.669    15149601.97349  11887907.66945  23356730.692    23356746.536
       218.000         161.000
  24843915.626    -3367474.04949  -2613935.99545  24843916.684    24843932.428
       202.000         136.000
  21072661.770   -17650521.93349 -13727003.81347  21072661.240    21072673.429
       241.000         204.000
  20959000.179   -17314285.43349 -13481940.52647  20959000.626    20959011.246
       245.000         211.000
 00  3 14  0 12  0.0000000  0  7G17G 5G30G24G13G10G 6
  22630117.851   -16265225.61049 -12439503.02146  22630117.566    22630132.087
       230.000         183.000
  22401099.887     5743571.03149   4490940.00346  22401099.781    22401115.467
       226.000         179.000
  20884394.148   -13747988.81249 -10682567.56247  20884394.515    20884406.302
       243.000         209.000
  23371122.991    15225238.41349  11946845.05745  23371123.998    23371139.902
       221.000         162.000
  24841601.210    -3379635.56649  -2623412.40445  24841601.057    24841620.047
       201.000         135.000
  21080784.101   -17607838.41349 -13693743.94047  21080783.607    21080796.048
       240.000         204.000
  20949695.722   -17363180.47749 -13520040.51347  20949696.117    20949707.576
       244.000         211.000
 00  3 14  0 12 30.0000000  0  7G17G 5G30G24G13G10G 6
  22618262.340   -16327526.20249 -12488048.80846  22618261.913    22618276.511
       230.000         183.000
  22419371.130     5839586.78649   4565757.29546  22419371.112    22419386.791
       228.000         179.000
  20892686.787   -13704411.02949 -10648610.89847  20892687.254    20892699.005
       244.000         209.000
  23385521.253    15300899.91749  12005801.94845  23385521.830    23385537.632
       220.000         162.000
  24839374.722    -3391335.24649  -2632528.93945  24839375.458    24839392.327
       206.000         134.000
  21089012.693   -17564596.81149 -13660049.20547  21089011.951    21089024.619
       240.000         204.000
  20940439.198   -17411823.81849 -13557944.36947  20940439.276    20940450.133
       243.000         211.000
 00  3 14  0 13  0.0000000  0  7G17G 5G30G24G13G10G 6
  22606445.894   -16389621.48849 -12536434.62146  22606444.664    22606459.910
       228.000         183.000
  22437695.276     5935880.32449   4640791.05146  22437695.147    22437711.200
       225.000         179.000
  20901086.733   -13660269.27049 -10614214.77347  20901087.288    20901098.906
       243.000         209.000
  23399923.208    15376583.11349  12064775.75445  23399922.781    23399939.915
       217.000         162.000
  24837237.793    -3402565.76149  -2641279.90545  24837237.518    24837253.347
       205.000         136.000
  21097348.216   -17520793.52249 -13625916.78947  21097347.500    21097359.878
       240.000         204.000
  20931230.339   -17460216.34649 -13595652.77547  20931229.711    20931241.845
       241.000         211.000
 00  3 14  0 13 30.0000000  0  7G17G 5G30G24G13G10G 6
  22594669.235   -16451506.98249 -12584656.95246  22594668.756    22594684.470
       229.000         182.000
  22456068.865     6032433.88349   4716027.41346  22456068.647    22456085.377
       225.000         179.000
  20909593.255   -13615566.91749 -10579381.83447  20909593.899    20909605.171
       244.000         209.000
  23414328.625    15452283.96249  12123763.32145  23414327.928    23414345.542
       218.000         161.000
  24835192.930    -3413310.01349  -2649651.94345  24835193.443    24835210.404
       204.000         133.000
  21105790.052   -17476431.36549 -13591348.89347  21105789.746    21105801.889
       241.000         204.000
  20922070.553   -17508350.59549 -13633159.92847  20922070.542    20922082.170
       243.000         211.000
 00  3 14  0 14  0.0000000  0  7G17G 5G30G24G13G10G 6
  22582934.775   -16513171.87549 -12632707.38146  22582933.740    22582949.093
       228.000         182.000
  22474489.968     6129236.67049   4791457.97146  22474490.804    22474506.463
       226.000         179.000
  20918204.783   -13570313.44049 -10544119.42547  20918205.258    20918216.919
       243.000         209.000
  23428734.003    15527983.68249  12182750.01245  23428734.904    23428750.352
       219.000         160.000
  24833244.023    -3423552.63849  -2657633.10645  24833245.182    24833261.980
       208.000         135.000
  21114337.392   -17431514.82749 -13556349.01647  21114336.859    21114348.998
       240.000         203.000
  20912959.712   -17556227.97749 -13670466.91947  20912959.879    20912970.587
       243.000         211.000
 00  3 14  0 14 30.0000000  0  7G17G 5G30G24G13G10G 6
  22571243.589   -16574608.54049 -12680579.96946  22571242.914    22571257.725
       227.000         182.000
  22492955.952     6226274.29149   4867071.50346  22492957.000    22492971.566
       227.000         178.000
  20926918.597   -13524522.29849 -10508438.06847  20926919.085    20926931.029
       243.000         209.000
  23443135.106    15603660.76049  12241719.04345  23443135.195    23443151.491
       219.000         160.000
  24831390.579    -3433292.88749  -2665222.82145  24831390.906    24831406.945
       203.000         134.000
  21122986.321   -17386064.33149 -13520933.06547  21122985.811    21122997.833
       239.000         203.000
  20903897.537   -17603849.24849 -13707574.34347  20903897.783    20903909.471
       243.000         211.000
 00  3 14  0 15  0.0000000  0  7G17G 5G30G24G13G10G 6
  22559597.063   -16635810.79849 -12728269.89446  22559597.146    22559611.487
       228.000         183.000
  22511462.171     6323523.76949   4942850.13946  22511463.338    22511477.340
       227.000         177.000
  20935730.676   -13478214.79649 -10472354.33847  20935731.035    20935742.351
       243.000         209.000
  23457530.876    15679311.33949  12300667.44945  23457530.570    23457547.538
       217.000         160.000
  24829630.502    -3442540.59749  -2672428.72945  24829631.814    24829649.203
       206.000         134.000
  21131731.069   -17340110.26349 -13485124.72347  21131730.397    21131742.762
       239.000         203.000
  20894881.174   -17651231.16449 -13744495.25847  20894881.015    20894892.291
       242.000         211.000
 00  3 14  0 15 30.0000000  0  7G17G 5G30G24G13G10G 6
  22547991.515   -16696797.57749 -12775791.92446  22547991.460    22548005.890
       228.000         183.000
  22530004.400     6420963.15549   5018776.75246  22530004.602    22530020.845
       227.000         175.000
  20944634.119   -13431426.84849 -10435896.24847  20944634.541    20944646.384
       243.000         209.000
  23471918.625    15754918.85849  12359582.27745  23471918.659    23471937.552
       215.000         158.000
  24827961.745    -3451310.09949  -2679262.04244  24827960.920    24827978.458
       204.000         131.000
  21140569.054   -17293666.10049 -13448934.49147  21140568.579    21140580.809
       239.000         203.000
  20885909.226   -17698378.32049 -13781233.24647  20885909.516    20885920.780
       243.000         211.000
 00  3 14  0 16  0.0000000  0  7G17G 5G30G24G13G10G 6
  22536426.005   -16757574.51049 -12823150.42646  22536425.018    22536439.158
       228.000         183.000
  22548583.819     6518597.61449   5094855.36146  22548584.030    22548599.471
       227.000         175.000
  20953627.843   -13384164.85449 -10399068.76347  20953628.495    20953639.891
       244.000         209.000
  23486296.076    15830472.97849  12418455.49145  23486297.335    23486313.625
       217.000         158.000
  24826379.786    -3459622.72849  -2685739.32645  24826380.235    24826397.145
       205.000         132.000
  21149501.086   -17246728.22849 -13412359.55247  21149500.475    21149512.648
       239.000         203.000
  20876976.725   -17745319.13649 -13817810.44247  20876976.660    20876988.487
       243.000         211.000
 00  3 14  0 16 30.0000000  0  8G17G 5G30G26G24G13G10G 6
  22524897.200   -16818157.67649 -12870357.95846  22524895.959    22524911.377
       228.000         184.000
  22567200.008     6616425.22749   5171084.49046  22567200.902    22567215.703
       224.000         173.000
  20962712.775   -13336423.39549 -10361867.68047  20962713.256    20962725.415
       243.000         208.000
  24328801.256    -4432223.00949  -3435774.15845  24328800.902    24328821.864
       206.000         134.000
  23500664.869    15905979.62749  12477291.72445  23500665.788    23500680.423
       216.000         158.000
  24824883.886    -3467483.44049  -2691864.43645  24824882.501    24824900.917
       203.000         132.000
  21158529.961   -17199281.27049 -13375387.92847  21158529.445    21158541.601
       238.000         202.000
  20868081.731   -17792062.02649 -13854233.41547  20868081.788    20868092.749
       243.000         211.000
 00  3 14  0 17  0.0000000  0  8G17G 5G30G26G24G13G10G 6
  22513403.383   -16878557.18749 -12917422.36846  22513402.965    22513417.303
       232.000         184.000
  22585852.264     6714443.04849   5247461.82746  22585852.070    22585867.977
       224.000         173.000
  20971894.822   -13288171.58149 -10324268.91347  20971895.509    20971906.558
       244.000         208.000
  24312275.301    -4519067.20949  -3503444.70845  24312273.643    24312296.108
       202.000         135.000
  23515028.065    15981458.89949  12536106.63345  23515028.125    23515045.019
       215.000         157.000
  24823474.250    -3474888.61949  -2697634.61145  24823475.845    24823492.849
       205.000         133.000
  21167660.659   -17151299.21349 -13337999.34047  21167660.104    21167672.275
       239.000         202.000
  20859224.477   -17838606.85749 -13890502.05747  20859224.539    20859235.807
       243.000         211.000
 00  3 14  0 17 30.0000000  0  8G17G 5G30G26G24G13G10G 6
  22501946.792   -16938761.98349 -12964335.06946  22501946.517    22501961.035
       231.000         185.000
  22604545.961     6812678.46349   5324008.71246  22604545.629    22604561.508
       221.000         172.000
  20981183.538   -13239359.60349 -10286233.66047  20981183.979    20981195.798
       243.000         208.000
  24295755.499    -4605876.68549  -3571088.18045  24295754.449    24295778.566
       206.000         137.000
  23529387.920    16056921.09049  12594908.23045  23529388.333    23529404.825
       215.000         156.000
  24822157.164    -3481811.61249  -2703029.06545  24822157.808    24822173.262
       207.000         134.000
  21176899.876   -17102747.00349 -13300166.47747  21176899.887    21176911.534
       240.000         202.000
  20850408.489   -17884935.10949 -13926601.92847  20850408.363    20850420.058
       243.000         211.000
 00  3 14  0 18  0.0000000  0  8G17G 5G30G26G24G13G10G 6
  22490530.251   -16998756.02449 -13011083.55046  22490530.120    22490544.424
       233.000         187.000
  22623284.473     6911148.95949   5400738.77646  22623284.216    22623300.735
       221.000         173.000
  20990587.017   -13189944.16549 -10247728.17347  20990587.509    20990599.177
       243.000         208.000
  24279248.287    -4692621.20549  -3638681.05145  24279246.467    24279268.380
       197.000         137.000
  23543748.640    16132386.43749  12653712.26745  23543749.441    23543764.770
       216.000         156.000
  24820936.082    -3488228.44949  -2708029.09045  24820937.682    24820952.594
       204.000         135.000
  21186249.524   -17053614.69349 -13261881.58747  21186248.855    21186261.571
       239.000         203.000
  20841635.723   -17931035.93949 -13962524.58747  20841636.076    20841647.023
       244.000         211.000
 00  3 14  0 18 30.0000000  0  8G17G 5G30G26G24G13G10G 6
  22479157.034   -17058522.79949 -13057654.93546  22479156.594    22479170.944
       232.000         187.000
  22642066.237     7009847.72849   5477646.70746  22642066.034    22642082.617
       223.000         173.000
  21000105.330   -13139925.21149 -10208752.41347  21000105.859    21000117.625
       243.000         208.000
  24262753.923    -4779298.01649  -3706221.12145  24262753.685    24262774.908
       206.000         138.000
  23558112.215    16207867.96949  12712528.94045  23558111.659    23558130.380
       212.000         156.000
  24819814.927    -3494118.27949  -2712618.47945  24819815.379    24819831.806
       207.000         134.000
  21195707.658   -17003911.66949 -13223151.98747  21195707.127    21195719.513
       239.000         202.000
  20832911.279   -17976883.15449 -13998249.62047  20832911.306    20832922.585
       244.000         211.000
 00  3 14  0 19  0.0000000  0  8G17G 5G30G26G24G13G10G 6
  22467828.888   -17118052.40549 -13104041.53046  22467827.677    22467842.145
       231.000         186.000
  22660890.429     7108769.16749   5554728.14346  22660890.722    22660906.480
       224.000         173.000
  21009734.199   -13089325.18249 -10169323.88047  21009734.473    21009745.934
       242.000         207.000
  24246268.626    -4865928.62649  -3773725.21645  24246267.978    24246290.509
       207.000         139.000
  23572478.418    16283363.87449  12771356.80445  23572479.332    23572495.899
       216.000         155.000
  24818792.470    -3499491.74549  -2716805.49445  24818791.798    24818809.275
       207.000         135.000
  21205269.598   -16953663.66749 -13183997.72647  21205269.547    21205281.506
       239.000         202.000
  20824236.760   -18022467.80549 -14033770.06147  20824236.931    20824248.002
       244.000         212.000
 00  3 14  0 19 30.0000000  0  8G17G 5G30G26G24G13G10G 6
  22456545.040   -17177348.77249 -13150246.36746  22456544.508    22456558.745
       232.000         186.000
  22679754.574     7207899.64149   5631972.46746  22679755.072    22679770.569
       224.000         173.000
  21019465.592   -13038186.51549 -10129475.61347  21019466.126    21019478.129
       243.000         208.000
  24229787.647    -4952535.25549  -3841210.62645  24229788.297    24229809.933
       210.000         139.000
  23586844.534    16358856.74649  12830182.30745  23586845.207    23586862.232
       215.000         155.000
  24817865.527    -3504361.81349  -2720600.27845  24817865.919    24817884.157
       205.000         136.000
  21214929.797   -16902899.65949 -13144441.38447  21214929.280    21214941.654
       239.000         203.000
  20815613.133   -18067785.40649 -14069082.41447  20815612.861    20815624.168
       243.000         212.000
 00  3 14  0 20  0.0000000  0  8G17G 5G30G26G24G13G10G 6
  22445303.196   -17236424.95949 -13196279.64646  22445302.081    22445317.176
       231.000         186.000
  22698653.402     7307212.81649   5709359.13446  22698653.419    22698669.725
       222.000         172.000
  21029292.934   -12986543.46549 -10089234.33447  21029293.383    21029305.100
       242.000         207.000
  24213307.077    -5039139.76049  -3908694.42745  24213307.236    24213328.189
       203.000         139.000
  23601209.492    16434344.99549  12889004.22145  23601209.163    23601228.029
       214.000         155.000
  24817030.340    -3508749.46849  -2724019.14845  24817030.158    24817047.533
       207.000         135.000
  21224684.433   -16851638.79549 -13104497.88347  21224684.107    21224696.132
       239.000         202.000
  20807040.952   -18112831.98949 -14104183.58247  20807040.446    20807051.891
       242.000         212.000
 00  3 14  0 20 30.0000000  0  8G17G 5G30G26G24G13G10G 6
  22434100.454   -17295295.03449 -13242152.31746  22434100.036    22434113.449
       232.000         187.000
  22717585.191     7406699.89249   5786881.31746  22717585.133    22717601.974
       221.000         171.000
  21039211.127   -12934423.36349 -10048621.32447  21039211.747    21039223.409
       242.000         207.000
  24196822.645    -5125765.61849  -3976194.83145  24196824.737    24196843.290
       206.000         139.000
  23615572.952    16509825.74749  12947820.30245  23615572.190    23615590.838
       213.000         156.000
  24816285.806    -3512662.58949  -2727068.27545  24816286.133    24816303.569
       204.000         137.000
  21234532.256   -16799888.44149 -13064172.96447  21234531.929    21234543.907
       239.000         202.000
  20798520.521   -18157606.74249 -14139072.93647  20798520.614    20798531.878
       243.000         212.000
 00  3 14  0 21  0.0000000  0  8G17G 5G30G26G24G13G10G 6
  22422934.794   -17353970.43849 -13287873.28447  22422933.456    22422948.523
       231.000         188.000
  22736552.573     7506373.37149   5864548.77146  22736552.552    22736568.788
       223.000         170.000
  21049220.106   -12881825.73149 -10007636.21247  21049220.948    21049232.369
       242.000         207.000
  24180333.094    -5212418.75049  -4043716.49545  24180333.663    24180352.822
       206.000         140.000
  23629933.438    16585290.01049  13006623.50645  23629933.717    23629951.385
       214.000         156.000
  24815631.294    -3516099.60549  -2729746.40245  24815631.686    24815649.188
       207.000         137.000
  21244473.970   -16747644.77949 -13023463.64447  21244473.467    21244485.548
       238.000         202.000
  20790052.018   -18202108.88149 -14173749.87347  20790051.507    20790063.664
       242.000         212.000
 00  3 14  0 21 30.0000000  0  8G17G 5G30G26G24G13G10G 6
  22411806.703   -17412448.50249 -13333440.49647  22411805.460    22411820.338
       231.000         188.000
  22755556.905     7606240.55649   5942367.13546  22755556.876    22755573.184
       223.000         170.000
  21059323.882   -12828730.17549  -9966263.12147  21059324.673    21059336.553
       243.000         207.000
  24163841.703    -5299079.40949  -4111244.02045  24163842.290    24163862.999
       205.000         140.000
  23644290.810    16660738.46149  13065414.39845  23644291.018    23644308.252
       212.000         156.000
  24815070.856    -3519044.78249  -2732041.25345  24815071.314    24815088.110
       205.000         138.000
  21254512.027   -16694894.31749 -12982359.42147  21254511.718    21254524.092
       238.000         202.000
  20781633.824   -18246346.33449 -14208220.57347  20781634.234    20781644.721
       244.000         212.000
 00  3 14  0 22  0.0000000  0  8G17G 5G30G26G24G13G10G 6
  22400717.711   -17470720.57249 -13378847.18147  22400717.336    22400731.347
       232.000         188.000
  22774601.260     7706318.24649   6020349.52446  22774601.491    22774617.755
       222.000         170.000
  21069523.992   -12775128.77349  -9924495.84647  21069524.692    21069536.245
       243.000         207.000
  24147351.986    -5385733.86649  -4178766.71145  24147352.116    24147371.634
       207.000         142.000
  23658646.417    16736177.85949  13124198.25445  23658646.940    23658664.246
       214.000         157.000
  24814605.952    -3521486.64449  -2733943.94045  24814606.665    24814622.990
       210.000         138.000
  21264646.915   -16641635.44849 -12940859.03247  21264646.082    21264658.657
       238.000         202.000
  20773263.591   -18290332.28249 -14242495.27547  20773263.729    20773274.771
       243.000         212.000
 00  3 14  0 22 30.0000000  0  8G17G 5G30G26G24G13G10G 6
  22389667.246   -17528791.07849 -13424096.81247  22389666.536    22389681.230
       232.000         189.000
  22793685.823     7806607.09949   6098496.45646  22793686.669    22793702.128
       220.000         169.000
  21079818.187   -12721032.47549  -9882342.96147  21079818.935    21079830.796
       242.000         206.000
  24130862.843    -5472383.01849  -4246285.26045  24130861.522    24130883.457
       207.000         143.000
  23672999.172    16811599.78549  13182968.49145  23672999.653    23673016.206
       215.000         158.000
  24814237.598    -3523422.15149  -2735452.03145  24814237.741    24814253.312
       206.000         138.000
  21274877.628   -16587872.53349 -12898965.88547  21274876.829    21274889.371
       239.000         202.000
  20764937.655   -18334084.92249 -14276588.18748  20764938.162    20764949.280
       244.000         213.000
 00  3 14  0 23  0.0000000  0  8G17G 5G30G26G24G13G10G 6
  22378655.354   -17586658.76049 -13469188.39247  22378654.440    22378668.563
       233.000         190.000
  22812807.491     7907091.84649   6176796.03946  22812807.402    22812823.776
       219.000         168.000
  21090208.582   -12666430.76149  -9839796.22147  21090209.382    21090220.902
       243.000         206.000
  24114378.625    -5559006.81249  -4313784.06645  24114378.753    24114400.550
       205.000         142.000
  23687345.438    16886988.86749  13241713.11445  23687346.221    23687363.055
       216.000         160.000
  24813964.223    -3524857.71849  -2736570.57745  24813964.870    24813981.347
       205.000         137.000
  21285203.356   -16533610.62749 -12856683.91947  21285202.611    21285215.249
       237.000         202.000
  20756654.848   -18377611.65249 -14310505.06948  20756654.567    20756665.959
       242.000         213.000
 00  3 14  0 23 30.0000000  0  8G17G 5G30G26G24G13G10G 6
  22367681.006   -17644329.38149 -13514126.41447  22367680.057    22367694.748
       233.000         191.000
  22831962.203     8007749.53749   6255230.37246  22831962.072    22831978.584
       220.000         167.000
  21100696.169   -12611318.51249  -9796851.67847  21100696.482    21100708.352
       240.000         205.000
  24097901.512    -5645592.64649  -4381253.29145  24097901.050    24097923.069
       204.000         141.000
  23701688.781    16962363.06349  13300446.16945  23701689.252    23701706.001
       218.000         160.000
  24813783.549    -3525807.92849  -2737310.92945  24813783.135    24813800.756
       204.000         135.000
  21295622.620   -16478856.90749 -12814018.72147  21295621.838    21295634.463
       237.000         201.000
  20748415.804   -18420907.60449 -14344242.12448  20748415.671    20748427.055
       243.000         213.000
 00  3 14  0 24  0.0000000  0  8G17G 5G30G26G24G13G10G 6
  22356743.112   -17701807.52249 -13558914.45947  22356742.369    22356756.714
       233.000         190.000
  22851147.502     8108569.01949   6333790.78846  22851147.949    22851164.354
       221.000         167.000
  21111278.636   -12555707.35149  -9753518.36847  21111279.156    21111290.890
       241.000         205.000
  24081431.031    -5732143.70349  -4448695.39645  24081431.412    24081452.388
       207.000         141.000
  23716031.656    17037733.78549  13359176.49945  23716030.933    23716048.858
       216.000         161.000
  24813693.200    -3526281.38149  -2737679.76545  24813693.348    24813710.843
       207.000         134.000
  21306135.019   -16423613.53249 -12770971.96947  21306134.360    21306147.199
       237.000         201.000
  20740226.070   -18463944.87149 -14377777.60848  20740225.880    20740237.201
       243.000         213.000
 00  3 14  0 24 30.0000000  0  8G17G 5G30G26G24G13G10G 6
  22345842.216   -17759091.59649 -13603551.28847  22345841.196    22345855.025
       233.000         190.000
  22870360.895     8209533.96949   6412464.53946  22870362.008    22870377.646
       224.000         169.000
  21121957.668   -12499588.99849  -9709789.83947  21121958.153    21121969.983
       240.000         205.000
  24064969.365    -5818649.46449  -4516102.21945  24064968.309    24064989.324
       208.000         141.000
  23730374.038    17113102.94049  13417905.62345  23730374.504    23730390.823
       216.000         161.000
  24813694.463    -3526276.84649  -2737676.17445  24813693.557    24813711.116
       205.000         133.000
  21316742.500   -16367871.41849 -12727536.59847  21316742.097    21316754.379
       238.000         201.000
  20732091.401   -18506692.39449 -14411087.32648  20732091.672    20732102.150
       243.000         213.000
 00  3 14  0 25  0.0000000  0  8G17G 5G30G26G24G13G10G 6
  22334980.209   -17816170.98049 -13648028.61447  22334979.685    22334993.609
       233.000         189.000
  22889603.088     8310649.99549   6491256.01946  22889603.137    22889619.141
       224.000         170.000
  21132735.264   -12442952.31749  -9665657.43247  21132736.081    21132747.488
       241.000         204.000
  24048519.658    -5905092.15649  -4583459.90145  24048520.016    24048540.663
       212.000         141.000
  23744718.675    17188485.08649  13476644.86945  23744719.783    23744736.335
       218.000         162.000
  24813788.923    -3525779.79849  -2737288.77845  24813788.292    24813805.904
       208.000         135.000
  21327445.926   -16311624.44349 -12683707.83347  21327445.437    21327457.703
       238.000         200.000
  20724018.740   -18549114.87749 -14444143.75548  20724018.890    20724029.485
       243.000         213.000
 00  3 14  0 25 30.0000000  0  8G17G 5G30G26G24G13G10G 6
  22324160.005   -17873030.91449 -13692334.93547  22324159.306    22324173.438
       233.000         189.000
  22908875.037     8411923.77049   6570170.40346  22908875.026    22908890.730
       223.000         171.000
  21143609.177   -12385810.01549  -9621131.03447  21143609.704    21143621.417
       241.000         205.000
  24032083.911    -5991462.57749  -4650761.27545  24032084.224    24032105.477
       208.000         143.000
  23759068.729    17263894.48249  13535405.32446  23759068.509    23759086.695
       216.000         163.000
  24813978.256    -3524783.73149  -2736512.58245  24813978.870    24813995.971
       204.000         135.000
  21338246.271   -16254868.17949 -12639482.21247  21338245.880    21338258.072
       238.000         200.000
  20716010.200   -18591199.18749 -14476936.67448  20716010.265    20716021.143
       243.000         213.000
 00  3 14  0 26  0.0000000  0  8G17G 5G30G26G24G13G10G 6
  22313384.227   -17929657.36149 -13736459.32947  22313383.776    22313397.909
       233.000         189.000
  22928177.850     8513359.86449   6649211.28046  22928178.602    22928194.437
       223.000         171.000
  21154575.729   -12328180.58549  -9576225.05147  21154576.441    21154588.117
       240.000         204.000
  24015663.112    -6077753.51249  -4718000.69845  24015663.482    24015684.084
       209.000         145.000
  23773418.435    17339301.96349  13594164.29445  23773418.945    23773435.937
       217.000         162.000
  24814265.051    -3523276.63749  -2735338.15845  24814264.782    24814282.630
       204.000         133.000
  21349142.709   -16197607.49549 -12594863.54347  21349142.346    21349154.159
       238.000         200.000
  20708063.760   -18632958.07949 -14509476.01848  20708063.516    20708074.773
       243.000         213.000
 00  3 14  0 26 30.0000000  0  8G17G 5G30G26G24G13G10G 6
  22302651.814   -17986056.10049 -13780406.28447  22302650.576    22302665.275
       231.000         189.000
  22947511.739     8614958.46049   6728378.78146  22947512.308    22947528.902
       222.000         171.000
  21165635.287   -12270062.39649  -9530938.22247  21165636.145    21165647.911
       241.000         204.000
  23999259.436    -6163954.69949  -4785170.17845  23999259.079    23999279.419
       208.000         146.000
  23787763.824    17414686.32249  13652905.26845  23787764.014    23787781.150
       216.000         162.000
  24814649.369    -3521256.36949  -2733763.84345  24814649.116    24814668.457
       205.000         134.000
  21360132.898   -16139854.06149 -12549860.91247  21360132.408    21360144.700
       238.000         199.000
  20700173.151   -18674423.41449 -14541786.62048  20700173.008    20700184.390
       243.000         213.000
 00  3 14  0 27  0.0000000  0  8G17G 5G30G26G24G13G10G 6
  22291963.235   -18042224.34849 -13824173.64547  22291962.525    22291976.294
       233.000         189.000
  22966874.977     8716712.37349   6807667.30346  22966874.134    22966892.475
       219.000         170.000
  21176786.642   -12211462.27849  -9485275.85247  21176787.345    21176798.940
       241.000         205.000
  23982872.060    -6250069.79249  -4852272.55845  23982871.703    23982892.669
       210.000         145.000
  23802101.929    17490033.78549  13711617.46745  23802101.828    23802118.690
       217.000         161.000
  24815129.153    -3518733.98549  -2731798.27745  24815129.563    24815147.695
       205.000         133.000
  21371212.214   -16081631.80549 -12504492.95547  21371211.478    21371224.204
       238.000         199.000
  20692332.527   -18715625.93949 -14573892.42948  20692332.446    20692343.222
       243.000         214.000
 00  3 14  0 27 30.0000000  0  8G17G 5G30G26G24G13G10G 6
  22281317.475   -18098167.40049 -13867765.51847  22281317.075    22281330.984
       233.000         189.000
  22986265.117     8818608.53449   6887066.64146  22986264.950    22986282.740
       222.000         170.000
  21188027.755   -12152390.15849  -9439245.69047  21188028.183    21188040.163
       239.000         204.000
  23966498.346    -6336112.65249  -4919318.64645  23966498.089    23966518.107
       207.000         145.000
  23816428.384    17565320.08349  13770282.01345  23816428.430    23816445.464
       218.000         159.000
  24815699.949    -3515734.62349  -2729461.08445  24815702.077    24815716.711
       204.000         134.000
  21382378.260   -16022953.89049 -12458769.95447  21382377.758    21382389.996
       237.000         198.000
  20684533.930   -18756607.47149 -14605826.04048  20684533.855    20684544.840
       243.000         214.000
 00  3 14  0 28  0.0000000  0  8G17G 5G30G26G24G13G10G 6
  22270710.091   -18153909.63049 -13911200.91147  22270709.698    22270723.795
       233.000         191.000
  23005682.179     8920644.95349   6966575.28546  23005682.387    23005699.371
       222.000         170.000
  21199359.347   -12092842.29149  -9392844.82447  21199360.248    21199371.737
       241.000         205.000
  23950134.496    -6422103.36049  -4986324.08245  23950133.917    23950154.356
       205.000         144.000
  23830739.395    17640524.82749  13828883.00945  23830739.562    23830757.095
       216.000         158.000
  24816361.488    -3512257.69449  -2726751.70645  24816361.920    24816377.552
       207.000         132.000
  21393630.443   -15963823.25249 -12412694.16447  21393629.778    21393642.240
       237.000         198.000
  20676776.404   -18797373.46749 -14637591.70848  20676776.875    20676787.001
       245.000         214.000
 00  3 14  0 28 30.0000000  0  8G17G 5G30G26G24G13G10G 6
  22260139.192   -18209459.63749 -13954486.51947  22260139.166    22260152.735
       234.000         192.000
  23025128.039     9022832.13449   7046201.42146  23025128.036    23025145.794
       219.000         169.000
  21210784.738   -12032801.59649  -9346059.93747  21210785.339    21210797.207
       240.000         204.000
  23933782.419    -6508034.01649  -5053282.72745  23933782.547    23933802.434
       207.000         144.000
  23845037.763    17715663.34749  13887432.43245  23845038.194    23845055.422
       216.000         156.000
  24817114.383    -3508304.00049  -2723670.84745  24817114.549    24817131.628
       205.000         133.000
  21404972.359   -15904221.17049 -12366251.02447  21404972.306    21404984.576
       237.000         198.000
  20669064.210   -18837900.74849 -14669171.35148  20669064.265    20669074.797
       244.000         214.000
 00  3 14  0 29  0.0000000  0  8G17G 5G30G26G24G13G10G 6
  22249607.384   -18264804.86949 -13997612.56847  22249606.438    22249620.648
       232.000         192.000
  23044604.670     9125182.79449   7125954.91946  23044603.483    23044621.677
       219.000         168.000
  21222304.837   -11972262.93049  -9298887.02847  21222305.703    21222317.560
       240.000         204.000
  23917442.502    -6593899.34749  -5120190.45345  23917441.280    23917462.415
       208.000         145.000
  23859325.494    17790745.18549  13945937.67045  23859325.103    23859342.675
       214.000         155.000
  24817960.044    -3503858.94549  -2720207.10445  24817961.043    24817976.830
       206.000         134.000
  21416408.286   -15844125.20649 -12319423.04347  21416407.620    21416420.392
       237.000         198.000
  20661403.572   -18878157.94849 -14700540.54848  20661403.728    20661414.599
       244.000         214.000
 00  3 14  0 29 30.0000000  0  8G17G 5G30G26G24G13G10G 6
  22239114.023   -18319947.35549 -14040580.62847  22239113.402    22239127.666
       235.000         193.000
  23064117.451     9227723.02349   7205856.14546  23064118.203    23064135.301
       220.000         166.000
  21233921.938   -11911214.96149  -9251317.24447  21233922.481    21233934.460
       241.000         204.000
  23901117.850    -6679684.77449  -5187035.90145  23901118.060    23901137.995
       209.000         144.000
  23873606.266    17865791.24349  14004415.01545  23873605.087    23873624.617
       211.000         153.000
  24818903.741    -3498899.59749  -2716342.58245  24818904.160    24818921.701
       209.000         135.000
  21427944.122   -15783503.68849 -12272185.53147  21427943.933    21427956.395
       237.000         198.000
  20653801.385   -18918107.87649 -14731670.31848  20653801.051    20653811.976
       243.000         214.000
 00  3 14  0 30  0.0000000  0  8G17G 5G30G26G24G13G10G 6
  22228662.540   -18374869.74549 -14083377.19647  22228661.558    22228675.611
       234.000         192.000
  23083668.428     9330462.86249   7285912.89346  23083668.749    23083685.816
       222.000         166.000
  21245637.757   -11849648.10149  -9203343.14547  21245638.041    21245650.435
       239.000         204.000
  23884812.469    -6765368.76849  -5253802.31045  23884811.749    23884832.644
       211.000         144.000
  23887885.277    17940829.31049  14062886.12945  23887885.281    23887901.501
       212.000         150.000
  24819950.182    -3493401.67349  -2712058.40745  24819950.975    24819967.389
       204.000         135.000
  21439581.747   -15722348.10649 -12224531.87747  21439581.936    21439593.724
       238.000         198.000
  20646263.537   -18957719.03249 -14762536.10148  20646263.489    20646274.481
       243.000         214.000
 00  3 14  0 30 30.0000000  0  8G17G 5G30G26G24G13G10G 6
  22218257.377   -18429548.63149 -14125984.03047  22218257.261    22218270.527
       235.000         192.000
  23103256.255     9433395.83549   7366120.13946  23103256.558    23103274.464
       218.000         168.000
  21257448.369   -11787582.93249  -9154980.74447  21257448.754    21257461.185
       240.000         203.000
  23868527.793    -6850944.41149  -5320484.29145  23868527.023    23868547.165
       212.000         145.000
  23902166.690    18015878.63049  14121366.01845  23902166.974    23902185.296
       211.000         149.000
  24821097.407    -3487370.94749  -2707359.07945  24821097.082    24821113.978
       204.000         133.000
  21451318.443   -15660672.18449 -12176472.74447  21451318.391    21451330.374
       238.000         198.000
  20638788.159   -18997002.16949 -14793146.28648  20638787.805    20638799.364
       244.000         214.000
 00  3 14  0 31  0.0000000  0  8G17G 5G30G26G24G13G10G 6
  22207897.929   -18483987.81349 -14168404.06047  22207897.273    22207911.285
       233.000         192.000
  23122873.220     9536483.08649   7446447.58946  23122874.227    23122890.776
       221.000         167.000
  21269347.830   -11725051.42549  -9106254.97447  21269348.506    21269360.432
       239.000         204.000
  23852257.497    -6936444.73149  -5387107.59545  23852257.646    23852276.636
       213.000         147.000
  23916449.726    18090936.15749  14179852.30445  23916449.956    23916466.749
       211.000         147.000
  24822344.112    -3480818.56349  -2702253.24445  24822343.139    24822361.988
       205.000         132.000
  21463145.279   -15598521.82849 -12128043.94047  21463144.904    21463156.939
       237.000         198.000
  20631367.991   -19035994.88449 -14823530.17748  20631368.511    20631378.945
       245.000         214.000
 00  3 14  0 31 30.0000000  0  8G17G 5G30G26G24G13G10G 6
  22197579.634   -18538210.26849 -14210655.23347  22197578.716    22197592.566
       233.000         192.000
  23142510.841     9639678.18149   7526859.09546  23142511.203    23142527.577
       221.000         166.000
  21281330.049   -11662084.41049  -9057189.84747  21281331.031    21281342.736
       239.000         203.000
  23835996.696    -7021894.28149  -5453691.33245  23835996.873    23836016.754
       214.000         148.000
  23930732.343    18165991.17149  14238336.64345  23930733.118    23930750.661
       210.000         146.000
  24823684.305    -3473775.32349  -2696764.91045  24823685.640    24823699.701
       206.000         133.000
  21475053.162   -15535945.54149 -12079283.22947  21475052.421    21475065.042
       238.000         198.000
  20623995.739   -19074736.58749 -14853718.46148  20623995.625    20624006.601
       243.000         214.000
 00  3 14  0 32  0.0000000  0  8G17G 5G30G26G24G13G10G 6
  22187298.042   -18592239.42349 -14252755.76447  22187296.794    22187312.101
       232.000         191.000
  23162160.974     9742939.32249   7607322.05946  23162161.100    23162179.290
       218.000         165.000
  21293389.200   -11598713.42549  -9007809.93147  21293389.883    21293402.362
       239.000         203.000
  23819741.025    -7107316.67649  -5520253.93445  23819739.787    23819760.437
       208.000         148.000
  23945010.294    18241021.94449  14296802.09945  23945010.404    23945027.758
       208.000         143.000
  24825114.509    -3466258.88249  -2690907.84845  24825114.961    24825131.646
       204.000         133.000
  21487035.917   -15472975.96349 -12030216.06147  21487035.575    21487047.740
       238.000         198.000
  20616664.541   -19113261.77049 -14883738.03348  20616664.920    20616675.779
       245.000         214.000
 00  3 14  0 32 30.0000000  0  8G17G 5G30G26G24G13G10G 6
  22177044.542   -18646121.32949 -14294741.57547  22177043.562    22177057.333
       231.000         190.000
  23181817.800     9846235.95949   7687812.67946  23181818.311    23181834.675
       221.000         165.000
  21305520.119   -11534965.23949  -8958136.10347  21305521.075    21305532.828
       240.000         203.000
  23803485.317    -7192739.06549  -5586816.51345  23803484.830    23803504.940
       213.000         148.000
  23959277.382    18315994.91149  14355222.50345  23959278.097    23959292.809
       208.000         143.000
  24826629.464    -3458298.33049  -2684704.74145  24826628.313    24826646.674
       206.000         132.000
  21499087.247   -15409646.02149 -11980868.09547  21499086.362    21499099.391
       237.000         198.000
  20609369.702   -19151596.43649 -14913609.14348  20609369.560    20609380.377
       243.000         214.000
 00  3 14  0 33  0.0000000  0  8G17G 5G30G26G24G13G10G 6
  22166817.887   -18699862.33249 -14336617.58447  22166817.492    22166831.049
       233.000         190.000
  23201484.267     9949582.14749   7768341.91146  23201484.666    23201501.800
       220.000         164.000
  21317730.886   -11470797.78449  -8908135.55647  21317731.711    21317744.089
       238.000         202.000
  23787236.965    -7278124.33549  -5653350.21345  23787236.169    23787256.119
       211.000         148.000
  23973534.019    18390913.13649  14413600.24445  23973534.607    23973550.391
       209.000         142.000
  24828232.903    -3449872.50849  -2678139.09445  24828233.522    24828248.639
       206.000         133.000
  21511211.026   -15345935.29249 -11931223.40547  21511210.179    21511222.850
       236.000         197.000
  20602118.763   -19189700.18249 -14943300.32448  20602118.960    20602130.003
       244.000         214.000
 00  3 14  0 33 30.0000000  0  8G17G 5G30G26G24G13G10G 6
  22156625.050   -18753426.31549 -14378355.65947  22156624.728    22156638.376
       234.000         192.000
  23221172.228    10053041.53549   7848959.32546  23221172.877    23221189.511
       219.000         163.000
  21330032.953   -11406150.04549  -8857760.77247  21330033.905    21330045.867
       239.000         202.000
  23771009.167    -7363400.41849  -5719798.78845  23771008.673    23771029.157
       208.000         147.000
  23987785.800    18465807.00449  14471959.02345  23987785.572    23987803.371
       207.000         142.000
  24829934.315    -3440931.10749  -2671171.68745  24829933.825    24829952.447
       207.000         135.000
  21523420.652   -15281773.19149 -11881227.00047  21523420.156    21523432.656
       237.000         197.000
  20594926.086   -19227497.66249 -14972752.84648  20594925.860    20594936.654
       244.000         214.000
 00  3 14  0 34  0.0000000  0  8G17G 5G30G26G24G13G10G 6
  22146463.919   -18806823.17449 -14419963.50147  22146463.352    22146477.005
       233.000         192.000
  23240883.330    10156622.59149   7929671.57445  23240884.051    23240900.562
       216.000         161.000
  21342425.762   -11341025.84649  -8807014.72647  21342426.546    21342438.864
       239.000         203.000
  23754804.082    -7448557.55249  -5786154.70945  23754803.572    23754822.455
       207.000         147.000
  24002030.365    18540661.79149  14530287.33645  24002030.090    24002046.991
       209.000         141.000
  24831731.413    -3431487.92049  -2663813.26345  24831731.260    24831747.224
       207.000         133.000
  21535715.483   -15217163.25349 -11830881.63347  21535715.305    21535727.749
       236.000         197.000
  20587793.731   -19264977.88749 -15001958.15848  20587793.917    20587804.414
       245.000         215.000
 00  3 14  0 34 30.0000000  0  8G17G 5G30G26G24G13G10G 6
  22136341.033   -18860018.76149 -14461414.51847  22136340.410    22136353.691
       232.000         192.000
  23260622.566    10260352.38049   8010499.69945  23260622.866    23260641.325
       215.000         160.000
  21354915.497   -11275392.13549  -8755871.66347  21354915.959    21354928.267
       237.000         202.000
  23738628.246    -7533559.80849  -5852389.93245  23738628.449    23738647.558
       208.000         147.000
  24016270.250    18615492.02849  14588596.53545  24016269.902    24016288.534
       213.000         142.000
  24833626.468    -3421527.57549  -2656051.85645  24833627.567    24833643.130
       209.000         132.000
  21548099.373   -15152085.96849 -11780172.09147  21548098.981    21548111.238
       237.000         197.000
  20580729.426   -19302100.77549 -15030885.02948  20580729.338    20580740.046
       244.000         215.000
 00  3 14  0 35  0.0000000  0  8G17G 5G30G26G24G13G10G 6
  22126261.887   -18912983.77849 -14502685.87647  22126261.238    22126275.212
       234.000         192.000
  23280391.712    10364239.34349   8091450.28945  23280392.020    23280409.268
       214.000         160.000
  21367504.374   -11209237.40749  -8704322.59947  21367505.294    21367516.980
       239.000         202.000
  23722485.569    -7618389.18549  -5918490.44045  23722485.705    23722506.639
       212.000         148.000
  24030506.869    18690304.42749  14646891.82245  24030507.376    24030522.776
       212.000         142.000
  24835624.333    -3411029.82149  -2647871.71445  24835622.356    24835640.375
       207.000         133.000
  21560577.253   -15086514.41349 -11729077.41047  21560576.913    21560589.334
       237.000         197.000
  20573738.281   -19338839.52449 -15059512.57048  20573738.267    20573749.025
       244.000         215.000
 00  3 14  0 35 30.0000000  0  8G17G 5G30G26G24G13G10G 6
  22116231.724   -18965692.74549 -14543757.70547  22116231.292    22116244.329
       234.000         192.000
  23300192.216    10468290.85049   8172529.11145  23300192.352    23300211.092
       213.000         159.000
  21380188.423   -11142582.64049  -8652383.91447  21380188.643    21380201.772
       237.000         202.000
  23706375.305    -7703048.33949  -5984458.30445  23706374.858    23706394.161
       212.000         149.000
  24044743.163    18765116.07449  14705186.55845  24044744.220    24044761.505
       212.000         144.000
  24837725.011    -3399989.53649  -2639268.81245  24837725.640    24837741.294
       211.000         135.000
  21573149.050   -15020449.03149 -11677597.93547  21573148.680    21573161.048
       237.000         197.000
  20566820.701   -19375191.15049 -15087838.45748  20566820.796    20566831.538
       244.000         214.000
 00  3 14  0 36  0.0000000  0  8G17G 5G30G26G24G13G10G 6
  22106249.966   -19018146.82349 -14584630.91147  22106249.822    22106263.012
       233.000         192.000
  23320020.100    10572486.70549   8253720.41345  23320020.326    23320038.311
       216.000         159.000
  21392963.431   -11075449.57749  -8600072.53047  21392964.359    21392976.328
       239.000         201.000
  23690295.182    -7787548.83349  -6050302.55445  23690294.800    23690313.743
       214.000         150.000
  24058980.008    18839931.46449  14763484.20245  24058980.734    24058997.333
       214.000         144.000
  24839926.506    -3388421.02549  -2630254.32745  24839926.627    24839942.916
       209.000         134.000
  21585810.797   -14953911.23649 -11625750.34247  21585810.444    21585823.226
       236.000         196.000
  20559974.324   -19411169.01649 -15115873.11148  20559974.046    20559985.301
       242.000         214.000
 00  3 14  0 36 30.0000000  0  9G17G 5G30G26G24G13G10G23G 6
  22096314.555   -19070356.93149 -14625314.02447  22096313.530    22096327.469
       231.000         191.000
  23339872.254    10676808.76849   8335010.04245  23339872.882    23339890.068
       218.000         159.000
  21405826.975   -11007851.51649  -8547398.80347  21405827.824    21405840.192
       239.000         202.000
  23674241.616    -7871910.50449  -6116038.62245  23674241.544    23674260.015
       213.000         150.000
  24073215.480    18914738.42549  14821775.26445  24073216.199    24073232.898
       212.000         146.000
  24842228.902    -3376320.99149  -2620825.65645  24842228.463    24842245.433
       209.000         134.000
  21598561.293   -14886907.23449 -11573539.47047  21598561.037    21598573.385
       237.000         196.000
                  -1252757.35849   -958395.99443
       206.000          74.000
  20553194.204   -19446798.33049 -15143636.16448  20553194.060    20553204.997
       243.000         214.000
 00  3 14  0 37  0.0000000  0  9G17G 5G30G26G24G13G10G23G 6
  22086422.912   -19122337.19449 -14665818.01447  22086422.238    22086436.527
       233.000         192.000
  23359745.830    10781244.38349   8416388.11945  23359745.615    23359764.369
       218.000         159.000
  21418773.770   -10939816.04949  -8494384.22347  21418774.181    21418786.529
       238.000         201.000
  23658212.761    -7956140.34249  -6181671.94845  23658212.930    23658231.344
       213.000         149.000
  24087450.881    18989545.47249  14880066.40045  24087450.795    24087468.224
       212.000         145.000
  24844631.866    -3363693.30349  -2610985.83445  24844632.978    24844647.562
       212.000         135.000
  21611398.052   -14819449.61849 -11520975.13147  21611397.671    21611410.473
       236.000         196.000
                  -1356656.95949  -1039357.14843
       204.000          74.000
  20546475.178   -19482106.93049 -15171149.30948  20546474.811    20546485.815
       243.000         214.000
 00  3 14  0 37 30.0000000  0  8G17G 5G30G26G24G13G10G 6
  22076570.359   -19174112.84349 -14706162.59247  22076569.679    22076583.627
       233.000         193.000
  23379638.630    10885780.23949   8497844.33045  23379638.313    23379657.344
       215.000         159.000
  21431800.820   -10871358.65649  -8441040.90247  21431801.453    21431813.994
       238.000         200.000
  23642207.086    -8040250.27049  -6247211.86345  23642206.891    23642226.293
       211.000         149.000
  24101684.650    19064343.98049  14938350.88045  24101684.791    24101702.429
       212.000         147.000
  24847130.352    -3350563.09149  -2600754.44845  24847129.770    24847147.605
       208.000         135.000
  21624315.445   -14751567.38949 -11468079.92447  21624315.038    21624327.935
       236.000         195.000
  20539811.054   -19517126.98749 -15198437.62848  20539811.055    20539821.600
       243.000         215.000
 00  3 14  0 38  0.0000000  0  8G17G 5G30G26G24G13G10G 6
  22066752.292   -19225706.88349 -14746365.63947  22066751.716    22066765.645
       234.000         193.000
  23399548.240    10990405.72849   8579370.38545  23399548.610    23399566.988
       216.000         159.000
  21444908.886   -10802475.94649  -8387366.14247  21444909.578    21444921.758
       239.000         202.000
  23626224.983    -8124236.22649  -6312655.17645  23626225.494    23626243.480
       212.000         150.000
  24115913.283    19139114.86849  14996613.83245  24115913.540    24115931.659
       213.000         147.000
  24849724.974    -3336927.27549  -2590129.07145  24849725.103    24849739.536
       211.000         135.000
  21637313.828   -14683261.18649 -11414854.34847  21637313.380    21637326.141
       236.000         195.000
  20533198.304   -19551876.77949 -15225515.34148  20533198.143    20533209.300
       243.000         214.000
 00  3 14  0 38 30.0000000  0  8G17G 5G30G26G24G13G10G 6
  22056967.670   -19277124.98249 -14786431.59647  22056966.700    22056980.681
       232.000         193.000
  23419474.308    11095117.75949   8660963.86245  23419475.395    23419493.630
       214.000         160.000
  21458095.947   -10733177.75949  -8333367.64447  21458096.099    21458108.571
       236.000         200.000
  23610266.935    -8208095.42749  -6377999.71645  23610265.833    23610285.687
       209.000         150.000
  24130133.619    19213843.35349  15054843.74245  24130133.776    24130150.092
       210.000         147.000
  24852417.829    -3322776.76349  -2579102.64245  24852418.858    24852434.452
       209.000         134.000
  21650390.871   -14614541.50449 -11361306.59047  21650390.357    21650403.133
       235.000         195.000
  20526636.159   -19586361.09349 -15252386.19548  20526636.375    20526647.177
       244.000         215.000
 00  3 14  0 39  0.0000000  0  8G17G 5G30G26G24G13G10G 6
  22047217.054   -19328363.64649 -14826357.73847  22047216.699    22047229.777
       234.000         193.000
  23439415.186    11199906.71149   8742617.29645  23439415.460    23439434.367
       214.000         160.000
  21471359.302   -10663478.54149  -8279056.65547  21471360.057    21471372.557
       238.000         200.000
  23594333.697    -8291823.80349  -6443242.32445  23594333.603    23594352.152
       212.000         150.000
  24144342.603    19288512.49949  15113027.44345  24144343.369    24144360.350
       212.000         148.000
  24855206.208    -3308122.74149  -2567683.82645  24855205.759    24855222.503
       210.000         133.000
  21663543.013   -14545426.17649 -11307450.52847  21663542.492    21663555.367
       237.000         195.000
  20520128.568   -19620558.39149 -15279033.40648  20520128.840    20520139.455
       243.000         215.000
 00  3 14  0 39 30.0000000  0  8G17G 5G30G26G24G13G10G 6
  22037502.049   -19379416.49649 -14866139.09447  22037501.565    22037514.318
       234.000         194.000
  23459371.690    11304777.75049   8824334.67945  23459372.225    23459391.425
       216.000         158.000
  21484702.161   -10593361.63049  -8224420.20147  21484703.070    21484715.581
       238.000         201.000
  23578427.298    -8375410.68449  -6508374.70345  23578427.484    23578446.006
       208.000         149.000
  24158537.700    19363107.60249  15171153.43245  24158537.552    24158555.785
       214.000         149.000
  24858090.618    -3292965.25849  -2555872.74445  24858091.861    24858107.320
       209.000         133.000
  21676770.856   -14475914.07549 -11253285.30447  21676770.324    21676783.137
       235.000         194.000
  20513679.833   -19654446.66149 -15305439.81348  20513679.885    20513690.816
       244.000         215.000
 00  3 14  0 40  0.0000000  0  8G17G 5G30G26G24G13G10G 6
  22027825.682   -19430265.72249 -14905761.76547  22027825.224    22027838.710
       234.000         194.000
  23479345.069    11409735.81349   8906119.86845  23479345.507    23479364.823
       213.000         158.000
  21498124.063   -10522829.56649  -8169460.23647  21498125.018    21498137.364
       238.000         200.000
  23562550.282    -8458843.98549  -6573387.35645  23562549.906    23562568.691
       212.000         150.000
  24172720.326    19437637.83049  15229228.85845  24172720.194    24172737.428
       210.000         147.000
  24861073.064    -3277291.81749  -2543659.63145  24861072.368    24861088.973
       207.000         132.000
  21690075.562   -14405997.62349 -11198804.99147  21690075.024    21690087.629
       237.000         194.000
  20507293.733   -19688005.57849 -15331589.58548  20507293.946    20507304.409
       244.000         215.000
 00  3 14  0 40 30.0000000  0  8G17G 5G30G26G24G13G10G 6
  22018191.277   -19480894.91549 -14945212.98447  22018190.464    22018203.529
       234.000         194.000
  23499333.658    11514775.80649   8987968.91045  23499334.799    23499352.240
       212.000         156.000
  21511624.521   -10451884.47549  -8114178.44547  21511625.002    21511637.935
       238.000         199.000
  23546701.501    -8542128.40549  -6638284.03045  23546701.228    23546720.023
       212.000         150.000
  24186891.785    19512109.32249  15287258.55045  24186891.983    24186909.743
       212.000         148.000
  24864150.949    -3261116.28649  -2531055.28045  24864151.716    24864167.393
       209.000         135.000
  21703457.943   -14335672.85549 -11144006.52347  21703457.549    21703470.168
       235.000         194.000
  20500973.059   -19721221.35749 -15357471.97548  20500972.702    20500983.692
       244.000         216.000
 00  3 14  0 41  0.0000000  0  8G17G 5G30G26G24G13G10G 6
  22008597.683   -19531308.40149 -14984496.11947  22008596.835    22008611.105
       234.000         195.000
  23519338.966    11619904.59649   9069887.13645  23519341.239    23519357.623
       213.000         154.000
  21525205.945   -10380514.13449  -8058565.28547  21525206.769    21525219.348
       239.000         201.000
  23530882.378    -8625257.88449  -6703059.94745  23530881.540    23530900.478
       210.000         150.000
  24201056.066    19586542.52649  15345258.38545  24201056.907    24201072.964
       209.000         147.000
  24867323.715    -3244444.12949  -2518063.95545  24867325.169    24867340.562
       208.000         134.000
  21716923.357   -14264911.63149 -11088867.94247  21716922.397    21716935.506
       234.000         193.000
  20494718.583   -19754088.63649 -15383082.81248  20494718.402    20494729.144
       245.000         216.000
 00  3 14  0 41 30.0000000  0  8G17G 5G30G26G24G13G10G 6
  21999044.508   -19581510.33549 -15023614.40247  21999043.379    21999057.838
       235.000         196.000
  23539362.738    11725128.08849   9151879.15945  23539363.538    23539382.457
       212.000         153.000
  21538869.159   -10308713.83749  -8002617.09847  21538869.931    21538882.573
       237.000         200.000
  23515094.973    -8708219.18849  -6767704.81245  23515094.709    23515113.810
       211.000         150.000
  24215220.269    19660974.99949  15403257.64045  24215220.542    24215237.798
       211.000         148.000
  24870591.064    -3227273.14649  -2504683.90145  24870590.089    24870606.232
       208.000         133.000
  21730475.779   -14193693.10149 -11033373.03647  21730474.875    21730487.763
       234.000         193.000
  20488527.796   -19786621.24249 -15408432.85548  20488527.777    20488538.617
       244.000         216.000
 00  3 14  0 42  0.0000000  0  9G17G 5G30G26G24G13G10G23G 6
  21989530.228   -19631507.79349 -15062573.35447  21989529.975    21989543.404
       237.000         197.000
  23559402.604    11830437.52049   9233938.12745  23559402.745    23559422.100
       211.000         152.000
  21552611.573   -10236497.15049  -7946344.46047  21552612.357    21552624.840
       237.000         200.000
  23499337.990    -8791020.74249  -6832225.18145  23499337.827    23499356.194
       211.000         150.000
  24229385.438    19735413.64949  15461261.70745  24229384.626    24229403.495
       209.000         148.000
  24873955.238    -3209594.43949  -2490908.24244  24873956.009    24873970.664
       206.000         131.000
  21744113.261   -14122027.22349 -10977529.54847  21744112.764    21744125.699
       233.000         192.000
                  -1190948.37119  -1145580.85143
       209.000          74.000
  20482398.224   -19818831.97349 -15433532.09448  20482397.831    20482408.798
       243.000         215.000
 00  3 14  0 42 30.0000000  0  9G17G 5G30G26G24G13G10G23G 6
  21980051.829   -19681317.25549 -15101385.82747  21980051.587    21980065.183
       237.000         197.000
  23579457.056    11935823.03449   9316056.39145  23579458.381    23579475.662
       215.000         153.000
  21566433.833   -10163860.98949  -7889744.94947  21566434.828    21566447.281
       240.000         199.000
  23483611.301    -8873664.22849  -6896622.38445  23483610.864    23483630.911
       209.000         151.000
  24243550.099    19809849.16349  15519263.35645  24243550.509    24243567.144
       214.000         147.000
  24877415.238    -3191411.12149  -2476739.38944  24877415.733    24877432.323
       206.000         131.000
  21757832.408   -14049931.94449 -10921351.45347  21757832.406    21757844.828
       236.000         192.000
                  -1293283.00349   -968805.85343
       210.000          74.000
  20476326.581   -19850738.60849 -15458394.36548  20476326.644    20476337.136
       244.000         215.000
 00  3 14  0 43  0.0000000  0  9G17G 5G30G26G24G13G10G23G 6
  21970606.962   -19730950.29749 -15140060.81947  21970606.116    21970618.856
       236.000         196.000
  23599524.994    12041279.22349   9398229.70445  23599525.918    23599545.893
       215.000         155.000
  21580335.432   -10090808.20849  -7832820.79747  21580336.204    21580348.693
       237.000         199.000
  23467914.778    -8956148.14249  -6960895.22645  23467914.031    23467933.307
       212.000         151.000
  24257714.674    19884283.16849  15577263.81945  24257713.964    24257732.528
       206.000         146.000
  24880972.611    -3172716.96549  -2462172.44544  24880970.672    24880988.670
       203.000         130.000
  21771628.972   -13977431.25149 -10864857.45647  21771628.435    21771641.125
       235.000         192.000
                  -1395429.95649  -1048400.28743
       206.000          74.000
  20470311.324   -19882348.79949 -15483025.63648  20470311.188    20470321.751
       244.000         215.000
 00  3 14  0 43 30.0000000  0  9G17G 5G30G26G24G13G10G23G 6
  21961196.855   -19780400.32449 -15178593.21847  21961195.990    21961209.322
       234.000         196.000
  23619601.914    12146782.37149   9480439.61645  23619601.760    23619621.076
       214.000         154.000
  21594313.894   -10017351.04449  -7775581.55947  21594314.657    21594327.307
       236.000         199.000
  23452246.481    -9038484.60749  -7025053.17645  23452245.648    23452266.206
       210.000         152.000
  24271874.361    19958692.40649  15635244.98345  24271874.241    24271891.666
       213.000         146.000
  24884627.311    -3153511.51249  -2447207.11644  24884628.920    24884643.681
       206.000         131.000
  21785494.001   -13904570.54949 -10808082.93247  21785493.597    21785506.698
       234.000         192.000
                  -1497381.23949  -1127842.54144                  23912935.622
       205.000         114.000
  20464350.915   -19913670.66349 -15507432.23048  20464350.835    20464362.007
       243.000         215.000
 00  3 14  0 44  0.0000000  0  9G17G 5G30G26G24G13G10G23G 6
  21951821.709   -19829666.10349 -15216982.02547  21951821.031    21951834.245
       235.000         196.000
  23639685.211    12252319.78149   9562676.20245  23639684.557    23639705.050
       213.000         154.000
  21608367.636    -9943498.51449  -7718034.23347  21608368.628    21608380.822
       238.000         199.000
  23436602.283    -9120694.39949  -7089112.43645  23436601.548    23436620.415
       206.000         151.000
  24286022.954    20033043.83949  15693181.13345  24286022.586    24286039.901
       207.000         145.000
  24888379.078    -3133795.19649  -2431843.72345  24888378.394    24888395.061
       207.000         132.000
  21799423.615   -13831370.18949 -10751043.74347  21799423.063    21799436.282
       234.000         192.000
  23893545.806    -1599162.01249  -1207151.82445  23893545.243    23893566.559
       209.000         144.000
  20458445.962   -19944701.04649 -15531611.70748  20458445.883    20458456.426
       244.000         215.000
 00  3 14  0 44 30.0000000  0  8G17G 5G30G26G24G10G23G 6
  21942479.773   -19878757.39149 -15255234.87347  21942478.988    21942492.544
       234.000         195.000
  23659771.245    12357871.59549   9644923.99545  23659772.151    23659792.075
       216.000         156.000
  21622493.416    -9869267.57749  -7660192.03547  21622494.069    21622506.675
       236.000         198.000
  23420982.141    -9202777.17149  -7153072.71445  23420981.612    23421001.456
       210.000         152.000
  24300156.688    20107318.98749  15751057.80745  24300157.021    24300174.912
       210.000         144.000
  21813418.446   -13757826.89749 -10693737.33347  21813418.275    21813430.870
       234.000         192.000
  23874207.855    -1700785.05049  -1286338.21745  23874208.389    23874228.980
       214.000         151.000
  20452598.257   -19975430.85849 -15555556.95448  20452598.011    20452609.187
       243.000         215.000
 00  3 14  0 45  0.0000000  0  8G17G 5G30G26G24G10G23G 6
  21933173.278   -19927662.65149 -15293342.76047  21933173.010    21933186.318
       236.000         196.000
  23679861.820    12463446.09549   9727189.51445  23679861.963    23679882.336
       212.000         156.000
  21636688.004    -9794674.93549  -7602068.00847  21636689.002    21636701.310
       236.000         198.000
  23405387.355    -9284726.28449  -7216928.81345  23405386.498    23405405.841
       213.000         152.000
  24314275.743    20181516.00049  15808873.63045  24314275.927    24314294.002
       209.000         144.000
  21827482.053   -13683922.01849 -10636149.16747  21827481.929    21827494.845
       233.000         192.000
  23854896.896    -1802265.66049  -1365413.59445  23854896.329    23854917.015
       214.000         155.000
  20446814.056   -20005826.13949 -15579241.53548  20446813.875    20446824.774
       243.000         215.000
 00  3 14  0 45 30.0000000  0  8G17G 5G30G26G24G10G23G 6
  21923906.997   -19976357.44749 -15331286.65247  21923906.365    21923919.646
       235.000         197.000
  23699962.767    12569076.50549   9809498.60445  23699962.657    23699982.222
       210.000         153.000
  21650953.955    -9719707.18549  -7543651.68247  21650954.596    21650967.157
       237.000         198.000
  23389824.463    -9366509.28349  -7280655.51645  23389823.012    23389841.869
       208.000         151.000
  24328382.000    20255645.44349  15866636.78445  24328382.631    24328399.123
       208.000         144.000
  21841621.653   -13609617.69949 -10578249.76047  21841621.460    21841634.135
       233.000         192.000
  23835613.089    -1903602.43149  -1444376.87245  23835612.299    23835632.868
       215.000         156.000
  20441101.363   -20035846.43549 -15602633.92048  20441101.390    20441112.023
       244.000         215.000
 00  3 14  0 46  0.0000000  0  8G17G 5G30G26G24G10G23G 6
  21914681.139   -20024839.11749 -15369064.47847  21914680.642    21914693.930
       236.000         197.000
  23720080.724    12674796.02849   9891877.10945  23720081.669    23720100.272
       214.000         153.000
  21665295.399    -9644342.97149  -7484926.43747  21665295.858    21665308.750
       236.000         198.000
  23374300.262    -9448087.73849  -7344222.81545  23374300.329    23374319.007
       208.000         152.000
  24342478.556    20329724.02049  15924360.29345  24342479.952    24342495.560
       212.000         144.000
  21855843.660   -13534880.98249 -10520013.41647  21855843.374    21855855.887
       234.000         191.000
  23816359.429    -2004780.41749  -1523216.46445  23816359.387    23816379.254
       214.000         152.000
  20435465.822   -20065461.17549 -15625710.28648  20435465.741    20435476.357
       243.000         215.000
 00  3 14  0 46 30.0000000  0  8G17G 5G30G26G24G10G23G 6
  21905497.484   -20073099.26549 -15406669.69747  21905496.830    21905510.018
       236.000         197.000
  23740220.184    12780627.72249   9974343.02245  23740220.287    23740240.345
       215.000         155.000
  21679717.360    -9568555.31649  -7425871.23447  21679717.854    21679730.805
       237.000         198.000
  23358821.363    -9529428.12249  -7407604.60745  23358821.175    23358839.344
       210.000         152.000
  24356571.052    20403781.37449  15982067.29745  24356572.116    24356589.937
       208.000         143.000
  21870150.605   -13459697.85549 -10461429.21747  21870150.730    21870162.989
       233.000         191.000
  23797142.879    -2105763.51949  -1601904.20145  23797142.961    23797161.962
       213.000         152.000
  20429910.974   -20094651.73249 -15648456.13048  20429911.097    20429921.692
       244.000         215.000
 00  3 14  0 47  0.0000000  0  8G17G 5G30G26G24G10G23G 6
  21896358.781   -20121123.17149 -15444090.82747  21896358.347    21896371.187
       237.000         196.000
  23760384.998    12886593.22049  10056913.18045  23760386.007    23760405.402
       216.000         157.000
  21694224.190    -9492322.12949  -7366468.85347  21694224.991    21694237.514
       236.000         197.000
  23343388.812    -9610524.72249  -7470796.44445  23343388.069    23343407.089
       209.000         152.000
  24370664.554    20477842.97249  16039777.59745  24370664.580    24370683.214
       207.000         145.000
  21884540.847   -13384076.98049 -10402503.92247  21884540.348    21884552.880
       232.000         191.000
  23777964.121    -2206548.07249  -1680437.23445  23777962.629    23777983.063
       209.000         151.000
  20424435.534   -20123425.39549 -15670877.12548  20424435.627    20424446.362
       245.000         216.000
 00  3 14  0 47 30.0000000  0  8G17G 5G30G26G24G10G23G 6
  21887263.582   -20168918.77849 -15481334.06147  21887263.003    21887276.639
       237.000         197.000
  23780569.361    12992661.27249  10139563.27545  23780569.055    23780590.227
       215.000         156.000
  21708818.364    -9415629.39349  -7306708.39347  21708818.797    21708831.901
       236.000         197.000
  23328003.849    -9691372.51549  -7533794.41145  23328003.050    23328021.406
       208.000         152.000
  24384762.022    20551924.73749  16097503.60145  24384762.830    24384780.551
       211.000         144.000
  21899010.238   -13308039.89049 -10343254.29347  21899009.681    21899022.876
       231.000         190.000
  23758826.404    -2307115.64149  -1758801.24345  23758825.827    23758844.718
       207.000         146.000
  20419033.429   -20151813.54249 -15692997.72448  20419033.757    20419044.138
       244.000         216.000
 00  3 14  0 48  0.0000000  0  8G17G 5G30G26G24G10G23G 6
  21878210.390   -20216493.31549 -15518405.04347  21878209.870    21878223.075
       237.000         197.000
  23800766.323    13098794.98249  10222264.52345  23800767.512    23800786.582
       216.000         154.000
  21723497.734    -9338489.12349  -7246599.20447  21723498.465    21723511.097
       237.000         196.000
  23312662.224    -9771991.26849  -7596613.87345  23312661.890    23312679.532
       208.000         152.000
  24398864.146    20626030.37649  16155248.19145  24398864.048    24398881.481
       212.000         144.000
  21913554.201   -13231611.04749 -10283699.40147  21913553.393    21913566.650
       232.000         190.000
  23739728.250    -2407475.78949  -1837003.58145  23739726.679    23739747.445
       203.000         148.000
  20413697.906   -20179851.83749 -15714845.69748  20413697.931    20413708.544
       244.000         216.000
 00  3 14  0 48 30.0000000  0  8G17G 5G30G26G24G10G23G 6
  21869197.816   -20263855.02149 -15555310.18947  21869196.850    21869209.975
       236.000         197.000
  23820966.394    13204946.54249  10304979.65545  23820966.658    23820988.067
       211.000         151.000
  21738253.209    -9260948.80749  -7186178.29647  21738253.770    21738267.087
       235.000         196.000
  23297359.121    -9852407.62349  -7659275.65945  23297359.014    23297376.703
       212.000         153.000
  24412967.364    20700140.96349  16212996.67445  24412967.005    24412984.291
       210.000         144.000
  21928166.967   -13154821.00649 -10223863.06947  21928166.806    21928179.737
       232.000         189.000
  23720664.853    -2507652.94849  -1915063.32245  23720664.346    23720684.226
       206.000         145.000
  20408422.636   -20207573.62549 -15736447.05048  20408422.753    20408433.323
       245.000         216.000
 00  3 14  0 49  0.0000000  0  8G17G 5G30G26G24G10G23G 6
  21860222.131   -20311021.15749 -15592062.93347  21860221.304    21860234.844
       236.000         197.000
  23841162.176    13311075.35249  10387677.08545  23841162.746    23841183.304
       214.000         151.000
  21753076.438    -9183052.65949  -7125480.11347  21753077.248    21753089.777
       236.000         196.000
  23282091.395    -9932639.47449  -7721793.66845  23282091.573    23282109.244
       210.000         154.000
  24427064.277    20774220.00549  16270720.56145  24427063.816    24427081.947
       212.000         144.000
  21942844.721   -13077689.22449 -10163760.44647  21942844.315    21942857.121
       232.000         189.000
  23701631.178    -2607675.65049  -1993002.83245  23701631.092    23701648.913
       210.000         144.000
  20403203.829   -20234998.71549 -15757817.20548  20403203.546    20403214.021
       244.000         216.000
 00  3 14  0 49 30.0000000  0  8G17G 5G30G26G24G10G23G 6
  21851281.242   -20358005.36849 -15628673.91347  21851280.563    21851293.396
       236.000         197.000
  23861350.941    13417166.55349  10470345.19845  23861351.970    23861372.604
       213.000         150.000
  21767960.664    -9104835.98549  -7064532.15047  21767961.494    21767974.149
       236.000         195.000
  23266857.258   -10012694.80849  -7784174.10445  23266856.480    23266875.181
       212.000         156.000
  24441149.311    20848237.95249  16328396.82745  24441148.545    24441168.048
       213.000         145.000
  21957585.978   -13000223.91249 -10103397.90847  21957585.140    21957598.559
       229.000         188.000
  23682626.958    -2707542.39549  -2070820.77345  23682624.400    23682645.744
       199.000         146.000
  20398042.784   -20262119.70049 -15778950.39448  20398042.589    20398053.344
       244.000         216.000
 00  3 14  0 50  0.0000000  0  8G17G 5G30G26G24G10G23G 6
  21842374.248   -20404811.42749 -15665146.07447  21842373.609    21842387.179
       237.000         197.000
  23881539.291    13523255.97549  10553011.93645  23881539.574    23881561.360
       211.000         149.000
  21782905.540    -9026300.40749  -7003335.70447  21782906.328    21782919.367
       234.000         195.000
  23251657.179   -10092569.83749  -7846414.07845  23251656.883    23251675.272
       212.000         156.000
  24455218.783    20922174.29549  16386009.53745  24455218.764    24455237.149
       214.000         145.000
  21972390.905   -12922422.41349 -10042773.41847  21972390.121    21972403.659
       230.000         188.000
  23663650.711    -2807260.47849  -2148522.76545  23663649.636    23663670.000
       214.000         151.000
  20392944.800   -20288909.53649 -15799825.55548  20392944.738    20392955.426
       244.000         216.000
 00  3 14  0 50 30.0000000  0  8G17G 5G30G26G24G10G23G 6
  21833502.130   -20451434.52149 -15701475.67747  21833501.791    21833514.935
       237.000         198.000
  23901733.222    13629373.79049  10635700.81445  23901734.224    23901753.233
       213.000         149.000
  21797914.579    -8947427.25849  -6941876.24847  21797915.317    21797928.813
       234.000         194.000
  23236497.344   -10172235.70649  -7908491.04645  23236496.288    23236514.313
       212.000         156.000
  24469274.512    20996036.30249  16443564.31845  24469274.744    24469292.207
       211.000         143.000
  21987262.564   -12844271.83449  -9981876.91246  21987262.045    21987275.341
       229.000         187.000
  23644709.293    -2906797.67449  -2226083.99045  23644707.789    23644726.925
       209.000         150.000
  20387916.905   -20315331.44049 -15820414.01348  20387916.979    20387927.427
       244.000         216.000
 00  3 14  0 51  0.0000000  0  8G17G 5G30G26G24G10G23G 6
  21824666.518   -20497865.32749 -15737655.45047  21824665.828    21824678.873
       237.000         197.000
  23921939.464    13735556.81749  10718440.46845  23921940.715    23921960.328
       216.000         150.000
  21812996.910    -8868169.80449  -6880117.29947  21812997.576    21813010.784
       236.000         195.000
  23221378.790   -10251682.53949  -7970397.36445  23221378.774    23221395.580
       214.000         157.000
  24483320.065    21069845.85949  16501078.25245  24483319.660    24483338.233
       209.000         143.000
  22002203.732   -12765755.51749  -9920695.42446  22002203.791    22002216.398
       232.000         187.000
  23625806.887    -3006128.65949  -2303484.38945  23625805.905    23625826.333
       213.000         157.000
  20382964.079   -20341358.26849 -15840694.62248  20382964.138    20382974.611
       245.000         216.000
 00  3 14  0 51 30.0000000  0  8G17G 5G30G26G24G10G23G 6
  21815871.439   -20544083.58049 -15773669.59347  21815871.267    21815883.527
       238.000         198.000
  23942163.259    13841832.33849  10801252.18945  23942163.965    23942184.396
       213.000         151.000
  21828159.120    -8788492.29949  -6818031.06347  21828159.670    21828173.033
       236.000         195.000
  23206306.443   -10330887.08349  -8032114.89245  23206305.869    23206323.609
       212.000         157.000
  24497360.954    21143629.91249  16558572.27345  24497361.160    24497378.457
       207.000         141.000
  22017216.775   -12686862.35249  -9859220.29047  22017216.588    22017229.505
       231.000         188.000
  23606947.356    -3105235.85649  -2380710.47945  23606946.501    23606965.206
       209.000         157.000
  20378090.447   -20366969.18349 -15860651.14148  20378090.262    20378101.070
       244.000         216.000
 00  3 14  0 52  0.0000000  0  8G17G 5G30G26G24G10G23G 6
  21807118.570   -20590080.21549 -15809511.04447  21807118.016    21807131.111
       238.000         199.000
  23962402.821    13948190.01749  10884127.93245  23962402.354    23962426.093
       213.000         152.000
  21843405.768    -8708371.15249  -6755599.12047  21843406.604    21843419.500
       235.000         194.000
  23191284.914   -10409824.15049  -8093623.98745  23191284.678    23191301.974
       216.000         158.000
  24511400.586    21217409.51049  16616062.84145  24511401.040    24511418.145
       208.000         140.000
  22032303.583   -12607581.39349  -9797442.96947  22032303.104    22032315.773
       231.000         188.000
  23588130.988    -3204113.74549  -2457757.89545  23588130.087    23588148.411
       211.000         152.000
  20373295.534   -20392166.29449 -15880285.21448  20373295.381    20373306.114
       244.000         216.000
 00  3 14  0 52 30.0000000  0  8G17G 5G30G26G24G10G23G 6
  21798409.718   -20635844.81449 -15845171.68447  21798409.075    21798421.947
       238.000         199.000
  23982652.597    14054601.39549  10967045.56945  23982653.964    23982675.463
       215.000         151.000
  21858731.202    -8627836.00549  -6692844.57447  21858731.935    21858745.198
       235.000         193.000
  23176313.067   -10488500.83349  -8154930.20545  23176312.593    23176329.963
       216.000         158.000
  24525440.817    21291190.60449  16673554.56545  24525440.801    24525459.205
       206.000         140.000
  22047464.999   -12527907.60149  -9735359.54546  22047463.938    22047477.504
       230.000         187.000
  23569358.320    -3302763.67249  -2534627.65845  23569357.863    23569376.814
       213.000         159.000
  20368576.659   -20416963.92749 -15899608.00048  20368576.588    20368587.442
       244.000         216.000
 00  3 14  0 53  0.0000000  0  8G17G 5G30G26G24G10G23G 6
  21789743.125   -20681387.71649 -15880659.56147  21789742.855    21789755.063
       238.000         199.000
  24002907.662    14161041.80249  11049985.80545  24002908.542    24002931.030
       213.000         151.000
  21874129.497    -8546917.90349  -6629791.63147  21874130.085    21874142.898
       235.000         192.000
  23161390.081   -10566920.24949  -8216035.94545  23161389.404    23161406.464
       213.000         158.000
  24539477.536    21364953.62449  16731032.21645  24539477.113    24539495.823
       206.000         141.000
  22062698.597   -12447854.13149  -9672980.26546  22062697.682    22062711.039
       231.000         187.000
  23550624.285    -3401210.45749  -2611339.12345  23550622.843    23550642.366
       215.000         159.000
  20363929.707   -20441383.46549 -15918636.17348  20363929.655    20363940.059
       244.000         216.000
 00  3 14  0 53 30.0000000  0  8G17G 5G30G26G24G10G23G 6
  21781117.315   -20726717.14349 -15915981.09847  21781116.717    21781129.911
       237.000         199.000
  24023162.682    14267481.68549  11132925.57845  24023164.110    24023184.097
       212.000         149.000
  21889591.347    -8465665.87849  -6566478.48347  21889592.480    21889605.391
       235.000         193.000
  23146518.155   -10645071.43849  -8276932.69745  23146517.210    23146535.573
       213.000         157.000
  24553508.299    21438687.42749  16788487.11545  24553508.090    24553526.780
       204.000         141.000
  22078001.173   -12367438.84049  -9610319.05346  22078000.738    22078013.912
       232.000         187.000
  23531928.445    -3499456.28549  -2687894.07145  23531927.905    23531946.594
       218.000         160.000
  20359350.250   -20465448.58149 -15937388.18148  20359350.205    20359361.046
       244.000         217.000
 00  3 14  0 54  0.0000000  0  8G17G 5G30G26G24G10G23G 6
  21772527.331   -20771857.32249 -15951155.17047  21772526.913    21772539.488
       238.000         200.000
  24043413.228    14373897.97849  11215847.01245  24043414.431    24043435.256
       209.000         148.000
  21905110.126    -8384114.74249  -6502932.26247  21905110.727    21905124.146
       235.000         193.000
  23131691.651   -10722983.39249  -8337643.02145  23131691.004    23131708.635
       214.000         158.000
  24567530.511    21512375.90649  16845906.66845  24567530.163    24567548.099
       206.000         143.000
  22093368.390   -12286684.11049  -9547393.34746  22093367.860    22093381.141
       231.000         187.000
  23513270.371    -3597503.77549  -2764294.40445  23513269.003    23513289.024
       213.000         161.000
  20354833.776   -20489182.77449 -15955882.32748  20354833.652    20354844.230
       244.000         217.000
 00  3 14  0 54 30.0000000  0  8G17G 5G30G26G24G10G23G 6
  21763971.334   -20816819.55649 -15986190.60547  21763971.046    21763983.339
       239.000         201.000
  24063658.851    14480287.01449  11298747.21145  24063659.445    24063680.756
       211.000         149.000
  21920680.796    -8302291.05249  -6439173.66247  21920681.528    21920694.454
       236.000         193.000
  23116905.427   -10800684.40849  -8398188.98245  23116904.970    23116922.318
       215.000         158.000
  24581540.160    21585997.54549  16903274.18045  24581540.604    24581558.868
       208.000         142.000
  22108796.018   -12205612.00049  -9484220.33446  22108795.629    22108808.886
       230.000         187.000
  23494647.608    -3695365.96649  -2840550.36145  23494647.574    23494665.045
       218.000         160.000
  20350377.998   -20512597.97949 -15974127.90648  20350377.927    20350388.776
       244.000         217.000
 00  3 14  0 55  0.0000000  0  8G17G 5G30G26G24G10G23G 6
  21755447.575   -20861611.82049 -16021093.57947  21755446.748    21755459.599
       238.000         201.000
  24083899.288    14586649.51449  11381626.70945  24083900.982    24083919.909
       213.000         149.000
  21936305.036    -8220185.77749  -6375195.64647  21936305.032    21936318.263
       232.000         192.000
  23102158.055   -10878181.40049  -8458575.96145  23102157.999    23102175.001
       214.000         159.000
  24595536.266    21659546.66649  16960585.17645  24595536.684    24595554.375
       205.000         143.000
  22124278.881   -12124249.58649  -9420821.10946  22124278.830    22124291.652
       231.000         187.000
  23476060.539    -3793040.85949  -2916660.39745  23476058.493    23476078.776
       209.000         158.000
  20345981.067   -20535703.75449 -15992132.38148  20345981.410    20345991.611
       245.000         217.000
 00  3 14  0 55 30.0000000  0  8G17G 5G30G26G24G10G23G 6
  21746954.673   -20906241.37149 -16055869.76147  21746954.227    21746967.149
       239.000         201.000
  24104134.555    14692985.63349  11464485.65545  24104136.104    24104155.023
       208.000         147.000
  21951984.498    -8137789.50649  -6310990.90547  21951985.317    21951998.140
       234.000         191.000
  23087444.395   -10955501.42049  -8518825.04945  23087443.915    23087460.908
       214.000         159.000
  24609519.952    21733031.14949  17017845.77745  24609519.514    24609537.406
       207.000         142.000
  22139816.372   -12042600.52449  -9357198.52846  22139815.425    22139828.565
       231.000         186.000
  23457508.377    -3890531.10049  -2992626.50745  23457508.055    23457527.050
       211.000         157.000
  20341643.075   -20558500.26349 -16009895.85348  20341642.934    20341653.582
       244.000         217.000
 00  3 14  0 56  0.0000000  0  8G17G 5G30G26G24G10G23G 6
  21738491.955   -20950712.72349 -16090522.69147  21738490.756    21738504.561
       237.000         201.000
  24124365.852    14799301.71649  11547329.01545  24124367.598    24124386.662
       210.000         146.000
  21967723.629    -8055080.72249  -6246542.61647  21967724.601    21967736.740
       234.000         192.000
  23072763.455   -11032649.19049  -8578939.92145  23072763.198    23072779.874
       213.000         160.000
  24623491.123    21806449.61349  17075054.96045  24623491.492    24623509.894
       198.000         139.000
  22155410.171   -11960654.42949  -9293344.48746  22155409.369    22155422.381
       230.000         185.000
  23438987.845    -3987856.26749  -3068464.04645  23438986.397    23439005.218
       213.000         154.000
  20337366.273   -20580974.93249 -16027408.55348  20337366.304    20337376.690
       245.000         217.000
 00  3 14  0 56 30.0000000  0  7G17G 5G30G26G10G23G 6
  21730060.311   -20995020.02049 -16125047.77947  21730059.843    21730072.728
       238.000         201.000
  24144595.807    14905609.41749  11630165.83645  24144595.344    24144615.649
       207.000         145.000
  21983525.404    -7972042.15949  -6181837.36147  21983526.331    21983539.136
       235.000         192.000
  23058120.879   -11109595.52449  -8638897.83945  23058121.395    23058137.372
       215.000         160.000
  22171061.616   -11878404.47749  -9229253.67946  22171060.964    22171073.966
       229.000         185.000
  23420498.019    -4085019.71149  -3144175.52145  23420497.417    23420516.144
       213.000         154.000
  20333154.326   -20603108.86349 -16044655.73448  20333154.250    20333164.509
       244.000         217.000
 00  3 14  0 57  0.0000000  0  7G17G 5G30G26G10G23G 6
  21721660.520   -21039161.68749 -16159443.80347  21721660.138    21721672.763
       238.000         202.000
  24164825.955    15011918.96949  11713004.07845  24164826.928    24164846.710
       206.000         143.000
  21999393.571    -7888655.03149  -6116860.51047  21999394.286    21999407.947
       233.000         191.000
  23043523.668   -11186303.59049  -8698670.07145  23043524.080    23043539.928
       217.000         160.000
  22186773.152   -11795839.58449  -9164917.46446  22186772.367    22186786.269
       230.000         185.000
  23402043.864    -4181995.37849  -3219740.68445  23402043.063    23402060.362
       214.000         153.000
  20329011.888   -20624877.02849 -16061617.91248  20329011.958    20329022.493
       244.000         216.000
 00  3 14  0 57 30.0000000  0  7G17G 5G30G26G10G23G 6
  21713293.800   -21083128.47849 -16193703.54947  21713293.110    21713306.004
       239.000         202.000
  24185057.125    15118232.73549  11795845.64545  24185057.433    24185079.608
       208.000         143.000
  22015328.857    -7804914.27449  -6051608.10447  22015329.784    22015343.543
       233.000         189.000
  23028978.913   -11262736.56449  -8758227.97345  23028978.480    23028994.744
       215.000         160.000
  22202550.300   -11712930.83649  -9100313.31146  22202549.695    22202563.069
       229.000         185.000
  23383630.106    -4278759.42749  -3295140.99945  23383627.442    23383646.275
       213.000         151.000
  20324945.763   -20646244.75349 -16078268.05048  20324945.603    20324956.233
       244.000         216.000
 00  3 14  0 58  0.0000000  0  7G17G 5G30G26G10G23G 6
  21704963.583   -21126903.99449 -16227814.27047  21704963.916    21704975.090
       241.000         202.000
  24205290.401    15224556.95149  11878695.29645  24205292.135    24205314.568
       211.000         145.000
  22031332.103    -7720817.25049  -5986078.08847  22031332.736    22031345.858
       231.000         188.000
  23014492.662   -11338861.85749  -8817546.13145  23014492.179    23014508.623
       215.000         159.000
  22218392.715   -11629678.58049  -9035441.48246  22218392.407    22218405.574
       229.000         185.000
  23365262.921    -4375278.62949  -3370350.48145  23365262.395    23365280.294
       212.000         150.000
  20320960.040   -20667189.45449 -16094588.55948  20320960.042    20320970.525
       244.000         216.000
 00  3 14  0 58 30.0000000  0  7G17G 5G30G26G10G23G 6
  21696672.935   -21170471.91849 -16261763.23647  21696671.837    21696684.770
       237.000         202.000
  24225526.063    15330894.01149  11961554.94945  24225527.017    24225547.058
       211.000         143.000
  22047402.988    -7636364.57849  -5920270.93747  22047403.860    22047416.689
       234.000         189.000
  23000068.062   -11414662.97249  -8876611.68245  23000067.934    23000083.909
       215.000         159.000
  22234300.523   -11546082.43749  -8970301.70646  22234300.864    22234312.968
       228.000         184.000
  23346949.831    -4471513.75649  -3445338.61745  23346948.944    23346966.071
       214.000         149.000
  20317058.910   -20687690.07049 -16110563.03048  20317058.903    20317069.426
       244.000         217.000
 00  3 14  0 59  0.0000000  0  7G17G 5G30G26G10G23G 6
  21688423.629   -21213820.99249 -16295541.64347  21688422.508    21688436.226
       238.000         202.000
  24245761.653    15437230.19049  12044413.91245  24245761.299    24245783.991
       207.000         141.000
  22063539.654    -7551566.72049  -5854194.81547  22063540.519    22063553.869
       233.000         190.000
  22985706.300   -11490132.91749  -8935419.17445  22985706.377    22985722.179
       217.000         160.000
  22250275.495   -11462134.26349  -8904887.61046  22250274.975    22250289.031
       231.000         184.000
  23328693.691    -4567449.94249  -3520093.78245  23328692.542    23328711.620
       212.000         148.000
  20313242.542   -20707745.10049 -16126190.27848  20313242.455    20313252.551
       245.000         216.000
 00  3 14  0 59 30.0000000  0  7G17G 5G30G26G10G23G 6
  21680217.453   -21256944.54249 -16329144.32047  21680217.038    21680229.869
       239.000         203.000
  24265993.264    15543546.29949  12127257.29545  24265992.853    24266015.572
       207.000         141.000
  22079741.048    -7466428.06449  -5787853.13947  22079741.663    22079754.847
       231.000         189.000
  22971404.843   -11565286.36249  -8993980.05445  22971404.627    22971420.848
       217.000         160.000
  22266315.912   -11377842.02449  -8839205.40346  22266315.221    22266328.513
       230.000         184.000
  23310491.467    -4663102.74349  -3594628.16945  23310490.763    23310509.558
       210.000         149.000
  20309508.617   -20727366.85549 -16141479.91748  20309508.510    20309519.013
       244.000         216.000
 00  3 14  1  0  0.0000000  0  7G17G 5G30G26G10G23G 6
  21672053.459   -21299846.63849 -16362574.45647  21672052.850    21672065.321
       239.000         203.000
  24286220.473    15649839.83749  12210083.08545  24286220.360    24286242.496
       206.000         140.000
  22096008.354    -7380943.12449  -5721241.64747  22096009.031    22096022.821
       232.000         188.000
  22957162.038   -11640131.55849  -9052300.73945  22957161.638    22957178.000
       216.000         160.000
  22282419.036   -11293219.01649  -8773265.47846  22282418.393    22282431.725
       230.000         183.000
  23292338.869    -4758494.22249  -3668958.87045  23292338.600    23292355.197
       206.000         148.000
  20305854.023   -20746571.55749 -16156444.58248  20305853.980    20305864.094
       244.000         216.000
 00  3 14  1  0 30.0000000  0  7G17G 5G30G26G10G23G 6
  21663931.303   -21342528.03949 -16395832.59747  21663930.663    21663943.456
       238.000         202.000
  24306441.043    15756097.21649  12292880.69445  24306441.301    24306461.923
       205.000         140.000
  22112339.682    -7295121.82549  -5654368.05047  22112340.195    22112354.647
       233.000         190.000
  22942978.328   -11714665.67949  -9110379.03445  22942977.857    22942994.202
       215.000         160.000
  22298584.774   -11208267.14949  -8707069.26746  22298583.862    22298598.100
       228.000         183.000
  23274231.709    -4853647.72449  -3743104.15045  23274230.416    23274249.110
       211.000         147.000
  20302275.668   -20765375.45749 -16171096.93548  20302275.537    20302286.060
       244.000         216.000
 00  3 14  1  1  0.0000000  0  7G17G 5G30G26G10G23G 6
  21655850.221   -21384994.24049 -16428923.06147  21655849.337    21655862.381
       237.000         202.000
  24326654.671    15862318.14749  12375649.85645  24326655.137    24326674.411
       212.000         141.000
  22128732.094    -7208979.64949  -5587244.42047  22128732.877    22128746.719
       233.000         191.000
  22928850.800   -11788905.44249  -9168227.94845  22928849.418    22928866.419
       217.000         160.000
  22314808.475   -11123010.38249  -8640635.48546  22314808.360    22314822.005
       229.000         183.000
  23256164.268    -4948592.20349  -3817086.57545  23256164.173    23256180.210
       203.000         144.000
  20298769.912   -20783798.19749 -16185452.28748  20298769.974    20298780.291
       244.000         216.000
 00  3 14  1  1 30.0000000  0  7G17G 5G30G26G10G23G 6
  21647808.507   -21427252.59249 -16461851.56347  21647807.465    21647820.418
       237.000         202.000
  24346863.431    15968514.30449  12458399.75245  24346865.106    24346886.526
       213.000         143.000
  22145183.705    -7122526.90249  -5519878.78147  22145184.258    22145197.721
       233.000         190.000
  22914775.703   -11862868.27549  -9225861.05645  22914774.732    22914792.095
       218.000         160.000
  22331088.402   -11037459.21949  -8573972.29346  22331088.139    22331101.657
       228.000         182.000
  23238134.713    -5043335.88349  -3890912.47545  23238135.404    23238151.154
       207.000         143.000
  20295336.588   -20801840.17749 -16199510.92748  20295336.511    20295346.877
       244.000         216.000
 00  3 14  1  2  0.0000000  0  7G17G 5G30G26G10G23G 6
  21639804.239   -21469314.39449 -16494626.92547  21639803.816    21639816.559
       238.000         202.000
  24367069.911    16074698.81449  12541140.59145  24367070.308    24367091.302
       212.000         144.000
  22161690.893    -7035781.17149  -5452284.83347  22161691.730    22161705.071
       232.000         189.000
  22900753.140   -11936556.24449  -9283280.02145  22900753.019    22900768.849
       215.000         161.000
  22347423.685   -10951616.96549  -8507082.28446  22347423.740    22347437.081
       229.000         182.000
  23220142.502    -5137884.52849  -3964586.40445  23220140.541    23220159.707
       200.000         141.000
  20291974.331   -20819508.75449 -16213278.61748  20291974.518    20291984.894
       245.000         216.000
 00  3 14  1  2 30.0000000  0  7G17G 5G30G26G10G23G 6
  21631836.842   -21511183.40549 -16527252.04547  21631836.441    21631849.624
       238.000         202.000
  24387272.981    16180865.32249  12623867.38645  24387272.453    24387294.980
       207.000         142.000
  22178249.290    -6948767.23149  -5384481.91547  22178250.407    22178263.786
       233.000         189.000
  22886779.912   -12009985.33749  -9340497.27746  22886780.172    22886796.044
       216.000         163.000
  22363812.685   -10865493.07749  -8439972.84146  22363812.705    22363826.125
       228.000         182.000
  23202188.796    -5232230.55849  -4038102.48345  23202188.699    23202204.363
       199.000         138.000
  20288682.933   -20836805.03749 -16226756.20748  20288683.067    20288693.393
       244.000         216.000
 00  3 14  1  3  0.0000000  0  7G17G 5G30G26G10G23G 6
  21623903.737   -21552872.12649 -16559736.67847  21623903.273    21623916.158
       237.000         202.000
  24407472.307    16287013.66649  12706580.02845  24407472.079    24407492.903
       206.000         138.000
  22194856.601    -6861495.83349  -5316478.35547  22194857.230    22194871.563
       232.000         189.000
  22872854.495   -12083162.80649  -9397518.42946  22872854.902    22872870.263
       218.000         164.000
  22380255.486   -10779086.52549  -8372643.12146  22380254.942    22380268.506
       228.000         181.000
  23184274.940    -5326364.86749  -4111453.50345  23184273.641    23184290.810
       199.000         138.000
  20285463.240   -20853724.74749 -16239940.36148  20285463.476    20285473.696
       245.000         216.000
 00  3 14  1  3 30.0000000  0  7G17G 5G30G26G10G23G 6
  21616001.866   -21594396.51949 -16592093.26847  21616001.673    21616014.401
       238.000         203.000
  24427664.095    16393120.42649  12789260.26245  24427664.630    24427688.433
       207.000         140.000
  22211513.317    -6773964.63349  -5248272.36047  22211513.909    22211527.862
       234.000         190.000
  22858978.724   -12156080.19949  -9454336.91446  22858979.008    22858994.054
       219.000         165.000
  22396754.677   -10692383.05249  -8305082.02846  22396754.260    22396768.141
       229.000         181.000
  23166403.813    -5420277.13649  -4184631.54745  23166402.563    23166419.695
       208.000         141.000
  20282314.306   -20870272.44949 -16252834.64248  20282314.156    20282324.684
       244.000         216.000
 00  3 14  1  4  0.0000000  0  7G17G 5G30G26G10G23G 6
  21608129.290   -21635766.21249 -16624329.31947  21608128.164    21608141.706
       236.000         202.000
  24447842.810    16499157.96749  12871886.63145  24447842.191    24447867.080
       205.000         139.000
  22228219.514    -6686173.88949  -5179864.13647  22228219.634    22228234.618
       231.000         189.000
  22845154.359   -12228727.10149  -9510944.64446  22845154.439    22845169.850
       219.000         166.000
  22413308.782   -10605391.13849  -8237296.19346  22413308.499    22413321.156
       229.000         180.000
  23148574.557    -5513968.96549  -4257637.84545  23148573.276    23148591.361
       208.000         142.000
  20279235.370   -20886452.43049 -16265442.38648  20279235.497    20279245.678
       244.000         217.000
 00  3 14  1  4 30.0000000  0  7G17G 5G30G26G10G23G 6
  21600286.989   -21676977.03349 -16656441.57147  21600286.373    21600299.480
       238.000         202.000
  24468006.782    16605119.76749  12954453.94245  24468005.003    24468029.783
       203.000         137.000
  22244975.204    -6598121.98449  -5111252.42447  22244976.263    22244990.275
       231.000         188.000
  22831386.283   -12301078.71449  -9567322.26746  22831386.230    22831401.194
       218.000         166.000
  22429917.025   -10518114.48149  -8169288.48046  22429915.952    22429929.862
       227.000         180.000
  23130791.303    -5607419.81049  -4330456.38245  23130790.577    23130806.467
       207.000         142.000
  20276230.167   -20902244.76749 -16277748.07548  20276230.228    20276240.561
       244.000         216.000
 00  3 14  1  5  0.0000000  0  7G17G 5G30G26G10G23G 6
  21592475.198   -21718027.85349 -16688429.14147  21592474.771    21592487.055
       237.000         202.000
  24488157.356    16711012.96049  13036967.82045  24488157.291    24488180.426
       209.000         137.000
  22261784.061    -6509791.53549  -5042423.65846  22261784.877    22261798.906
       230.000         187.000
  22817678.572   -12373112.27449  -9623452.04946  22817677.770    22817693.531
       219.000         166.000
  22446580.335   -10430548.04549  -8101054.95346  22446579.017    22446593.414
       226.000         180.000
  23113054.813    -5700624.40149  -4403082.97845  23113053.326    23113071.223
       209.000         145.000
  20273299.726   -20917644.32249 -16289747.69348  20273299.667    20273309.928
       244.000         217.000
 00  3 14  1  5 30.0000000  0  7G17G 5G30G26G10G23G 6
  21584695.219   -21758912.22749 -16720287.01447  21584694.587    21584707.187
       239.000         202.000
  24508296.837    16816844.84149  13119433.90345  24508298.158    24508318.189
       214.000         140.000
  22278648.822    -6421167.07649  -4973365.77546  22278649.912    22278663.640
       233.000         187.000
  22804034.523   -12444811.64149  -9679321.42346  22804033.976    22804049.390
       219.000         167.000
  22463297.463   -10342698.49349  -8032600.82446  22463296.314    22463310.979
       227.000         179.000
  23095366.216    -5793577.72549  -4475513.82445  23095366.171    23095382.365
       213.000         147.000
  20270445.947   -20932640.69549 -16301433.15648  20270446.092    20270455.962
       245.000         216.000
 00  3 14  1  6  0.0000000  0  7G17G 5G30G26G10G23G 6
  21576950.011   -21799613.49149 -16752002.20547  21576949.928    21576962.507
       239.000         203.000
  24528429.954    16922643.01749  13201873.73745  24528430.031    24528451.612
       207.000         139.000
  22295570.768    -6332242.43349  -4904073.99946  22295571.847    22295585.266
       231.000         186.000
  22790457.432   -12516159.02349  -9734916.52846  22790457.634    22790471.913
       219.000         167.000
  22480066.701   -10254576.08149  -7963934.07246  22480065.504    22480079.263
       227.000         179.000
  23077726.750    -5886272.45849  -4547743.20845  23077724.734    23077741.986
       210.000         146.000
  20267672.608   -20947214.58249 -16312789.40648  20267672.772    20267683.114
       245.000         217.000
 00  3 14  1  6 30.0000000  0  7G17G 5G30G26G10G23G 6
  21569242.144   -21840118.89849 -16783564.79747  21569241.485    21569253.776
       239.000         202.000
  24548559.226    17028423.04949  13284299.44745  24548558.876    24548583.019
       207.000         135.000
  22312552.296    -6243003.87449  -4834537.59346  22312553.501    22312566.998
       230.000         185.000
  22776948.262   -12587148.53749  -9790232.77446  22776948.147    22776962.952
       219.000         167.000
  22496888.154   -10166178.19249  -7895052.66546  22496887.939    22496901.723
       228.000         180.000
  23060139.880    -5978690.88849  -4619757.23945  23060139.867    23060155.858
       211.000         149.000
  20264981.047   -20961358.66349 -16323810.74348  20264980.966    20264991.189
       244.000         216.000
 00  3 14  1  7  0.0000000  0  7G17G 5G30G26G10G23G 6
  21561572.142   -21880424.39049 -16814971.59347  21561571.804    21561583.992
       240.000         203.000
  24568682.404    17134169.79549  13366699.19745  24568684.184    24568704.568
       207.000         134.000
  22329593.622    -6153451.75349  -4764756.87046  22329594.393    22329609.050
       231.000         185.000
  22763504.307   -12657796.33849  -9845282.75846  22763504.344    22763518.609
       220.000         167.000
  22513762.677   -10077501.76949  -7825954.23346  22513763.016    22513777.022
       228.000         180.000
  23042606.234    -6070829.20749  -4691553.03445  23042604.947    23042622.006
       212.000         151.000
  20262370.632   -20975076.45449 -16334499.90648  20262370.733    20262380.969
       244.000         216.000
 00  3 14  1  7 30.0000000  0  7G17G 5G30G26G10G23G 6
  21553940.570   -21920528.68049 -16846221.60847  21553939.538    21553952.409
       238.000         202.000
  24588797.672    17239875.61249  13449067.11945  24588796.690    24588824.312
       205.000         137.000
  22346691.518    -6063601.96149  -4694744.21346  22346692.187    22346706.808
       229.000         185.000
  22750125.886   -12728098.49449  -9900063.40846  22750125.476    22750140.781
       219.000         167.000
  22530689.915    -9988548.75049  -7756640.24046  22530689.838    22530703.330
       230.000         180.000
  23025126.294    -6162685.95049  -4763129.43645  23025126.087    23025142.590
       216.000         155.000
  20259842.633   -20988360.58849 -16344851.15048  20259842.643    20259853.063
       243.000         216.000
 00  3 14  1  8  0.0000000  0  7G17G 5G30G26G10G23G 6
  21546347.609   -21960429.33449 -16877312.95447  21546347.144    21546360.111
       239.000         203.000
  24608904.765    17345537.30049  13531400.61945  24608905.509    24608926.784
       203.000         136.000
  22363843.620    -5973468.19249  -4624510.26346  22363844.063    22363859.245
       229.000         185.000
  22736811.117   -12798066.91149  -9954584.01246  22736810.074    22736825.567
       216.000         165.000
  22547669.993    -9899318.72449  -7687110.42146  22547670.353    22547683.345
       228.000         181.000
  23007699.877    -6254261.20649  -4834486.50245  23007698.462    23007715.374
       215.000         156.000
  20257397.023   -21001212.34049 -16354865.47148  20257397.086    20257407.603
       244.000         216.000
 00  3 14  1  8 30.0000000  0  7G17G 5G30G26G10G23G 6
  21538793.236   -22000127.71749 -16908246.69047  21538792.764    21538804.949
       240.000         203.000
  24629000.520    17451139.52149  13613687.80045  24629001.527    24629024.524
       204.000         138.000
  22381047.048    -5883063.78249  -4554065.42746  22381048.253    22381062.067
       231.000         185.000
  22723558.465   -12867708.33649 -10008849.82946  22723557.718    22723573.145
       215.000         164.000
  22564703.550    -9809808.23749  -7617362.05446  22564703.511    22564716.428
       229.000         180.000
  22990326.829    -6345555.84949  -4905624.94145  22990325.939    22990341.854
       216.000         157.000
  20255034.848   -21013625.52049 -16364538.04548  20255034.811    20255045.332
       243.000         216.000
 00  3 14  1  9  0.0000000  0  7G17G 5G30G26G10G23G 6
  21531278.013   -22039619.47949 -16939019.40247  21531277.327    21531289.707
       239.000         203.000
  24649087.530    17556696.80149  13695939.98845  24649087.832    24649111.289
       202.000         137.000
  22398298.767    -5792406.04149  -4483423.18846  22398299.300    22398313.867
       228.000         185.000
  22710371.451   -12937005.08249 -10062847.06246  22710370.957    22710386.554
       214.000         163.000
  22581789.652    -9720020.93049  -7547397.99546  22581789.462    22581802.960
       228.000         180.000
  22973005.898    -6436576.70349  -4976550.01345  22973004.890    22973021.571
       217.000         159.000
  20252757.918   -21025590.76149 -16373861.57548  20252758.037    20252768.028
       244.000         216.000
 00  3 14  1  9 30.0000000  0  7G17G 5G30G26G10G23G 6
  21523803.972   -22078895.91949 -16969624.35547  21523803.561    21523815.654
       240.000         203.000
  24669171.231    17662235.60749  13778177.77345  24669172.367    24669195.707
       204.000         136.000
  22415599.355    -5701491.04249  -4412580.49446  22415600.383    22415614.718
       229.000         184.000
  22697252.562   -13005943.67549 -10116565.20746  22697252.789    22697267.310
       216.000         164.000
  22598927.304    -9629962.16049  -7477222.38846  22598926.888    22598940.435
       226.000         179.000
  22955735.376    -6527333.28449  -5047269.16145  22955733.576    22955751.751
       216.000         160.000
  20250566.892   -21037104.18549 -16382833.05148  20250566.974    20250577.417
       243.000         216.000
 00  3 14  1 10  0.0000000  0  6G17G30G26G10G23G 6
  21516367.820   -22117972.60149 -17000073.63047  21516366.909    21516379.720
       239.000         204.000
  22432945.396    -5610336.95549  -4341551.49746  22432945.745    22432961.397
       227.000         183.000
  22684198.190   -13074543.60949 -10170019.46146  22684197.577    22684213.677
       218.000         165.000
  22616112.391    -9539653.73549  -7406852.25546  22616111.981    22616124.888
       225.000         178.000
  22938509.676    -6617853.32949  -5117803.98946  22938508.611    22938525.591
       219.000         163.000
  20248456.638   -21048193.61549 -16391474.13248  20248456.585    20248466.698
       244.000         216.000
 00  3 14  1 10 30.0000000  0  6G17G30G26G10G23G 6
  21508975.157   -22156820.85349 -17030344.90647  21508974.627    21508986.964
       239.000         204.000
  22450340.180    -5518927.15249  -4270323.25046  22450341.352    22450355.994
       230.000         184.000
  22671215.843   -13142765.24349 -10223178.94446  22671215.094    22671230.883
       217.000         165.000
  22633349.426    -9449072.33449  -7336269.40446  22633348.249    22633363.152
       225.000         177.000
  22921334.363    -6708109.71249  -5188133.37446  22921333.531    22921349.740
       220.000         166.000
  20246429.667   -21058845.46449 -16399774.24948  20246429.718    20246439.673
       243.000         216.000
 00  3 14  1 11  0.0000000  0  6G17G30G26G10G23G 6
  21501624.359   -22195449.41149 -17060445.01147  21501624.465    21501636.108
       241.000         205.000
  22467783.576    -5427262.13449  -4198896.13946  22467784.476    22467798.715
       228.000         183.000
  22658305.819   -13210606.99649 -10276042.44546  22658305.192    22658320.609
       216.000         165.000
  22650637.754    -9358221.13649  -7265476.32946  22650638.479    22650651.524
       226.000         177.000
  22904209.916    -6798098.43049  -5258254.19346  22904209.056    22904226.822
       221.000         169.000
  20244483.132   -21069074.70249 -16407745.05148  20244483.076    20244493.103
       244.000         216.000
 00  3 14  1 11 30.0000000  0  6G17G30G26G10G23G 6
  21494308.789   -22233893.29749 -17090401.19947  21494308.300    21494320.371
       239.000         205.000
  22485272.016    -5335360.94849  -4127284.96446  22485272.810    22485286.851
       229.000         182.000
  22645463.442   -13278093.25649 -10328628.92146  22645463.072    22645478.934
       216.000         165.000
  22667975.488    -9267112.01849  -7194482.25346  22667974.398    22667988.647
       223.000         176.000
  22887133.120    -6887836.64749  -5328179.79046  22887132.278    22887148.298
       222.000         170.000
  20242610.695   -21078914.07149 -16415412.06648  20242610.752    20242620.932
       244.000         216.000
 00  3 14  1 12  0.0000000  0  6G17G30G26G10G23G 6
  21487022.302   -22272183.84349 -17120237.90747  21487021.934    21487034.473
       241.000         206.000
  22502801.784    -5243242.19449  -4055504.27546  22502802.814    22502817.768
       230.000         183.000
  22632684.985   -13345243.46149 -10380953.53546  22632684.928    22632699.931
       219.000         166.000
  22685358.033    -9175765.03049  -7123302.84546  22685357.234    22685371.060
       225.000         175.000
  22870104.026    -6977323.92449  -5397909.88046  22870103.257    22870119.667
       221.000         170.000
  20240810.658   -21088373.17949 -16422782.76748  20240810.558    20240820.846
       244.000         216.000
 00  3 14  1 12 30.0000000  0  6G17G30G26G10G23G 6
  21479762.154   -22310336.05549 -17149966.82147  21479761.830    21479774.074
       240.000         205.000
  22520373.398    -5150903.80549  -3983552.44146  22520373.440    22520389.444
       228.000         181.000
  22619969.112   -13412064.96249 -10433022.01846  22619969.141    22619984.373
       219.000         168.000
  22702783.917    -9084192.14949  -7051947.40946  22702784.200    22702798.239
       227.000         176.000
  22853126.313    -7066541.09849  -5467429.46146  22853125.021    22853140.952
       219.000         170.000
  20239083.137   -21097451.13349 -16429856.47248  20239083.154    20239093.497
       244.000         216.000
 00  3 14  1 13  0.0000000  0  6G17G30G26G10G23G 6
  21472526.957   -22348356.44549 -17179593.01847  21472525.650    21472538.530
       238.000         204.000
  22537988.378    -5058336.92249  -3911422.57346  22537989.305    22538004.123
       229.000         181.000
  22607317.298   -13478550.57849 -10484828.76846  22607317.060    22607332.177
       219.000         169.000
  22720253.427    -8992389.94349  -6980413.28346  22720252.297    22720266.585
       224.000         175.000
  22836199.444    -7155491.30149  -5536741.02046  22836198.289    22836214.190
       221.000         171.000
  20237432.702   -21106124.13849 -16436614.63148  20237432.857    20237443.071
       244.000         216.000
 00  3 14  1 13 30.0000000  0  6G17G30G26G10G23G 6
  21465321.458   -22386220.15849 -17209097.13547  21465320.528    21465333.138
       239.000         204.000
  22555648.818    -4965531.49049  -3839106.79846  22555649.719    22555664.401
       229.000         182.000
  22594731.499   -13544689.27849 -10536365.20746  22594731.743    22594746.385
       221.000         171.000
  22737767.619    -8900352.79849  -6908696.08846  22737768.361    22737781.540
       226.000         175.000
  22819324.648    -7244167.79049  -5605839.29646  22819324.350    22819339.918
       221.000         173.000
  20235862.368   -21114376.21849 -16443044.80148  20235862.664    20235872.843
       245.000         216.000
 00  3 14  1 14  0.0000000  0  6G17G30G26G10G23G 6
  21458150.861   -22423901.20649 -17238458.91647  21458150.631    21458163.145
       241.000         205.000
  22573356.849    -4872475.71849  -3766595.98046  22573358.069    22573371.945
       227.000         181.000
  22582212.715   -13610475.57349 -10587627.03846  22582212.470    22582227.659
       223.000         173.000
  22755325.207    -8808087.36549  -6836801.02846  22755325.676    22755338.140
       225.000         174.000
  22802504.510    -7332556.75549  -5674713.51346  22802503.715    22802519.961
       219.000         172.000
  20234375.817   -21122188.47749 -16449132.24348  20234375.693    20234385.945
       244.000         216.000
 00  3 14  1 14 30.0000000  0  6G17G30G26G10G23G 6
  21451018.772   -22461381.33849 -17267664.14447  21451018.329    21451030.128
       239.000         206.000
  22591110.539    -4779180.30749  -3693898.44746  22591111.359    22591125.519
       227.000         181.000
  22569764.315   -13675891.97649 -10638600.64546  22569764.577    22569779.009
       222.000         174.000
  22772926.676    -8715591.29549  -6764726.21846  22772926.491    22772940.276
       225.000         174.000
  22785738.736    -7420660.59749  -5743365.57446  22785737.882    22785754.123
       221.000         174.000
  20232971.829   -21129566.24449 -16454881.13148  20232971.765    20232982.112
       244.000         216.000
 00  3 14  1 15  0.0000000  0  6G17G30G26G10G23G 6
  21443926.077   -22498653.57949 -17296707.35847  21443925.839    21443937.678
       240.000         206.000
  22608907.350    -4685657.94149  -3621024.01846  22608908.658    22608922.769
       229.000         182.000
  22557388.405   -13740927.25349 -10689277.26946  22557388.185    22557402.832
       221.000         175.000
  22790570.177    -8622874.09649  -6692479.12046  22790570.446    22790583.024
       224.000         174.000
  22769024.661    -7508492.77149  -5811805.93346  22769023.493    22769039.310
       222.000         176.000
  20231651.103   -21136506.48249 -16460289.08248  20231651.299    20231661.172
       244.000         216.000
 00  3 14  1 15 30.0000000  0  6G17G30G26G10G23G 6
  21436874.358   -22535710.84949 -17325583.09547  21436874.241    21436885.515
       241.000         206.000
  22626747.221    -4591910.17949  -3547974.00146  22626747.748    22626763.104
       228.000         182.000
  22545084.258   -13805585.44649 -10739660.06846  22545084.133    22545098.466
       223.000         175.000
  22808254.821    -8529942.46049  -6620064.91246  22808254.394    22808268.335
       226.000         174.000
  22752364.945    -7596039.31949  -5880023.75246  22752364.446    22752379.690
       225.000         175.000
  20230413.977   -21143007.48449 -16465354.77648  20230414.266    20230424.237
       244.000         216.000
 00  3 14  1 16  0.0000000  0  6G17G30G26G10G23G 6
  21429861.104   -22572565.56749 -17354300.97747  21429860.296    21429872.255
       240.000         206.000
  22644627.868    -4497947.02349  -3474756.12746  22644629.739    22644643.629
       229.000         182.000
  22532854.031   -13869854.95049 -10789739.99746  22532854.310    22532868.954
       223.000         174.000
  22825981.714    -8436788.78549  -6547477.69846  22825979.953    22825994.187
       223.000         174.000
  22735762.194    -7683286.49949  -5948008.31146  22735760.920    22735776.994
       223.000         177.000
  20229262.603   -21149058.06549 -16470069.48448  20229262.403    20229272.694
       243.000         216.000
 00  3 14  1 16 30.0000000  0  6G17G30G26G10G23G 6
  21422885.164   -22609223.87649 -17382865.83947  21422884.995    21422896.339
       241.000         206.000
  22662549.916    -4403767.35049  -3401369.51846  22662550.673    22662566.478
       230.000         182.000
  22520701.408   -13933716.59149 -10839502.11346  22520700.873    22520715.416
       223.000         173.000
  22843752.279    -8343403.62149  -6474710.13146  22843752.759    22843766.180
       227.000         174.000
  22719216.003    -7770235.85449  -6015760.77946  22719215.464    22719229.916
       223.000         177.000
  20228198.985   -21154647.08449 -16474424.53948  20228199.069    20228209.023
       245.000         216.000
 00  3 14  1 17  0.0000000  0  6G17G30G26G10G23G 6
  21415945.715   -22645691.32149 -17411281.96447  21415945.340    21415956.886
       241.000         206.000
  22680516.005    -4309355.97749  -3327802.36946  22680517.205    22680531.485
       229.000         180.000
  22508627.739   -13997162.84549 -10888940.54746  22508627.212    22508641.460
       222.000         172.000
  22861569.658    -8249773.61049  -6401751.74146  22861568.585    22861582.788
       223.000         173.000
  22702727.586    -7856881.72949  -6083276.78046  22702727.059    22702742.324
       226.000         177.000
  20227225.878   -21159760.61249 -16478409.08148  20227226.093    20227236.077
       245.000         216.000
 00  3 14  1 17 30.0000000  0  6G17G30G26G10G23G 6
  21409042.505   -22681967.61549 -17439549.14347  21409041.719    21409053.394
       240.000         206.000
  22698526.137    -4214713.09149  -3254054.81446  22698527.147    22698541.668
       228.000         179.000
  22496632.335   -14060198.07349 -10938058.70446  22496632.036    22496646.637
       223.000         172.000
  22879434.774    -8155891.27449  -6328596.75346  22879434.057    22879447.619
       224.000         173.000
  22686298.640    -7943215.60949  -6150549.69746  22686297.953    22686313.201
       227.000         179.000
  20226341.628   -21164407.41149 -16482029.93548  20226341.765    20226351.839
       244.000         216.000
 00  3 14  1 18  0.0000000  0  6G17G30G26G10G23G 6
  21402173.434   -22718064.12649 -17467676.23147  21402172.664    21402184.755
       240.000         206.000
  22716578.774    -4119845.91049  -3180132.50746  22716579.689    22716594.266
       228.000         179.000
  22484716.452   -14122815.80049 -10986851.54646  22484716.065    22484730.401
       221.000         171.000
  22897345.959    -8061767.37149  -6255253.53146  22897345.248    22897358.321
       225.000         173.000
  22669926.750    -8029249.05049  -6217588.48146  22669925.387    22669941.027
       226.000         181.000
  20225543.445   -21168601.96949 -16485298.39648  20225543.058    20225553.590
       243.000         216.000
 00  3 14  1 18 30.0000000  0  6G17G30G26G10G23G 6
  21395337.576   -22753986.01749 -17495667.25547  21395337.276    21395348.660
       241.000         206.000
  22734675.013    -4024750.19249  -3106032.11246  22734675.372    22734689.989
       227.000         177.000
  22472877.358   -14185029.57349 -11035329.61246  22472877.501    22472890.834
       221.000         170.000
  22915299.214    -7967422.55849  -6181738.16046  22915298.259    22915313.011
       224.000         173.000
  22653610.080    -8114992.76349  -6284401.50846  22653608.973    22653624.826
       225.000         181.000
  20224827.450   -21172364.11549 -16488229.91748  20224827.603    20224837.428
       245.000         216.000
 00  3 14  1 19  0.0000000  0  6G17G30G26G10G23G 6
  21388534.631   -22789735.89749 -17523524.23247  21388534.206    21388545.948
       241.000         206.000
  22752810.733    -3929446.57449  -3031769.72946  22752812.126    22752825.919
       227.000         175.000
  22461111.373   -14246859.23349 -11083508.36046  22461110.767    22461125.151
       219.000         168.000
  22933291.558    -7872872.25149  -6108062.66946  22933290.274    22933303.719
       222.000         172.000
  22637347.797    -8200450.52849  -6350991.69646  22637346.911    22637362.836
       226.000         182.000
  20224191.772   -21175704.39949 -16490832.70948  20224191.743    20224202.143
       243.000         216.000
 00  3 14  1 19 30.0000000  0  6G17G30G26G10G23G 6
  21381766.112   -22825304.30249 -17551239.80447  21381765.282    21381777.794
       240.000         206.000
  22770983.183    -3833949.92049  -2957356.92446  22770984.795    22770998.934
       226.000         175.000
  22449418.055   -14308306.88449 -11131389.44046  22449417.781    22449431.129
       221.000         168.000
  22951318.612    -7778137.59249  -6034243.54846  22951317.963    22951333.056
       223.000         172.000
  22621140.245    -8285620.93949  -6417358.01246  22621139.891    22621154.229
       229.000         183.000
  20223637.425   -21178617.37149 -16493102.53748  20223637.217    20223647.719
       243.000         216.000
 00  3 14  1 20  0.0000000  0  6G17G30G26G10G23G 6
  21375033.328   -22860684.95049 -17578809.07147  21375032.873    21375044.501
       241.000         207.000
  22789193.954    -3738252.26449  -2882787.49946  22789195.148    22789210.805
       227.000         175.000
  22437798.132   -14369369.35049 -11178970.38846  22437798.156    22437811.098
       223.000         168.000
  22969381.036    -7683218.36349  -5960280.56846  22969380.369    22969394.896
       222.000         170.000
  22604988.925    -8370496.03949  -6483494.23246  22604988.182    22605003.199
       228.000         183.000
  20223167.609   -21181086.40849 -16495026.43748  20223167.622    20223177.766
       243.000         216.000
 00  3 14  1 20 30.0000000  0  6G17G30G26G10G23G 6
  21368338.283   -22895867.55249 -17606224.01847  21368337.848    21368349.476
       242.000         206.000
  22807443.113    -3642353.79349  -2808061.60446  22807444.864    22807457.571
       226.000         174.000
  22426253.619   -14430035.77749 -11226242.75546  22426253.058    22426266.630
       223.000         168.000
  22987478.395    -7588116.14349  -5886175.03146  22987478.210    22987491.504
       221.000         170.000
  22588897.436    -8455056.20849  -6549385.02446  22588896.372    22588911.701
       228.000         182.000
  20222784.924   -21183097.08949 -16496593.18848  20222785.057    20222795.173
       244.000         216.000
 00  3 14  1 21  0.0000000  0  6G17G30G26G10G23G 6
  21361682.930   -22930842.17849 -17633476.91047  21361682.395    21361693.802
       242.000         207.000
  22825727.828    -3546268.38149  -2733190.02546  22825729.087    22825743.018
       224.000         172.000
  22414788.565   -14490284.33949 -11273189.50046  22414788.964    22414802.132
       224.000         169.000
  23005613.010    -7492818.82549  -5811917.42846  23005611.876    23005626.786
       221.000         170.000
  22572868.050    -8539290.31249  -6615021.74846  22572866.859    22572882.461
       229.000         184.000
  20222492.833   -21184632.04049 -16497789.23348  20222492.730    20222503.077
       243.000         216.000
 00  3 14  1 21 30.0000000  0  6G17G30G26G10G23G 6
  21355066.172   -22965613.52649 -17660571.40147  21355066.185    21355077.466
       242.000         208.000
  22844049.761    -3449985.78349  -2658164.80446  22844050.453    22844065.914
       228.000         172.000
  22403405.354   -14550102.36649 -11319800.76046  22403405.695    22403418.993
       224.000         170.000
  23023787.017    -7397312.88449  -5737497.26846  23023787.214    23023800.326
       222.000         169.000
  22556902.912    -8623186.52849  -6680395.17346  22556901.622    22556916.937
       228.000         183.000
  20222290.226   -21185696.63049 -16498618.76348  20222290.130    20222300.549
       243.000         216.000
 00  3 14  1 22  0.0000000  0  6G17G30G26G10G23G 6
  21348482.761   -23000210.06049 -17687529.66547  21348482.263    21348494.468
       242.000         208.000
  22862406.219    -3353523.14949  -2582999.28146  22862407.075    22862422.312
       226.000         173.000
  22392103.803   -14609492.01549 -11366078.20746  22392104.029    22392117.606
       226.000         172.000
  23042003.228    -7301587.17149  -5662905.88646  23042003.623    23042016.795
       222.000         169.000
  22541000.352    -8706753.61549  -6745512.15446  22540999.281    22541015.279
       226.000         182.000
  20222171.784   -21186318.73649 -16499103.50648  20222172.281    20222181.890
       245.000         216.000
 00  3 14  1 22 30.0000000  0  6G17G30G26G10G23G 6
  21341928.320   -23034653.70049 -17714368.79547  21341928.111    21341939.862
       242.000         209.000
  22880789.603    -3256918.21249  -2507722.85846  22880790.498    22880804.610
       225.000         171.000
  22380885.047   -14668446.46149 -11412016.55446  22380884.956    22380898.247
       225.000         173.000
  23060259.937    -7205648.28549  -5588148.37146  23060260.084    23060274.307
       221.000         167.000
  22525155.090    -8790019.93749  -6810394.75646  22525154.320    22525168.981
       228.000         183.000
  20222134.342   -21186515.52849 -16499256.83448  20222134.388    20222144.651
       243.000         215.000
 00  3 14  1 23  0.0000000  0  6G17G30G26G10G23G 6
  21335402.204   -23068949.02249 -17741092.36347  21335401.809    21335413.266
       241.000         209.000
  22899197.812    -3160182.55549  -2432344.60346  22899198.385    22899213.772
       224.000         173.000
  22369745.459   -14726984.45749 -11457630.40046  22369745.358    22369758.767
       226.000         173.000
  23078557.046    -7109496.74949  -5513225.16746  23078555.728    23078568.392
       220.000         167.000
  22509361.163    -8873016.48549  -6875067.15446  22509360.324    22509375.305
       230.000         185.000
  20222173.323   -21186310.64349 -16499097.16748  20222173.421    20222183.629
       243.000         216.000
 00  3 14  1 23 30.0000000  0  6G17G30G26G10G23G 6
  21328900.810   -23103113.56249 -17767714.02347  21328900.120    21328911.552
       240.000         207.000
  22917630.650    -3063317.69849  -2356865.68046  22917630.405    22917647.333
       221.000         172.000
  22358681.058   -14785127.87149 -11502936.76446  22358681.187    22358694.195
       224.000         174.000
  23096890.058    -7013156.26649  -5438154.73046  23096889.866    23096904.743
       221.000         167.000
  22493615.210    -8955761.35149  -6939543.42446  22493614.385    22493629.257
       226.000         184.000
  20222285.289   -21185721.83749 -16498638.34448  20222285.513    20222295.409
       244.000         215.000
 00  3 14  1 24  0.0000000  0  6G17G30G26G10G23G 6
  21322424.724   -23137144.42149 -17794231.49847  21322423.314    21322435.329
       240.000         206.000
  22936085.796    -2966335.81449  -2281295.57146  22936087.157    22936102.346
       222.000         172.000
  22347693.198   -14842868.64149 -11547929.38946  22347692.894    22347706.369
       225.000         175.000
  23115253.764    -6916655.13549  -5362959.09846  23115253.773    23115266.527
       221.000         166.000
  22477916.322    -9038258.64449  -7003826.79246  22477915.633    22477930.367
       227.000         182.000
  20222473.524   -21184732.79549 -16497867.64448  20222473.813    20222483.836
       244.000         216.000
 00  3 14  1 24 30.0000000  0  6G17G30G26G10G23G 6
  21315980.252   -23171009.12049 -17820619.50447  21315979.005    21315991.441
       240.000         206.000
  22954568.875    -2869206.98049  -2205610.94646  22954569.182    22954584.247
       220.000         171.000
  22336785.733   -14900186.42549 -11592592.41946  22336785.875    22336798.538
       227.000         176.000
  23133643.939    -6820013.79849  -5287654.25246  23133644.871    23133657.596
       221.000         166.000
  22462268.109    -9120489.48149  -7067902.54746  22462267.636    22462281.822
       228.000         182.000
  20222743.850   -21183312.08049 -16496760.57948  20222744.046    20222753.853
       243.000         215.000
 00  3 14  1 25  0.0000000  0  6G17G30G26G10G23G 6
  21309571.306   -23204687.14749 -17846862.04847  21309570.611    21309583.032
       240.000         207.000
  22973085.099    -2771903.94349  -2129790.58446  22973085.984    22973101.105
       223.000         171.000
  22325960.308   -14957073.77249 -11636920.03946  22325960.279    22325973.441
       227.000         177.000
  23152060.564    -6723234.36249  -5212241.75146  23152059.383    23152074.444
       218.000         165.000
  22446676.522    -9202422.54449  -7131746.27146  22446675.640    22446690.130
       230.000         183.000
  20223100.024   -21181440.69549 -16495302.34148  20223099.989    20223110.144
       244.000         216.000
 00  3 14  1 25 30.0000000  0  6G17G30G26G10G23G 6
  21303200.132   -23238168.50149 -17872951.34647  21303200.231    21303211.564
       242.000         208.000
  22991635.482    -2674421.64049  -2053830.52246  22991635.762    22991652.780
       221.000         171.000
  22315221.826   -15013504.54549 -11680891.88846  22315222.373    22315235.320
       228.000         178.000
  23170503.534    -6626315.80249  -5136720.87546  23170501.566    23170517.189
       217.000         165.000
  22431148.408    -9284022.22849  -7195330.20546  22431147.590    22431162.157
       229.000         185.000
  20223548.539   -21179083.58849 -16493465.62748  20223548.779    20223558.695
       244.000         215.000
 00  3 14  1 26  0.0000000  0  6G17G30G26G10G23G 6
  21296871.220   -23271428.21549 -17898867.94447  21296870.743    21296881.887
       241.000         208.000
  23010221.175    -2576753.83449  -1977725.92446  23010222.894    23010237.895
       225.000         172.000
  22304575.028   -15069453.48249 -11724488.28446  22304575.514    22304587.990
       225.000         178.000
  23188976.432    -6529240.35849  -5061077.72946  23188975.017    23188990.791
       217.000         165.000
  22415687.013    -9365271.80449  -7258641.34046  22415686.123    22415700.324
       229.000         184.000
  20224093.283   -21176221.25549 -16491235.22248  20224093.232    20224103.144
       244.000         215.000
 00  3 14  1 26 30.0000000  0  6G17G30G26G10G23G 6
  21290585.700   -23304458.30649 -17924605.61047  21290585.235    21290596.460
       241.000         208.000
  23028842.327    -2478900.09649  -1901476.41946  23028842.494    23028858.316
       223.000         172.000
  22294018.307   -15124928.76649 -11767715.59846  22294019.132    22294031.057
       227.000         178.000
  23207482.695    -6431987.92949  -4985296.69846  23207482.884    23207496.693
       219.000         165.000
  22400293.866    -9446162.87249  -7321673.10546  22400293.130    22400306.563
       228.000         183.000
  20224732.735   -21172860.67249 -16488616.57348  20224732.629    20224742.840
       243.000         215.000
 00  3 14  1 27  0.0000000  0  6G17G30G26G10G23G 6
  21284341.879   -23337269.02849 -17950172.34247  21284340.767    21284352.305
       240.000         207.000
  23047494.012    -2380885.69549  -1825101.74046  23047494.951    23047509.977
       221.000         170.000
  22283547.417   -15179953.62749 -11810591.94946  22283547.771    22283560.196
       227.000         178.000
  23226026.409    -6334539.27949  -4909362.75946  23226026.696    23226041.111
       219.000         165.000
  22384968.055    -9526699.27649  -7384428.52846  22384967.619    22384980.987
       229.000         182.000
  20225466.918   -21169002.53649 -16485610.20748  20225466.581    20225476.908
       243.000         215.000
 00  3 14  1 27 30.0000000  0  6G17G30G26G10G23G 6
  21278137.198   -23369873.45149 -17975578.31747  21278136.113    21278148.380
       240.000         207.000
  23066176.010    -2282710.99749  -1748602.16246  23066176.878    23066193.010
       220.000         168.000
  22273162.346   -15234526.91249 -11853116.41046  22273162.271    22273175.132
       228.000         179.000
  23244607.777    -6236895.21349  -4833276.54246  23244607.593    23244621.253
       220.000         165.000
  22369709.268    -9606883.63649  -7446909.64146  22369707.913    22369722.347
       227.000         182.000
  20226294.189   -21164654.66749 -16482222.24248  20226294.098    20226304.209
       243.000         215.000
 00  3 14  1 28  0.0000000  0  6G17G30G26G10G23G 6
  21271968.336   -23402289.85149 -18000837.77747  21271967.853    21271980.202
       242.000         208.000
  23084887.824    -2184380.42549  -1671981.11246  23084888.694    23084904.329
       224.000         170.000
  22262862.387   -15288652.32949 -11895291.86646  22262862.121    22262875.414
       226.000         179.000
  23263225.558    -6139059.13249  -4757040.70946  23263225.214    23263239.968
       219.000         165.000
  22354515.514    -9686726.43849  -7509124.56846  22354514.402    22354528.921
       229.000         184.000
  20227211.931   -21159831.74749 -16478464.10548  20227211.823    20227222.106
       243.000         215.000
 00  3 14  1 28 30.0000000  0  6G17G30G26G10G23G 6
  21265831.984   -23434536.35249 -18025964.83847  21265831.851    21265843.528
       242.000         209.000
  23103628.311    -2085900.06549  -1595243.36346  23103628.481    23103644.342
       223.000         172.000
  22252647.420   -15342331.42549 -11937119.56446  22252647.383    22252660.198
       224.000         177.000
  23281877.542    -6041041.85049  -4680663.69746  23281878.271    23281891.195
       219.000         164.000
  22339386.240    -9766230.65849  -7571075.70746  22339385.525    22339399.675
       231.000         185.000
  20228219.221   -21154538.34049 -16474339.35548  20228218.975    20228229.498
       242.000         215.000
 00  3 14  1 29  0.0000000  0  6G17G30G26G10G23G 6
  21259726.420   -23466622.06449 -18050966.64147  21259726.488    21259737.401
       243.000         209.000
  23122399.463    -1987257.77549  -1518379.44346  23122400.555    23122415.732
       224.000         172.000
  22242519.588   -15395552.27049 -11978590.16546  22242518.865    22242531.919
       224.000         176.000
  23300562.733    -5942851.18849  -4604151.56046  23300563.136    23300576.420
       218.000         164.000
  22324319.718    -9845404.40749  -7632769.30746  22324319.305    22324332.966
       230.000         186.000
  20229316.009   -21148774.60649 -16469848.11848  20229316.156    20229326.226
       243.000         215.000
 00  3 14  1 29 30.0000000  0  6G17G30G26G10G23G 6
  21253650.015   -23498554.16349 -18075848.72347  21253649.395    21253660.905
       241.000         209.000
  23141200.364    -1888458.51549  -1441393.18746  23141200.780    23141217.363
       220.000         172.000
  22232482.175   -15448298.04049 -12019690.59046  22232481.813    22232494.923
       225.000         176.000
  23319276.831    -5844508.94549  -4527521.31446  23319276.271    23319291.757
       217.000         165.000
  22309315.817    -9924249.67149  -7694206.95046  22309314.453    22309328.995
       227.000         185.000
  20230498.565   -21142560.08749 -16465005.61348  20230498.597    20230508.612
       244.000         215.000
 00  3 14  1 30  0.0000000  0  6G17G30G26G10G23G 6
  21247605.059   -23530320.03549 -18100601.27447  21247604.559    21247615.720
       242.000         209.000
  23160025.806    -1789529.80249  -1364306.09746  23160027.447    23160044.224
       221.000         172.000
  22222533.669   -15500576.75049 -12060427.07246  22222533.680    22222547.266
       226.000         176.000
  23338018.467    -5746020.81449  -4450777.38846  23338018.246    23338032.002
       218.000         163.000
  22294371.594   -10002780.27249  -7755399.40546  22294371.658    22294385.448
       230.000         185.000
  20231767.871   -21135889.91849 -16459808.06548  20231767.919    20231777.984
       244.000         215.000
 00  3 14  1 30 30.0000000  0  6G17G30G26G10G23G 6
  21241594.978   -23561903.62949 -18125211.80347  21241594.680    21241605.492
       242.000         209.000
  23178874.795    -1690478.67849  -1287123.57046  23178875.578    23178891.389
       222.000         172.000
  22212672.412   -15552397.57449 -12100806.75246  22212672.427    22212685.344
       224.000         177.000
  23356789.210    -5647379.97349  -4373914.47446  23356789.001    23356803.518
       216.000         163.000
  22279486.542   -10081001.34749  -7816350.66246  22279485.943    22279499.572
       230.000         185.000
  20233123.546   -21128765.67149 -16454256.68248  20233123.670    20233133.536
       244.000         215.000
 00  3 14  1 31  0.0000000  0  6G17G30G26G10G23G 6
  21235618.221   -23593311.05949 -18149685.05847  21235617.178    21235628.669
       241.000         209.000
  23197746.065    -1591310.00949  -1209849.50246  23197746.974    23197763.823
       223.000         173.000
  22202896.900   -15603767.85849 -12140835.38446  22202896.764    22202909.770
       223.000         178.000
  23375588.925    -5548587.12049  -4296933.08445  23375588.477    23375602.945
       217.000         161.000
  22264660.716   -10158910.95549  -7877059.25946  22264660.486    22264673.583
       231.000         186.000
  20234565.837   -21121186.53349 -16448350.85448  20234566.181    20234575.830
       244.000         215.000
 00  3 14  1 31 30.0000000  0  6G17G30G26G10G23G 6
  21229675.774   -23624537.65849 -18174017.39047  21229674.602    21229686.322
       241.000         208.000
  23216636.009    -1492044.04549  -1132499.60646  23216637.826    23216653.807
       227.000         174.000
  22193205.639   -15654695.27149 -12180518.90146  22193206.363    22193218.424
       226.000         179.000
  23394417.617    -5449641.58349  -4219832.75945  23394417.842    23394431.580
       215.000         161.000
  22249897.026   -10236493.91749  -7937513.29947  22249896.427    22249909.982
       231.000         188.000
  20236097.513   -21113137.62549 -16442078.95848  20236097.491    20236107.297
       243.000         215.000
 00  3 14  1 32  0.0000000  0  6G17G30G26G10G23G 6
  21223768.819   -23655577.90449 -18198204.51847  21223768.541    21223779.491
       242.000         208.000
  23235548.429    -1392660.24649  -1055057.86346  23235549.484    23235566.394
       224.000         174.000
  22183598.672   -15705179.91849 -12219857.41746  22183598.794    22183611.315
       227.000         179.000
  23413278.527    -5350527.24849  -4142600.86145  23413278.475    23413292.812
       217.000         160.000
  22235197.566   -10313739.33849  -7997704.33847  22235197.213    22235210.639
       231.000         188.000
  20237723.608   -21104592.19449 -16435420.16548  20237723.835    20237733.814
       244.000         215.000
 00  3 14  1 32 30.0000000  0  6G17G30G26G10G23G 6
  21217895.371   -23686444.03749 -18222255.99047  21217895.307    21217905.444
       243.000         209.000
  23254487.473    -1293135.71649   -977506.48746  23254488.123    23254504.912
       224.000         174.000
  22174079.446   -15755203.70049 -12258836.83846  22174078.915    22174091.834
       226.000         179.000
  23432171.849    -5251243.78849  -4065237.20145  23432171.425    23432185.712
       215.000         160.000
  22220565.216   -10390632.05949  -8057620.52847  22220564.313    22220578.262
       231.000         189.000
  20239441.957   -21095562.16749 -16428383.77548  20239441.856    20239451.957
       244.000         215.000
 00  3 14  1 33  0.0000000  0  6G17G30G26G10G23G 6
  21212052.168   -23717150.63249 -18246183.13647  21212051.452    21212062.479
       242.000         208.000
  23273451.913    -1193478.15949   -899851.45046  23273452.844    23273468.411
       222.000         173.000
  22164650.628   -15804751.64149 -12297445.45446  22164650.232    22164662.660
       228.000         180.000
  23451092.604    -5151813.87849  -3987759.40145  23451093.096    23451107.313
       216.000         159.000
  22206000.362   -10467169.81649  -8117260.12747  22205999.167    22206012.939
       230.000         189.000
  20241250.782   -21086056.57049 -16420976.80348  20241250.924    20241260.662
       243.000         215.000
 00  3 14  1 33 30.0000000  0  6G17G30G26G10G23G 6
  21206241.280   -23747686.42549 -18269977.18647  21206240.875    21206252.505
       241.000         208.000
  23292439.269    -1093698.87849   -822101.57946  23292439.630    23292456.418
       221.000         170.000
  22155315.821   -15853805.89049 -12335669.39346  22155315.684    22155328.352
       226.000         180.000
  23470039.241    -5052248.32949  -3910175.96545  23470038.091    23470052.691
       213.000         159.000
  22191500.768   -10543364.56149  -8176632.46247  22191500.274    22191514.330
       230.000         189.000
  20243148.444   -21076084.37649 -16413206.24648  20243148.370    20243158.398
       244.000         215.000
 00  3 14  1 34  0.0000000  0  6G17G30G26G10G23G 6
  21200461.065   -23778061.36449 -18293645.88947  21200460.637    21200472.355
       242.000         209.000
  23311450.455     -993795.84249   -744255.28046  23311452.108    23311467.804
       223.000         168.000
  22146078.908   -15902344.98449 -12373491.91146  22146078.599    22146090.672
       228.000         179.000
  23489008.394    -4952567.12649  -3832502.32045  23489007.159    23489022.610
       215.000         158.000
  22177062.673   -10619236.48749  -8235753.24447  22177061.670    22177076.004
       229.000         189.000
  20245130.323   -21065669.37249 -16405090.64348  20245130.418    20245140.390
       244.000         215.000
 00  3 14  1 34 30.0000000  0  6G17G30G26G10G23G 6
  21194710.577   -23808280.48249 -18317193.18247  21194710.137    21194721.209
       242.000         209.000
  23330478.329     -893804.63349   -666340.24446  23330479.155    23330495.515
       219.000         165.000
  22136940.607   -15950366.19249 -12410910.87046  22136940.205    22136953.016
       226.000         179.000
  23507995.136    -4852791.39549  -3754755.07745  23507995.264    23508008.881
       218.000         159.000
  22162683.395   -10694799.36649  -8294633.19847  22162682.874    22162696.913
       231.000         191.000
  20247192.841   -21054831.06249 -16396645.18148  20247192.930    20247202.724
       244.000         215.000
 00  3 14  1 35  0.0000000  0  6G17G30G26G10G23G 6
  21188990.935   -23838336.44949 -18340613.32947  21188989.828    21189001.615
       241.000         209.000
  23349520.197     -793739.62649   -588367.73046  23349521.673    23349536.891
       220.000         163.000
  22127898.258   -15997883.23149 -12447936.98546  22127897.865    22127910.713
       225.000         179.000
  23526998.463    -4752927.66749  -3676939.25545  23526997.698    23527013.634
       215.000         156.000
  22148363.614   -10770049.30849  -8353269.31047  22148362.987    22148377.124
       233.000         191.000
  20249341.437   -21043539.99949 -16387846.94648  20249341.423    20249351.411
       244.000         215.000
 00  3 14  1 35 30.0000000  0  6G17G30G26G10G23G 6
  21183306.352   -23868208.78649 -18363890.40247  21183305.972    21183317.132
       242.000         209.000
  23368577.844     -693592.16349   -510330.94945  23368579.959    23368594.941
       220.000         161.000
  22118952.637   -16044892.04349 -12484567.08346  22118952.328    22118965.196
       225.000         180.000
  23546021.672    -4652961.27249  -3599043.43045  23546020.429    23546035.147
       213.000         158.000
  22134107.989   -10844962.65249  -8411643.15847  22134106.897    22134121.233
       231.000         191.000
  20251581.610   -21031767.81949 -16378673.80448  20251581.592    20251591.376
       244.000         215.000
 00  3 14  1 36  0.0000000  0  6G17G30G26G10G23G 6
  21177658.942   -23897885.69049 -18387015.19047  21177658.542    21177669.231
       243.000         209.000
  23387651.221     -593361.69549   -432229.47845  23387652.875    23387669.553
       221.000         160.000
  22110102.264   -16091400.26149 -12520807.10446  22110102.095    22110114.697
       225.000         181.000
  23565067.769    -4552874.10049  -3521053.46845  23565068.882    23565080.727
       220.000         158.000
  22119922.304   -10919507.94549  -8469730.19547  22119922.127    22119935.403
       233.000         192.000
  20253918.836   -21019485.24949 -16369102.95948  20253918.804    20253928.721
       244.000         214.000
 00  3 14  1 36 30.0000000  0  6G17G30G26G10G23G 6
  21172052.439   -23927348.62549 -18409973.25947  21172051.973    21172062.594
       243.000         210.000
  23406740.709     -493046.92349   -354062.32645  23406742.579    23406757.134
       219.000         159.000
  22101347.180   -16137407.65449 -12556656.87046  22101347.436    22101359.979
       225.000         181.000
  23584141.863    -4452640.28749  -3442949.29645  23584140.659    23584155.377
       216.000         157.000
  22105810.494   -10993665.51349  -8527515.12847  22105810.056    22105823.413
       233.000         192.000
  20256357.681   -21006668.98049 -16359116.23548  20256357.585    20256367.520
       244.000         215.000
 00  3 14  1 37  0.0000000  0  6G17G30G26G10G23G 6
  21166488.735   -23956585.83849 -18432755.43847  21166487.885    21166498.013
       242.000         209.000
  23425850.055     -392626.57949   -275812.90745  23425850.751    23425866.697
       217.000         158.000
  22092690.673   -16182897.20949 -12592103.12946  22092690.539    22092702.931
       226.000         181.000
  23603245.368    -4352250.77549  -3364723.73645  23603243.435    23603259.590
       215.000         158.000
  22091774.969   -11067422.40049  -8584987.82647  22091774.313    22091787.718
       232.000         194.000
  20258900.670   -20993305.10749 -16348702.80748  20258900.845    20258910.695
       243.000         214.000
 00  3 14  1 37 30.0000000  0  6G17G30G26G10G23G 6
  21160967.217   -23985601.09449 -18455364.66247  21160966.818    21160977.632
       242.000         209.000
  23444979.792     -292100.28849   -197480.94345  23444980.298    23444995.393
       218.000         157.000
  22084136.231   -16227849.85649 -12627131.00146  22084136.590    22084149.076
       227.000         182.000
  23622379.003    -4251703.39649  -3286375.19645  23622379.457    23622392.412
       216.000         159.000
  22077813.976   -11140787.27449  -8642155.07647  22077813.248    22077826.619
       234.000         194.000
  20261542.399   -20979422.68249 -16337885.30348  20261542.256    20261552.375
       243.000         214.000
 00  3 14  1 38  0.0000000  0  6G17G30G26G10G23G 6
  21155483.238   -24014419.31049 -18477820.34147  21155482.624    21155494.595
       242.000         211.000
  23464128.663     -191473.29549   -119070.52545  23464130.141    23464144.940
       218.000         157.000
  22075683.070   -16272271.41949 -12661745.05046  22075682.623    22075695.932
       225.000         182.000
  23641540.699    -4151007.83349  -3207911.19545  23641540.572    23641553.969
       216.000         158.000
  22063923.328   -11213782.56949  -8699034.34247  22063922.304    22063935.955
       231.000         192.000
  20264276.209   -20965056.15549 -16326690.59648  20264276.213    20264286.370
       243.000         215.000
 00  3 14  1 38 30.0000000  0  6G17G30G26G10G23G 6
  21150030.661   -24043072.12449 -18500147.13347  21150030.089    21150041.706
       242.000         211.000
  23483296.038      -90749.19149    -40584.41845  23483296.532    23483312.852
       215.000         157.000
  22067328.315   -16316175.38849 -12695955.79946  22067327.437    22067340.674
       225.000         182.000
  23660725.436    -4050192.52049  -3129353.85045  23660724.142    23660738.449
       217.000         159.000
  22050096.742   -11286440.78249  -8755650.95747  22050095.966    22050109.731
       233.000         193.000
  20267093.798   -20950249.69049 -16315153.07148  20267093.543    20267103.613
       243.000         214.000
 00  3 14  1 39  0.0000000  0  6G17G30G26G10G23G 6
  21144605.492   -24071580.93649 -18522361.72747  21144604.955    21144616.157
       243.000         211.000
  23502478.581       10056.15649     37964.97445  23502479.112    23502497.039
       213.000         155.000
  22059067.234   -16359586.80049 -12729782.73146  22059067.196    22059079.472
       225.000         181.000
  23679927.254    -3949285.00449  -3050724.68745  23679926.928    23679942.011
       215.000         158.000
  22036331.157   -11358778.46649  -8812017.79847  22036330.606    22036344.054
       233.000         194.000
  20269990.129   -20935029.42749 -16303293.11648  20269990.048    20270000.337
       244.000         215.000
 00  3 14  1 39 30.0000000  0  6G17G30G26G10G23G 6
  21139203.753   -24099966.91849 -18544480.61047  21139202.994    21139214.322
       242.000         211.000
  23521673.499      110925.73049    116564.44545  23521675.123    23521691.014
       212.000         155.000
  22050894.677   -16402533.42549 -12763247.48946  22050895.273    22050907.088
       227.000         181.000
  23699144.455    -3848298.32749  -2972033.82445  23699143.324    23699158.395
       213.000         159.000
  22022623.528   -11430811.80849  -8868147.49047  22022622.596    22022636.443
       233.000         194.000
  20272963.071   -20919406.44149 -16291119.35448  20272963.210    20272973.198
       244.000         215.000
 00  3 14  1 40  0.0000000  0  6G17G30G26G10G23G 6
  21133826.497   -24128223.91049 -18566498.98747  21133825.527    21133837.482
       242.000         210.000
  23540879.211      211851.62349    195207.78445  23540880.458    23540896.461
       214.000         155.000
  22042807.989   -16445028.22549 -12796360.17946  22042807.772    22042819.789
       227.000         181.000
  23718373.832    -3747246.60049  -2893292.28245  23718374.651    23718387.793
       216.000         157.000
  22008973.891   -11502540.22149  -8924039.57347  22008973.405    22008986.746
       234.000         195.000
  20276016.487   -20903360.75949 -16278616.20648  20276016.386    20276026.397
       243.000         214.000
 00  3 14  1 40 30.0000000  0  6G17G30G26G10G23G 6
  21128477.204   -24156333.66749 -18588402.63547  21128475.910    21128487.560
       240.000         210.000
  23560096.111      312836.29249    273896.93445  23560096.045    23560114.403
       211.000         155.000
  22034809.296   -16487060.89049 -12829112.76546  22034808.739    22034821.618
       226.000         181.000
  23737615.938    -3646128.48249  -2814498.99045  23737614.132    23737630.327
       212.000         156.000
  21995384.043   -11573954.73049  -8979687.08047  21995383.123    21995396.342
       235.000         193.000
  20279156.571   -20886859.29049 -16265757.90248  20279156.862    20279166.860
       244.000         215.000
 00  3 14  1 41  0.0000000  0  6G17G30G26G10G23G 6
  21123160.601   -24184271.84649 -18610172.59747  21123160.440    21123171.547
       243.000         210.000
  23579326.467      413891.93449    352641.37945  23579328.151    23579344.724
       215.000         154.000
  22026903.826   -16528603.79449 -12861483.71546  22026903.872    22026916.181
       227.000         181.000
  23756873.971    -3544927.25449  -2735640.92845  23756873.309    23756887.925
       216.000         156.000
  21981858.209   -11645032.69949  -9035072.33747  21981857.447    21981870.297
       234.000         193.000
  20282391.164   -20869861.66249 -16252512.98648  20282391.293    20282401.046
       244.000         215.000
 00  3 14  1 41 30.0000000  0  6G17G30G26G10G23G 6
  21117879.884   -24212023.08949 -18631796.90647  21117879.326    21117890.486
       243.000         210.000
  23598572.946      515031.38449    431451.10745  23598574.077    23598592.097
       217.000         155.000
  22019096.272   -16569632.09049 -12893453.68146  22019096.617    22019108.114
       227.000         180.000
  23776150.587    -3443627.15949  -2656705.85645  23776148.855    23776165.209
       212.000         154.000
  21968400.408   -11715753.55249  -9090179.33847  21968399.853    21968412.826
       236.000         195.000
  20285725.525   -20852339.27249 -16238859.16748  20285725.764    20285735.596
       244.000         214.000
 00  3 14  1 42  0.0000000  0  6G17G30G26G10G23G 6
  21112637.215   -24239572.73349 -18653264.10947  21112636.646    21112648.613
       242.000         211.000
  23617836.467      616260.53649    510330.72245  23617837.421    23617854.433
       218.000         156.000
  22011391.656   -16610119.69049 -12925002.32146  22011391.201    22011403.131
       227.000         180.000
  23795448.843    -3342214.56449  -2577683.08445  23795448.114    23795462.343
       214.000         156.000
  21955015.428   -11786091.69649  -9144988.11147  21955014.720    21955027.529
       235.000         195.000
  20289158.754   -20834297.92149 -16224800.95948  20289158.658    20289168.617
       244.000         215.000
 00  3 14  1 42 30.0000000  0  6G17G30G26G10G23G 6
  21107429.181   -24266940.56149 -18674589.63447  21107428.591    21107440.884
       242.000         211.000
  23637114.938      717568.26849    589271.58345  23637115.545    23637132.009
       217.000         156.000
  22003790.810   -16650062.05349 -12956126.09946  22003790.773    22003802.257
       230.000         181.000
  23814768.648    -3240687.78849  -2498571.39545  23814769.288    23814783.207
       217.000         154.000
  21941702.095   -11856052.88449  -9199503.15847  21941701.326    21941714.073
       233.000         195.000
  20292686.021   -20815761.45949 -16210356.95748  20292685.896    20292695.918
       243.000         214.000
 00  3 14  1 43  0.0000000  0  6G17G30G26G10G23G 6
  21102253.923   -24294136.08849 -18695780.91447  21102252.824    21102264.834
       241.000         211.000
  23656404.169      818932.02849    668256.11145  23656404.312    23656422.599
       217.000         157.000
  21996294.117   -16689457.03749 -12986823.34646  21996294.192    21996305.728
       229.000         181.000
  23834108.178    -3139060.59149  -2419381.41245  23834107.041    23834122.354
       213.000         153.000
  21928458.483   -11925647.57649  -9253732.62847  21928457.934    21928470.600
       236.000         195.000
  20296304.203   -20796747.84749 -16195541.14248  20296304.301    20296314.080
       243.000         214.000
 00  3 14  1 43 30.0000000  0  6G17G30G26G10G23G 6
  21097110.342   -24321165.34349 -18716842.62147  21097110.634    21097122.248
       244.000         211.000
  23675699.350      920327.67649    747265.48045  23675700.963    23675716.503
       217.000         159.000
  21988900.782   -16728309.31249 -13017097.71046  21988900.891    21988912.150
       229.000         181.000
  23853464.354    -3037343.86749  -2340121.66645  23853463.531    23853478.661
       213.000         153.000
  21915283.848   -11994880.15349  -9307679.93847  21915283.315    21915296.149
       235.000         196.000
  20300008.784   -20777280.09349 -16180371.44448  20300008.776    20300018.898
       243.000         214.000
 00  3 14  1 44  0.0000000  0  6G17G30G26G10G23G 6
  21091997.335   -24348035.19649 -18737780.12147  21091996.894    21092008.653
       243.000         212.000
  23694997.500     1021739.61449    826287.55245  23694998.214    23695016.650
       217.000         159.000
  21981611.567   -16766614.01149 -13046945.37946  21981611.587    21981623.580
       228.000         182.000
  23872832.994    -2935560.38849  -2260809.93945  23872832.582    23872847.256
       212.000         153.000
  21902175.259   -12063765.80549  -9361356.90347  21902174.710    21902186.999
       235.000         197.000
  20303798.509   -20757364.60849 -16164852.87748  20303798.723    20303808.417
       243.000         214.000
 00  3 14  1 44 30.0000000  0  6G17G30G26G10G23G 6
  21086916.363   -24374735.58849 -18758585.58447  21086915.742    21086927.163
       242.000         211.000
  23714298.420     1123165.71749    905320.65345  23714299.512    23714316.480
       217.000         158.000
  21974426.460   -16804371.61549 -13076366.74446  21974427.031    21974438.346
       229.000         182.000
  23892215.791    -2833703.26649  -2181440.77245  23892213.685    23892228.813
       210.000         152.000
  21889129.433   -12132321.34749  -9414776.65547  21889128.252    21889141.685
       235.000         197.000
  20307680.983   -20736962.27549 -16148954.94148  20307680.975    20307690.952
       243.000         214.000
 00  3 14  1 45  0.0000000  0  6G17G30G26G10G23G 6
  21081871.815   -24401244.56949 -18779241.88447  21081870.984    21081882.303
       241.000         210.000
  23733605.288     1224623.43349    984378.37445  23733606.956    23733622.207
       217.000         157.000
  21967347.328   -16841572.25649 -13105354.11846  21967347.192    21967358.706
       229.000         182.000
  23911615.939    -2731754.25249  -2102000.05445  23911616.253    23911629.937
       213.000         152.000
  21876151.252   -12200521.37449  -9467919.38047  21876150.986    21876163.420
       236.000         198.000
  20311662.215   -20716040.58449 -16132652.31748  20311662.459    20311672.048
       244.000         214.000
 00  3 14  1 45 30.0000000  0  6G17G30G26G10G23G 6
  21076865.106   -24427554.94449 -18799743.43747  21076865.470    21076875.528
       244.000         210.000
  23752921.771     1326131.13849   1063475.07045  23752922.554    23752940.333
       215.000         155.000
  21960374.248   -16878215.53249 -13133907.19646  21960373.989    21960385.402
       227.000         181.000
  23931035.548    -2629703.64949  -2022480.12745  23931034.949    23931048.742
       212.000         151.000
  21863245.177   -12268343.06149  -9520767.29347  21863244.681    21863256.841
       237.000         197.000
  20315744.803   -20694586.74449 -16115935.03048  20315744.942    20315754.924
       244.000         214.000
 00  3 14  1 46  0.0000000  0  6G17G30G26G10G23G 6
  21071897.757   -24453660.11049 -18820085.09047  21071897.459    21071908.226
       243.000         211.000
  23772250.447     1427703.11449   1142621.83645  23772251.373    23772268.995
       214.000         155.000
  21953507.634   -16914299.08049 -13162024.12846  21953507.813    21953519.254
       227.000         180.000
  23950475.840    -2527544.01649  -1942875.26145  23950475.171    23950490.142
       213.000         151.000
  21850411.584   -12335783.25149  -9573317.94047  21850410.625    21850423.407
       235.000         197.000
  20319931.181   -20672587.09149 -16098792.44048  20319931.454    20319941.024
       244.000         214.000
 00  3 14  1 46 30.0000000  0  6G17G30G26G10G23G 6
  21066969.498   -24479558.16749 -18840265.35747  21066969.291    21066979.824
       244.000         211.000
  23791593.235     1529349.73049   1221826.78045  23791595.451    23791612.200
       215.000         154.000
  21946745.174   -16949835.04649 -13189714.36946  21946745.095    21946756.448
       228.000         180.000
  23969938.042    -2425269.47149  -1863180.85045  23969938.147    23969952.826
       212.000         152.000
  21837653.248   -12402828.16049  -9625560.57447  21837652.208    21837664.825
       236.000         198.000
  20324220.755   -20650045.57049 -16081227.60548  20324220.705    20324230.705
       243.000         214.000
 00  3 14  1 47  0.0000000  0  6G17G30G26G10G23G 6
  21062078.198   -24505262.24649 -18860294.46647  21062077.697    21062088.894
       242.000         211.000
  23810950.690     1631072.31549   1301090.91045  23810951.191    23810969.282
       214.000         155.000
  21940087.066   -16984822.72549 -13216977.36746  21940086.074    21940098.479
       227.000         180.000
  23989416.017    -2322912.04349  -1783421.85445  23989415.333    23989430.595
       214.000         153.000
  21824973.468   -12469459.69549  -9677481.09447  21824973.265    21824985.529
       237.000         198.000
  20328606.089   -20627000.05349 -16063270.05348  20328606.249    20328616.039
       243.000         214.000
 00  3 14  1 47 30.0000000  0  6G17G30G26G10G23G 6
  21057221.839   -24530782.35149 -18880180.21847  21057221.389    21057231.746
       243.000         210.000
  23830318.497     1732850.58849   1380398.43145  23830318.564    23830336.797
       215.000         156.000
  21933531.113   -17019274.01149 -13243822.41446  21933530.783    21933542.357
       225.000         180.000
  24008905.606    -2220493.85049  -1703615.50245  24008904.271    24008920.084
       213.000         152.000
  21812368.527   -12535699.00449  -9729096.00047  21812367.832    21812380.406
       236.000         198.000
  20333082.563   -20603475.80149 -16044939.46148  20333082.480    20333092.332
       242.000         213.000
 00  3 14  1 48  0.0000000  0  6G17G30G26G10G23G 6
  21052397.287   -24556134.95549 -18899935.44447  21052396.529    21052407.591
       242.000         210.000
  23849693.881     1834669.09449   1459737.30545  23849694.390    23849714.143
       217.000         158.000
  21927076.084   -17053194.78149 -13270254.06546  21927076.641    21927087.983
       226.000         181.000
  24028406.470    -2118016.19549  -1623762.80945  24028405.711    24028421.642
       213.000         153.000
  21799834.841   -12601563.12349  -9780418.52547  21799834.319    21799846.935
       236.000         198.000
  20337646.600   -20579491.38749 -16026250.29348  20337646.610    20337656.480
       242.000         213.000
 00  3 14  1 48 30.0000000  0  6G17G30G26G10G23G 6
  21047601.849   -24581335.09749 -18919571.87847  21047601.649    21047612.705
       244.000         211.000
  23869073.455     1936509.28949   1539093.05245  23869074.713    23869093.568
       217.000         158.000
  21920721.424   -17086588.30049 -13296274.85846  21920721.610    21920733.738
       229.000         182.000
  24047915.685    -2015495.21849  -1543876.36345  24047914.525    24047929.898
       212.000         153.000
  21787371.445   -12667057.95949  -9831453.32347  21787370.987    21787383.323
       236.000         199.000
  20342295.274   -20555062.41549 -16007214.72348  20342295.252    20342305.204
       242.000         213.000
 00  3 14  1 49  0.0000000  0  6G17G30G26G10G23G 6
  21042832.978   -24606395.55349 -18939099.44747  21042832.340    21042843.830
       242.000         211.000
  23888452.006     2038343.08949   1618443.85545  23888453.658    23888471.874
       217.000         156.000
  21914468.837   -17119445.60749 -13321877.82446  21914469.049    21914480.410
       228.000         183.000
  24067433.491    -1912928.66749  -1463954.44245  24067434.012    24067447.848
       213.000         153.000
  21774975.899   -12732196.03449  -9882210.10847  21774975.348    21774987.881
       237.000         199.000
  20347026.553   -20530198.99549 -15987840.62447  20347026.487    20347036.342
       243.000         212.000
 00  3 14  1 49 30.0000000  0  6G17G30G26G10G23G 6
  21038091.874   -24631309.72349 -18958513.02747  21038090.853    21038103.025
       241.000         211.000
  23907825.416     2140150.13549   1697773.75445  23907827.206    23907842.214
       220.000         157.000
  21908318.884   -17151763.78049 -13347060.69746  21908318.657    21908330.059
       228.000         183.000
  24086962.606    -1810302.79549  -1383986.23945  24086962.313    24086976.479
       215.000         153.000
  21762644.546   -12796996.94149  -9932704.17147  21762644.015    21762656.444
       236.000         199.000
  20351843.517   -20504885.85249 -15968116.09348  20351843.582    20351853.542
       243.000         213.000
 00  3 14  1 50  0.0000000  0  6G17G30G26G10G23G 6
  21033378.767   -24656076.52649 -18977811.77747  21033378.565    21033389.424
       243.000         211.000
  23927195.426     2241938.54649   1777089.14445  23927196.856    23927213.485
       222.000         158.000
  21902274.270   -17183528.08649 -13371811.97346  21902274.151    21902285.312
       229.000         183.000
  24106501.271    -1707626.72249  -1303978.94345  24106500.387    24106516.125
       212.000         153.000
  21750378.193   -12861456.55749  -9982932.29247  21750377.677    21750389.806
       237.000         199.000
  20356749.249   -20479105.76149 -15948027.70847  20356749.266    20356759.279
       242.000         212.000
 00  3 14  1 50 30.0000000  0  6G17G30G26G10G23G 6
  21028698.176   -24680673.45749 -18996978.15947  21028697.036    21028708.923
       242.000         211.000
  23946562.011     2343708.04049   1856389.82545  23946563.179    23946579.251
       219.000         156.000
  21896338.903   -17214718.04749 -13396115.70846  21896338.680    21896350.750
       229.000         184.000
  24126048.927    -1604902.74249  -1223934.31645  24126048.774    24126064.002
       212.000         153.000
  21738179.765   -12925559.35549 -10032882.38647  21738179.092    21738191.493
       237.000         200.000
  20361750.623   -20452823.30449 -15927547.87047  20361750.583    20361760.539
       242.000         212.000
 00  3 14  1 51  0.0000000  0  6G17G30G26G10G23G 6
  21024054.086   -24705077.75149 -19015994.44647  21024054.030    21024064.211
       243.000         210.000
  23965927.003     2445470.99449   1935685.43345  23965928.333    23965945.620
       213.000         154.000
  21890515.547   -17245319.78449 -13419961.08946  21890515.122    21890527.283
       229.000         185.000
  24145610.894    -1502105.65549  -1143832.71845  24145610.951    24145624.773
       213.000         153.000
  21726051.739   -12989291.94449 -10082543.99347  21726051.168    21726063.432
       237.000         200.000
  20366852.231   -20426013.86649 -15906657.40048  20366852.661    20366862.231
       243.000         213.000
 00  3 14  1 51 30.0000000  0  6G17G30G26G10G23G 6
  21019450.752   -24729267.98349 -19034843.91547  21019449.428    21019461.815
       242.000         210.000
  23985296.247     2547256.93049   2014998.93045  23985297.174    23985315.448
       214.000         154.000
  21884804.035   -17275333.50849 -13443348.28546  21884804.165    21884815.158
       230.000         185.000
  24165185.019    -1399242.17549  -1063679.37745  24165185.001    24165198.849
       213.000         153.000
  21713997.884   -13052634.82749 -10131901.93947  21713997.412    21714009.450
       238.000         200.000
  20372056.962   -20398663.02649 -15885345.05747  20372057.088    20372067.223
       242.000         212.000
 00  3 14  1 52  0.0000000  0  6G17G30G26G10G23G 6
  21014886.168   -24753254.01749 -19053534.26947  21014885.268    21014896.959
       243.000         210.000
  24004672.759     2649079.74549   2094341.15045  24004673.720    24004691.584
       216.000         157.000
  21879205.318   -17304754.45049 -13466273.57746  21879205.571    21879216.505
       229.000         185.000
  24184771.667    -1296313.13749   -983474.92645  24184770.352    24184784.638
       207.000         150.000
  21702022.021   -13115567.95549 -10180940.60247  21702021.423    21702033.531
       237.000         200.000
  20377366.013   -20370763.73549 -15863605.35047  20377366.263    20377375.582
       243.000         212.000
 00  3 14  1 52 30.0000000  0  6G17G30G26G10G23G 6
  21010361.548   -24777030.17749 -19072061.08247  21010361.130    21010372.304
       244.000         210.000
  24024054.439     2750930.94149   2173705.48545  24024054.793    24024074.294
       213.000         156.000
  21873718.870   -17333585.48049 -13488739.19746  21873718.410    21873730.405
       231.000         185.000
  24204373.870    -1193302.31449   -903206.77645  24204373.331    24204387.753
       212.000         151.000
  21690125.861   -13178082.18849 -10229652.84647  21690125.479    21690137.561
       238.000         201.000
  20382775.751   -20342335.62649 -15841453.57547  20382775.838    20382785.811
       242.000         212.000
 00  3 14  1 53  0.0000000  0  6G17G30G26G10G23G 6
  21005874.704   -24800609.42549 -19090434.47047  21005874.286    21005884.699
       243.000         211.000
  24043441.049     2852808.22049   2253090.15945  24043441.472    24043461.183
       209.000         151.000
  21868340.105   -17361850.70949 -13510763.93046  21868339.773    21868350.814
       230.000         185.000
  24223987.938    -1090230.21349   -822890.86645  24223987.462    24224001.637
       209.000         150.000
  21678306.078   -13240195.14349 -10278052.39347  21678305.441    21678317.527
       238.000         201.000
  20388279.160   -20313414.94449 -15818917.97447  20388279.158    20388289.209
       242.000         212.000
 00  3 14  1 53 30.0000000  0  6G17G30G26G10G23G 6
  21001420.978   -24824013.68549 -19108671.49647  21001420.479    21001431.608
       243.000         211.000
  24062832.389     2954709.64349   2332493.61445  24062833.637    24062853.388
       215.000         153.000
  21863067.630   -17389557.67949 -13532353.68246  21863067.713    21863078.192
       230.000         185.000
  24243607.816     -987127.31249   -742550.95345  24243606.301    24243621.455
       208.000         148.000
  21666560.249   -13301919.52549 -10326149.21147  21666559.783    21666571.892
       238.000         201.000
  20393873.465   -20284016.64449 -15796010.20547  20393873.615    20393883.311
       243.000         212.000
 00  3 14  1 54  0.0000000  0  6G17G30G26G10G23G 6
  20996997.509   -24847258.61349 -19126784.35947  20996996.562    20997007.592
       243.000         211.000
  24082223.211     3056606.80149   2411893.77945  24082225.262    24082243.605
       215.000         154.000
  21857901.423   -17416705.55949 -13553507.75746  21857901.600    21857912.955
       230.000         185.000
  24263234.946     -883985.84549   -662181.01345  24263234.822    24263249.360
       210.000         148.000
  21654885.811   -13363268.12249 -10373953.15047  21654885.415    21654897.475
       239.000         201.000
  20399558.419   -20254142.02149 -15772731.27647  20399558.280    20399568.044
       242.000         211.000
 00  3 14  1 54 30.0000000  0  6G17G30G26G10G23G 6
  20992606.054   -24870336.10249 -19144766.77247  20992606.131    20992616.339
       244.000         211.000
  24101610.661     3158486.75649   2491280.51145  24101611.761    24101629.261
       214.000         154.000
  21852840.882   -17443297.92849 -13574228.96746  21852840.713    21852851.570
       231.000         185.000
  24282869.235     -780807.03749   -581781.90945  24282868.650    24282884.359
       208.000         147.000
  21643281.601   -13424248.17749 -10421469.94147  21643280.838    21643292.863
       238.000         201.000
  20405331.361   -20223805.08949 -15749092.11647  20405331.593    20405341.559
       242.000         212.000
 00  3 14  1 55  0.0000000  0  6G17G30G26G10G23G 6
  20988245.385   -24893251.51049 -19162622.86347  20988244.361    20988255.673
       243.000         211.000
  24120994.569     3260349.62449   2570653.97245  24120994.843    24121014.415
       210.000         152.000
  21847887.230   -17469329.26449 -13594513.02146  21847887.242    21847898.301
       229.000         185.000
  24302507.209     -677608.67549   -501367.62045  24302507.934    24302522.390
       208.000         146.000
  21631746.135   -13484866.74249 -10468705.05547  21631745.574    21631757.542
       238.000         201.000
  20411195.746   -20192987.58549 -15725078.47947  20411195.653    20411205.357
       242.000         211.000
 00  3 14  1 55 30.0000000  0  6G17G30G26G10G23G 6
  20983915.788   -24916002.77749 -19180351.05347  20983915.268    20983926.949
       243.000         212.000
  24140373.615     3362186.11549   2650006.82245  24140374.237    24140391.766
       214.000         151.000
  21843045.326   -17494772.93049 -13614339.14946  21843045.594    21843056.010
       230.000         184.000
  24322152.989     -574369.55549   -420921.56245  24322151.895    24322168.277
       206.000         146.000
  21620282.655   -13545107.17049 -10515645.51247  21620281.960    21620293.869
       238.000         202.000
  20417155.187   -20161670.52749 -15700675.57747  20417155.198    20417165.120
       242.000         211.000
 00  3 14  1 56  0.0000000  0  6G17G30G26G10G23G 6
  20979620.381   -24938575.37749 -19197940.03247  20979620.351    20979630.450
       245.000         212.000
  24159745.030     3463983.17349   2729328.94145  24159746.316    24159765.731
       215.000         152.000
  21838316.630   -17519621.63349 -13633701.67146  21838316.818    21838327.616
       230.000         184.000
  24341806.987     -471087.51849   -340442.06345  24341805.958    24341821.202
       207.000         144.000
  21608892.058   -13604964.66249 -10562287.58447  21608891.616    21608903.541
       238.000         202.000
  20423209.960   -20129852.64149 -15675882.42047  20423210.196    20423219.825
       242.000         212.000
 00  3 14  1 56 30.0000000  0  8G17G30G26G22G21G10G23G 6
  20975360.629   -24960960.77349 -19215383.13148  20975360.090    20975370.804
       245.000         213.000
  24179112.527     3565760.02549   2808635.33445  24179113.058    24179132.453
       210.000         151.000
  21833703.204   -17543865.28749 -13652592.72346  21833703.072    21833714.504
       229.000         184.000
                  -1452229.43249  -1128084.49644                  23665004.054
       206.000         122.000
                  -1442727.91049  -1103662.71443
       207.000          74.000
  24361466.035     -367778.92049   -259941.84445  24361464.489    24361480.385
       205.000         144.000
  21597574.940   -13664435.96749 -10608628.74147  21597574.390    21597586.473
       238.000         202.000
  20429359.850   -20097534.35049 -15650699.34347  20429360.138    20429369.901
       242.000         211.000
 00  3 14  1 57  0.0000000  0  8G17G30G26G22G21G10G23G 6
  20971138.405   -24983149.07049 -19232672.66147  20971137.873    20971148.136
       245.000         212.000
  24198479.334     3667532.09249   2887938.06845  24198478.572    24198500.410
       211.000         151.000
  21829206.199   -17567496.60649 -13671006.63946  21829206.365    21829217.401
       229.000         183.000
  23661548.146    -1470302.49949  -1142167.34445  23661547.881    23661565.374
       208.000         140.000
                  -1533972.18049  -1174762.35643
       208.000          74.000
  24381131.887     -264432.70749   -179412.34845  24381131.114    24381145.447
       203.000         143.000
  21586333.934   -13723507.18549 -10654658.13147  21586333.133    21586345.211
       238.000         202.000
  20435608.343   -20064698.68249 -15625113.10947  20435608.233    20435618.420
       242.000         211.000
 00  3 14  1 57 30.0000000  0  8G17G30G26G22G21G10G23G 6
  20966953.304   -25005142.24049 -19249810.13848  20966952.891    20966963.441
       245.000         213.000
  24217843.485     3769290.69449   2967230.26445  24217844.715    24217863.471
       215.000         153.000
  21824824.320   -17590523.18749 -13688949.33346  21824824.269    21824835.509
       228.000         183.000
  23658215.293    -1487818.39749  -1155816.01145  23658214.219    23658230.779
       209.000         144.000
                  -1625069.54249  -1245746.79843
       209.000          74.000
  24400806.741     -161039.70849    -98846.35545  24400805.714    24400821.435
       204.000         142.000
  21575169.637   -13782175.56449 -10700373.62947  21575169.281    21575181.154
       239.000         203.000
  20441953.449   -20031354.70549 -15599130.79747  20441953.820    20441963.292
       243.000         211.000
 00  3 14  1 58  0.0000000  0  8G17G30G26G22G21G10G23G 6
  20962801.479   -25026960.11049 -19266811.00548  20962800.765    20962812.154
       245.000         213.000
  24237202.685     3871022.65449   3046501.65245  24237204.323    24237222.309
       214.000         154.000
  21820550.420   -17612981.85449 -13706449.48346  21820550.397    21820561.668
       228.000         183.000
  23654981.162    -1504813.21149  -1169058.65645  23654980.598    23654997.513
       211.000         147.000
                  -1716064.35249  -1316651.40544                  24846223.295
       201.000         129.000
  24420485.457      -57627.50549    -18265.41245  24420484.540    24420501.680
       204.000         144.000
  21564077.452   -13840464.94949 -10745793.79247  21564076.690    21564088.683
       238.000         202.000
  20448390.895   -19997525.81749 -15572770.63847  20448390.874    20448401.173
       242.000         212.000
 00  3 14  1 58 30.0000000  0  8G17G30G26G22G21G10G23G 6
  20958676.715   -25048635.04249 -19283700.50948  20958675.921    20958686.743
       244.000         213.000
  24256554.593     3972717.04249   3125743.80745  24256555.986    24256575.354
       210.000         153.000
  21816380.756   -17634892.31049 -13723522.47046  21816380.584    21816392.144
       229.000         183.000
  23651841.054    -1521314.68849  -1181916.88045  23651840.811    23651856.155
       213.000         150.000
  24828901.837    -1806974.37349  -1387489.97745  24828898.911    24828921.325
       204.000         132.000
  24440167.438       45801.42649     62328.53245  24440166.935    24440181.358
       206.000         142.000
  21553054.238   -13898391.87449 -10790931.53947  21553053.322    21553065.603
       237.000         203.000
  20454917.587   -19963227.85249 -15546044.94847  20454917.715    20454927.484
       243.000         211.000
 00  3 14  1 59  0.0000000  0  8G17G30G26G22G21G10G23G 6
  20954581.352   -25070156.12749 -19300470.13148  20954580.756    20954590.985
       244.000         213.000
  24275897.229     4074362.84049   3204948.12045  24275896.377    24275917.859
       211.000         150.000
  21812315.922   -17656252.82449 -13740166.92346  21812315.668    21812327.254
       228.000         183.000
  23648794.875    -1537321.98949  -1194390.03645  23648794.260    23648810.666
       213.000         151.000
  24811621.568    -1897780.72549  -1458247.74745  24811622.021    24811641.844
       204.000         134.000
  24459856.921      149269.92249    142953.38045  24459856.674    24459871.552
       207.000         144.000
  21542101.167   -13955949.94649 -10835781.85347  21542100.704    21542112.637
       239.000         204.000
  20461535.341   -19928451.34049 -15518946.36547  20461535.364    20461545.294
       242.000         211.000
 00  3 14  1 59 30.0000000  0  8G17G30G26G22G21G10G23G 6
  20950516.500   -25091516.63749 -19317114.62547  20950515.870    20950526.918
       244.000         212.000
  24295232.066     4175967.70649   3284120.47245  24295232.660    24295251.693
       213.000         150.000
  21808360.089   -17677040.50249 -13756365.00446  21808360.146    21808371.363
       229.000         184.000
  23645845.478    -1552821.86049  -1206467.76745  23645845.262    23645861.428
       213.000         154.000
  24794370.248    -1988436.67149  -1528888.31345  24794368.966    24794390.298
       202.000         133.000
  24479555.171      252784.28849    223613.92545  24479554.837    24479570.577
       208.000         144.000
  21531220.710   -14013126.54549 -10880334.92047  21531220.306    21531232.043
       239.000         203.000
  20468247.945   -19893176.20749 -15491459.25247  20468247.897    20468258.215
       242.000         211.000
 00  3 14  2  0  0.0000000  0  8G17G30G26G22G21G10G23G 6
  20946483.315   -25112711.10549 -19333629.74047  20946482.822    20946493.243
       245.000         212.000
  24314561.715     4277544.34749   3363270.85645  24314562.679    24314582.874
       210.000         151.000
  21804516.557   -17697238.05349 -13772103.25746  21804516.867    21804527.935
       229.000         184.000
  23642993.239    -1567810.32049  -1218147.01845  23642992.617    23643008.771
       216.000         156.000
  24777150.326    -2078926.95649  -1599399.77645  24777148.647    24777170.236
       206.000         132.000
  24499260.879      356338.02049    304305.13945  24499259.955    24499274.112
       206.000         142.000
  21520412.690   -14069922.64349 -10924591.49247  21520411.949    21520424.181
       239.000         204.000
  20475055.278   -19857403.26449 -15463584.23747  20475055.464    20475065.264
       243.000         211.000
 00  3 14  2  0 30.0000000  0  8G17G30G26G22G21G10G23G 6
  20942482.266   -25133736.78649 -19350013.33447  20942481.432    20942492.361
       244.000         212.000
  24333883.901     4379080.86649   3442390.01445  24333885.592    24333904.322
       211.000         152.000
  21800784.750   -17716848.17049 -13787383.76846  21800784.571    21800795.746
       229.000         185.000
  23640239.534    -1582280.87849  -1229422.69445  23640238.813    23640255.275
       217.000         157.000
  24759962.692    -2169247.17349  -1669778.70745  24759960.796    24759983.567
       204.000         135.000
  24518971.509      459919.28749    385017.84945  24518970.440    24518985.442
       208.000         140.000
  21509676.557   -14126340.91249 -10968553.66147  21509675.571    21509687.823
       239.000         204.000
  20481956.998   -19821134.77649 -15435323.08147  20481956.836    20481967.197
       242.000         211.000
 00  3 14  2  1  0.0000000  0  8G17G30G26G22G21G10G23G 6
  20938515.303   -25154582.30449 -19366256.53447  20938514.428    20938524.906
       244.000         211.000
  24353195.335     4480562.03449   3521466.01245  24353196.873    24353216.099
       214.000         151.000
  21797164.516   -17735872.01649 -13802207.42146  21797164.517    21797175.995
       229.000         185.000
  23637584.197    -1596234.32549  -1240295.44945  23637583.911    23637600.277
       217.000         158.000
  24742808.083    -2259394.41049  -1740022.80945  24742806.342    24742828.779
       199.000         138.000
  24538682.649      563502.06249    465731.72745  24538683.023    24538697.653
       210.000         144.000
  21499014.339   -14182370.76549 -11012213.16047  21499013.693    21499025.630
       239.000         204.000
  20488952.381   -19784373.58849 -15406678.00047  20488952.343    20488962.544
       242.000         211.000
 00  3 14  2  1 30.0000000  0  8G17G30G26G22G21G10G23G 6
  20934582.463   -25175248.76249 -19382360.21547  20934581.601    20934592.805
       243.000         211.000
  24372497.990     4581995.84349   3600505.09945  24372498.710    24372518.251
       214.000         152.000
  21793659.263   -17754291.75149 -13816560.37546  21793659.314    21793670.677
       228.000         185.000
  23635027.961    -1609667.50049  -1250762.77945  23635026.951    23635043.245
       218.000         160.000
  24725686.012    -2349369.90549  -1810133.07945  24725684.745    24725704.673
       205.000         139.000
  24558392.797      667078.95549    546440.97245  24558391.200    24558406.163
       207.000         141.000
  21488426.982   -14238007.24849 -11055566.14947  21488426.522    21488438.026
       240.000         205.000
  20496039.750   -19747129.42749 -15377656.59447  20496039.857    20496049.597
       242.000         212.000
 00  3 14  2  2  0.0000000  0  8G17G30G26G22G21G10G23G 6
  20930684.745   -25195730.83949 -19398320.22947  20930684.808    20930694.847
       244.000         212.000
  24391790.039     4683375.67849   3679502.15545  24391790.865    24391811.192
       209.000         150.000
  21790268.226   -17772111.59449 -13830445.86346  21790268.301    21790279.883
       228.000         185.000
  23632571.376    -1622576.55149  -1260821.71045  23632570.572    23632587.067
       219.000         162.000
  24708591.872    -2439199.76949  -1880129.91045  24708591.928    24708611.673
       209.000         141.000
  24578101.843      770650.78749    627146.33245  24578102.164    24578115.576
       209.000         142.000
  21477914.110   -14293251.96849 -11098613.85047  21477913.760    21477925.649
       240.000         204.000
  20503217.398   -19709410.48049 -15348265.20847  20503217.488    20503227.555
       242.000         211.000
 00  3 14  2  2 30.0000000  0  8G17G30G26G22G21G10G23G 6
  20926822.335   -25216027.84749 -19414136.01747  20926821.743    20926832.708
       243.000         212.000
  24411069.253     4784689.34949   3758447.62945  24411070.248    24411090.180
       208.000         147.000
  21786989.495   -17789341.16349 -13843871.41146  21786989.801    21787000.833
       230.000         186.000
  23630216.500    -1634951.40349  -1270464.37646  23630215.642    23630231.721
       219.000         163.000
  24691525.346    -2528884.15449  -1950013.37945  24691525.672    24691544.758
       213.000         144.000
  24597809.884      874218.00849    707848.09645  24597809.321    24597825.910
       208.000         143.000
  21467479.081   -14348088.09049 -11141343.18147  21467478.284    21467490.150
       239.000         205.000
  20510486.859   -19671209.38849 -15318498.12747  20510487.095    20510496.734
       242.000         211.000
 00  3 14  2  3  0.0000000  0  8G17G30G26G22G21G10G23G 6
  20922993.897   -25236146.34449 -19429812.72047  20922993.363    20923002.931
       244.000         211.000
  24430336.311     4885938.26449   3837342.65745  24430338.928    24430357.504
       208.000         143.000
  21783827.353   -17805958.21649 -13856819.67146  21783827.050    21783838.472
       230.000         187.000
  23627963.899    -1646788.82449  -1279688.25746  23627962.882    23627979.383
       220.000         165.000
  24674488.117    -2618414.32849  -2019776.73945  24674486.848    24674507.381
       211.000         146.000
  24617517.792      977784.10249    788548.93345  24617517.977    24617530.668
       211.000         142.000
  21457121.956   -14402514.55149 -11183753.29847  21457121.324    21457133.003
       239.000         204.000
  20517847.567   -19632528.78949 -15288357.39947  20517847.780    20517857.608
       243.000         211.000
 00  3 14  2  3 30.0000000  0  8G17G30G26G22G21G10G23G 6
  20919197.662   -25256096.25249 -19445358.05047  20919197.271    20919207.424
       245.000         211.000
  24449590.837     4987120.71249   3916185.82245  24449589.951    24449610.116
       208.000         139.000
  21780780.669   -17821968.42349 -13869295.08446  21780780.979    21780792.012
       231.000         187.000
  23625814.522    -1658083.70349  -1288489.37846  23625813.759    23625829.785
       219.000         166.000
  24657477.785    -2707802.77249  -2089429.62245  24657476.894    24657497.050
       213.000         149.000
  24637226.148     1081349.93249    869249.62545  24637226.303    24637240.118
       209.000         142.000
  21446840.319   -14456544.35049 -11225854.32547  21446839.822    21446851.517
       240.000         205.000
  20525298.030   -19593376.33649 -15257849.00147  20525297.982    20525308.125
       242.000         211.000
 00  3 14  2  4  0.0000000  0  8G17G30G26G22G21G10G23G 6
  20915433.398   -25275878.00349 -19460772.35247  20915432.807    20915443.304
       244.000         212.000
  24468831.059     5088227.13649   3994969.88245  24468832.100    24468853.873
       209.000         142.000
  21777846.028   -17837389.56149 -13881311.45546  21777846.670    21777857.202
       230.000         187.000
  23623768.159    -1668836.89449  -1296868.40446  23623767.376    23623783.831
       220.000         167.000
  24640493.144    -2797056.24149  -2158977.31845  24640491.493    24640512.316
       210.000         149.000
  24656932.432     1184907.59649    949943.93145  24656931.991    24656946.632
       208.000         140.000
  21436634.438   -14510175.98349 -11267645.08747  21436633.867    21436645.865
       240.000         205.000
  20532840.688   -19553739.48549 -15226963.14547  20532840.910    20532850.439
       243.000         211.000
 00  3 14  2  4 30.0000000  0  8G17G30G26G22G21G10G23G 6
  20911702.462   -25295482.97949 -19476048.90547  20911701.620    20911712.218
       243.000         212.000
  24488057.579     5189261.97349   4073698.08145  24488059.109    24488077.525
       211.000         147.000
  21775025.688   -17852210.37749 -13892860.06846  21775025.833    21775036.497
       230.000         187.000
  23621823.086    -1679057.98449  -1304832.82246  23621822.113    23621838.470
       220.000         167.000
  24623536.556    -2886162.04549  -2228409.99045  24623535.531    24623555.786
       214.000         148.000
  24676637.954     1288460.36349   1030634.41945  24676638.129    24676651.540
       209.000         141.000
  21426504.616   -14563407.92349 -11309124.40247  21426504.090    21426515.689
       240.000         205.000
  20540476.856   -19513611.36349 -15195694.48247  20540476.954    20540486.815
       242.000         211.000
 00  3 14  2  5  0.0000000  0  8G17G30G26G22G21G10G23G 6
  20908005.642   -25314908.73649 -19491185.80347  20908005.089    20908015.768
       244.000         212.000
  24507271.549     5290230.32549   4152374.44145  24507273.228    24507292.203
       212.000         151.000
  21772322.952   -17866412.65549 -13903926.68746  21772322.815    21772334.173
       230.000         187.000
  23619975.498    -1688766.64149  -1312397.92146  23619974.432    23619990.828
       221.000         168.000
  24606606.630    -2975128.14449  -2297733.83345  24606604.302    24606624.188
       202.000         146.000
  24696345.106     1392021.97949   1111331.82645  24696344.207    24696358.922
       205.000         139.000
  21416447.932   -14616255.62249 -11350304.31947  21416447.672    21416459.351
       240.000         206.000
  20548206.652   -19472990.94949 -15164042.22647  20548206.772    20548216.643
       242.000         211.000
 00  3 14  2  5 30.0000000  0  8G17G30G26G22G21G10G23G 6
  20904345.710   -25334141.83449 -19506172.59948  20904345.763    20904355.687
       245.000         213.000
  24526472.948     5391133.33549   4230999.97945  24526474.695    24526494.756
       215.000         150.000
  21769736.198   -17880005.80449 -13914518.66346  21769735.995    21769747.521
       231.000         187.000
  23618224.932    -1697965.32549  -1319565.65446  23618223.974    23618240.562
       220.000         169.000
  24589700.964    -3063965.13849  -2366956.95645  24589700.325    24589718.769
       211.000         143.000
  24716055.359     1495601.21549   1192042.93145  24716054.631    24716070.331
       207.000         138.000
  21406464.463   -14668718.82449 -11391184.60647  21406463.893    21406475.736
       240.000         206.000
  20556032.116   -19431868.06749 -15131998.42947  20556032.435    20556042.059
       243.000         211.000
 00  3 14  2  6  0.0000000  0  8G17G30G26G22G21G10G23G 6
  20900724.548   -25353171.72149 -19521001.02848  20900723.700    20900734.934
       244.000         213.000
  24545661.775     5491969.15949   4309573.11145  24545661.172    24545682.051
       206.000         148.000
  21767266.637   -17892982.81749 -13924630.53346  21767267.055    21767277.930
       231.000         187.000
  23616570.216    -1706660.78249  -1326341.26146  23616568.850    23616585.537
       221.000         170.000
  24572822.992    -3152658.26649  -2436068.12045  24572822.729    24572841.082
       210.000         146.000
  24735770.973     1599207.93449   1272775.45845  24735771.442    24735785.840
       207.000         140.000
  21396553.958   -14720798.44349 -11431766.02047  21396553.564    21396565.254
       240.000         206.000
  20563954.834   -19390233.71149 -15099556.07247  20563954.720    20563964.837
       241.000         210.000
 00  3 14  2  6 30.0000000  0  7G17G30G26G22G21G23G 6
  20897141.945   -25371998.30649 -19535671.04248  20897141.420    20897151.715
       245.000         213.000
  24564839.276     5592747.42449   4388101.41645  24564839.735    24564858.667
       201.000         142.000
  21764916.121   -17905334.72449 -13934255.30546  21764915.872    21764927.228
       230.000         187.000
  23615009.142    -1714863.71149  -1332733.07746  23615008.130    23615024.485
       221.000         172.000
  24555974.030    -3241198.48849  -2505060.12645  24555971.754    24555992.037
       208.000         143.000
  21386715.910   -14772497.31949 -11472050.74547  21386715.275    21386726.513
       240.000         206.000
  20571972.429   -19348100.77449 -15066725.21047  20571972.670    20571982.347
       242.000         210.000
 00  3 14  2  7  0.0000000  0  7G17G30G26G22G21G23G 6
  20893598.146   -25390620.93249 -19550182.12348  20893597.244    20893608.547
       244.000         213.000
  24584006.265     5693470.78949   4466586.91245  24584008.615    24584025.578
       210.000         140.000
  21762683.976   -17917064.07149 -13943394.96846  21762684.397    21762695.348
       230.000         187.000
  23613542.968    -1722568.13049  -1338736.45146  23613542.535    23613558.378
       222.000         172.000
  24539156.128    -3329574.86049  -2573924.43345  24539154.987    24539174.953
       211.000         144.000
  21376951.879   -14823807.20849 -11512032.35347  21376951.185    21376963.107
       240.000         207.000
  20580085.237   -19305467.81849 -15033504.73147  20580085.263    20580095.275
       242.000         211.000
 00  3 14  2  7 30.0000000  0  7G17G30G26G22G21G23G 6
  20890093.267   -25409038.81749 -19564533.68948  20890093.269    20890102.734
       245.000         213.000
  24603161.923     5794132.65649   4545024.53945  24603163.344    24603184.614
       210.000         145.000
  21760565.948   -17928194.06749 -13952067.60346  21760566.034    21760577.465
       230.000         187.000
  23612175.481    -1729754.44849  -1344336.11446  23612174.672    23612190.243
       222.000         172.000
  24522373.917    -3417764.00649  -2642642.87845  24522372.695    24522391.947
       208.000         147.000
  21367262.598   -14874724.59949 -11551708.14047  21367262.042    21367273.268
       241.000         207.000
  20588292.996   -19262335.71749 -14999895.30247  20588292.921    20588302.793
       241.000         210.000
 00  3 14  2  8  0.0000000  0  7G17G30G26G22G21G23G 6
  20886624.123   -25427268.72449 -19578738.74348  20886623.022    20886633.905
       244.000         213.000
  24622305.519     5894731.76649   4623413.20645  24622306.472    24622324.816
       206.000         145.000
  21758562.736   -17938720.95849 -13960270.27547  21758562.641    21758573.913
       231.000         188.000
  23610907.531    -1736417.43649  -1349527.99746  23610906.550    23610923.096
       220.000         172.000
  24505630.652    -3505748.78649  -2711202.09745  24505628.836    24505648.361
       201.000         146.000
  21357647.270   -14925252.85749 -11591080.68447  21357646.649    21357657.917
       241.000         207.000
  20596593.637   -19218715.09849 -14965905.21347  20596593.605    20596603.465
       242.000         209.000
 00  3 14  2  8 30.0000000  0  7G17G30G26G22G21G23G 6
  20883187.602   -25445327.65049 -19592810.59748  20883187.340    20883197.941
       245.000         213.000
  24641435.381     5995258.87249   4701745.82145  24641436.798    24641455.703
       208.000         141.000
  21756672.643   -17948652.89049 -13968009.35346  21756672.959    21756684.043
       231.000         187.000
  23609738.252    -1742561.76849  -1354315.72046  23609736.849    23609753.543
       222.000         172.000
  24488922.245    -3593548.49249  -2779617.02245  24488920.383    24488941.394
       208.000         146.000
  21348107.159   -14975386.08849 -11630145.42347  21348106.833    21348117.964
       243.000         208.000
  20604985.297   -19174616.61249 -14931542.75447  20604985.006    20604995.222
       242.000         210.000
 00  3 14  2  9  0.0000000  0  7G17G30G26G22G21G23G 6
  20879782.077   -25463223.67749 -19606755.50448  20879782.028    20879791.843
       245.000         213.000
  24660547.788     6095693.31549   4780006.19545  24660548.478    24660568.401
       210.000         143.000
  21754896.259   -17957987.93349 -13975283.31646  21754896.269    21754907.353
       230.000         187.000
  23608670.316    -1748173.43049  -1358688.38846  23608669.468    23608685.504
       220.000         172.000
  24472248.860    -3681166.00249  -2847890.07245  24472248.115    24472267.371
       207.000         148.000
  21338643.363   -15025118.58449 -11668897.89747  21338642.925    21338654.196
       242.000         208.000
  20613469.339   -19130032.51949 -14896801.91747  20613469.582    20613479.374
       242.000         209.000
 00  3 14  2  9 30.0000000  0  7G17G30G26G22G21G23G 6
  20876406.780   -25480961.92949 -19620577.46648  20876406.125    20876417.207
       244.000         214.000
  24679640.599     6196026.40349   4858187.59845  24679641.390    24679660.279
       211.000         145.000
  21753234.772   -17966718.75649 -13982086.47146  21753235.269    21753245.462
       230.000         187.000
  23607705.291    -1753244.55849  -1362639.86346  23607704.856    23607720.252
       219.000         171.000
  24455607.948    -3768612.72149  -2916030.03745  24455606.786    24455625.924
       208.000         148.000
  21329258.141   -15074437.73249 -11707328.29547  21329257.592    21329268.794
       242.000         208.000
  20622043.497   -19084974.96049 -14861692.14347  20622043.496    20622053.944
       240.000         209.000
 00  3 14  2 10  0.0000000  0  7G17G30G26G22G21G23G 6
  20873060.154   -25498547.65749 -19634280.56048  20873059.122    20873070.173
       244.000         213.000
  24698711.977     6296247.60049   4936281.82145  24698711.308    24698733.985
       208.000         145.000
  21751692.302   -17974824.37249 -13988402.44146  21751692.447    21751702.927
       230.000         187.000
  23606838.697    -1757798.00449  -1366187.95146  23606837.496    23606854.012
       218.000         169.000
  24438996.922    -3855903.63949  -2984048.57745  24438996.395    24439015.338
       211.000         151.000
  21319954.669   -15123327.55249 -11745424.14247  21319953.893    21319965.576
       241.000         209.000
  20630706.818   -19039449.15049 -14826217.49047  20630706.839    20630716.725
       242.000         209.000
 00  3 14  2 10 30.0000000  0  7G17G30G26G22G21G23G 6
  20869746.177   -25515962.03149 -19647850.15547  20869745.786    20869755.629
       244.000         212.000
  24717762.991     6396360.03949   5014291.27945  24717764.798    24717783.187
       211.000         145.000
  21750269.706   -17982299.90049 -13994227.44447  21750269.901    21750280.347
       231.000         188.000
  23606071.090    -1761831.54649  -1369330.91646  23606070.418    23606086.478
       218.000         168.000
  24422414.894    -3943042.39349  -3051948.61345  24422414.484    24422432.434
       212.000         151.000
  21310733.897   -15171782.52149 -11783181.14547  21310733.356    21310744.435
       242.000         208.000
  20639459.532   -18993453.10649 -14790376.42547  20639459.549    20639469.738
       241.000         209.000
 00  3 14  2 11  0.0000000  0  7G17G30G26G22G21G23G 6
  20866464.526   -25533207.09549 -19661287.81047  20866463.628    20866474.298
       243.000         212.000
  24736793.453     6496364.22949   5092216.37845  24736794.723    24736816.122
       206.000         145.000
  21748968.285   -17989138.58349 -13999556.20846  21748968.622    21748979.186
       231.000         187.000
  23605403.298    -1765340.07749  -1372064.77946  23605403.319    23605419.145
       216.000         167.000
  24405864.004    -4030016.76449  -3119720.51845  24405862.283    24405881.625
       210.000         151.000
  21301593.057   -15219817.62749 -11820610.99547  21301592.384    21301603.941
       241.000         209.000
  20648301.199   -18946989.84049 -14754171.28747  20648301.418    20648311.261
       241.000         208.000
 00  3 14  2 11 30.0000000  0  7G17G30G26G22G21G23G 6
  20863215.047   -25550282.68849 -19674593.42048  20863215.137    20863225.406
       245.000         213.000
  24755804.812     6596269.69049   5170064.61645  24755803.814    24755826.143
       202.000         141.000
  21747786.089   -17995350.96149 -14004396.93247  21747786.151    21747796.537
       232.000         188.000
  23604833.020    -1768336.66849  -1374399.72646  23604832.335    23604848.952
       215.000         166.000
  24389343.713    -4116829.06749  -3187366.08745  24389342.669    24389361.866
       211.000         150.000
  21292528.794   -15267450.20449 -11857727.17347  21292528.279    21292539.355
       242.000         209.000
  20657231.390   -18900061.30649 -14717603.60847  20657231.396    20657241.358
       241.000         208.000
 00  3 14  2 12  0.0000000  0  7G17G30G26G22G21G23G 6
  20859998.639   -25567185.48849 -19687764.38848  20859997.944    20860008.521
       244.000         213.000
  24774796.724     6696072.10349   5247832.57345  24774798.514    24774818.657
       210.000         143.000
  21746720.804   -18000948.75649 -14008758.77046  21746721.048    21746731.361
       232.000         187.000
  23604359.169    -1770826.79349  -1376340.01746  23604358.782    23604374.566
       217.000         165.000
  24372855.346    -4203475.17949  -3254882.27545  24372854.414    24372872.267
       209.000         147.000
  21283536.006   -15314707.37449 -11894550.83447  21283535.435    21283546.635
       242.000         209.000
  20666253.984   -18852647.28149 -14680657.61647  20666254.160    20666264.128
       241.000         208.000
 00  3 14  2 12 30.0000000  0  7G17G30G26G22G21G23G 6
  20856815.369   -25583913.75549 -19700799.35248  20856815.107    20856825.227
       245.000         213.000
  24793771.159     6795782.57449   5325528.73345  24793773.698    24793791.597
       212.000         143.000
  21745769.419   -18005947.81849 -14012654.05246  21745769.387    21745780.047
       230.000         187.000
  23603984.273    -1772796.39149  -1377874.71746  23603983.442    23603999.995
       215.000         164.000
  24356398.639    -4289954.15449  -3322268.13845  24356398.236    24356416.267
       211.000         147.000
  21274611.352   -15361606.38049 -11931095.41947  21274610.823    21274621.909
       243.000         208.000
  20675370.464   -18804739.97849 -14643327.26547  20675370.639    20675380.579
       241.000         208.000
 00  3 14  2 13  0.0000000  0  7G17G30G26G22G21G23G 6
  20853664.317   -25600472.21149 -19713701.96748  20853663.869    20853674.694
       246.000         214.000
  24812725.591     6895387.84649   5403142.96845  24812725.408    24812745.953
       201.000         139.000
  21744929.861   -18010359.06249 -14016091.30247  21744930.058    21744940.135
       231.000         188.000
  23603708.202    -1774247.12549  -1379005.10745  23603708.053    23603723.921
       212.000         162.000
  24339973.943    -4376265.06949  -3389523.08445  24339972.518    24339990.112
       205.000         146.000
  21265757.029   -15408135.65149 -11967351.88247  21265756.393    21265767.452
       242.000         209.000
  20684582.839   -18756329.04349 -14605604.46447  20684583.081    20684593.055
       242.000         209.000
 00  3 14  2 13 30.0000000  0  6G17G26G22G21G23G 6
  20850548.252   -25616847.23449 -19726461.68948  20850547.796    20850558.174
       245.000         214.000
  21744201.163   -18014188.13149 -14019074.90246  21744201.083    21744211.899
       230.000         187.000
  23603528.761    -1775189.64749  -1379739.50945  23603527.848    23603544.154
       213.000         160.000
  24323580.215    -4462413.33749  -3456651.27445  24323579.626    24323597.872
       211.000         148.000
  21256973.484   -15454292.92849 -12003318.49247  21256972.774    21256983.594
       241.000         209.000
  20693891.099   -18707413.91249 -14567488.78147  20693891.427    20693901.096
       241.000         208.000
 00  3 14  2 14  0.0000000  0  6G17G26G22G21G23G 6
  20847474.332   -25633000.33749 -19739048.46048  20847473.784    20847484.155
       245.000         214.000
  21743588.911   -18017405.38549 -14021581.78446  21743589.176    21743599.452
       230.000         187.000
  23603451.290    -1775596.54549  -1380056.52445  23603450.921    23603467.025
       212.000         158.000
  24307223.519    -4548366.74649  -3523627.61245  24307222.170    24307240.314
       215.000         147.000
  21248267.161   -15500044.19449 -12038968.73747  21248266.711    21248277.562
       242.000         209.000
  20703297.507   -18657983.20249 -14528971.34947  20703297.655    20703307.596
       241.000         208.000
 00  3 14  2 14 30.0000000  0  6G17G26G22G21G23G 6
  20844442.620   -25648932.67049 -19751463.21348  20844442.073    20844452.028
       245.000         214.000
  21743096.969   -18019990.19249 -14023595.84946  21743097.517    21743106.992
       231.000         186.000
  23603474.333    -1775475.11649  -1379961.88445  23603474.095    23603489.296
       215.000         158.000
  24290905.571    -4634117.36649  -3590445.98245  24290904.437    24290922.165
       214.000         149.000
  21239641.079   -15545374.19849 -12074290.71647  21239640.573    21239651.652
       241.000         210.000
  20712798.159   -18608056.73949 -14490067.62547  20712798.258    20712807.941
       241.000         208.000
 00  3 14  2 15  0.0000000  0  6G17G26G22G21G23G 6
  20841451.344   -25664650.75449 -19763711.00448  20841450.354    20841460.802
       244.000         213.000
  21742728.184   -18021928.22949 -14025105.94546  21742727.693    21742738.970
       230.000         187.000
  23603593.941    -1774846.97849  -1379472.36945  23603593.532    23603609.559
       214.000         157.000
  24274625.429    -4719668.80749  -3657109.12445  24274624.387    24274642.373
       215.000         150.000
  21231094.266   -15590287.28349 -12109287.82547  21231093.820    21231104.266
       242.000         210.000
  20722389.966   -18557651.99649 -14450791.20447  20722390.028    20722400.183
       241.000         209.000
 00  3 14  2 15 30.0000000  0  6G17G26G22G21G23G 6
  20838498.035   -25680169.40149 -19775803.40948  20838497.398    20838508.053
       244.000         213.000
  21742483.666   -18023212.21949 -14026106.39146  21742483.392    21742494.397
       231.000         187.000
  23603807.505    -1773724.28449  -1378597.51145  23603807.494    23603822.884
       218.000         158.000
  24258382.368    -4805025.79849  -3723620.76345  24258381.062    24258399.569
       216.000         153.000
  21222622.609   -15634805.49149 -12143977.25047  21222622.104    21222632.910
       242.000         210.000
  20732069.634   -18506784.99149 -14411154.58847  20732069.697    20732079.401
       241.000         208.000
 00  3 14  2 16  0.0000000  0  6G17G26G22G21G23G 6
  20835577.178   -25695518.37349 -19787763.58548  20835576.760    20835587.632
       244.000         214.000
  21742361.440   -18023854.08949 -14026606.48246  21742361.526    21742371.620
       231.000         187.000
  23604111.881    -1772124.45449  -1377350.85945  23604111.244    23604127.554
       220.000         160.000
  24242173.874    -4890200.96749  -3789990.70045  24242173.353    24242191.424
       216.000         156.000
  21214223.760   -15678940.96749 -12178368.42247  21214223.449    21214234.390
       242.000         210.000
  20741835.284   -18455465.84349 -14371165.65047  20741835.286    20741845.410
       242.000         208.000
 00  3 14  2 16 30.0000000  0  6G17G26G22G21G23G 6
  20832683.743   -25710723.99149 -19799612.06248  20832683.523    20832694.205
       245.000         214.000
  21742359.735   -18023862.94149 -14026613.32846  21742360.357    21742370.284
       230.000         187.000
  23604505.179    -1770057.78249  -1375740.43345  23604504.452    23604519.703
       221.000         161.000
  24225997.057    -4975210.03349  -3856231.19745  24225995.532    24226014.152
       212.000         154.000
  21205896.151   -15722702.64049 -12212468.34447  21205895.754    21205906.298
       242.000         210.000
  20751688.562   -18403686.60849 -14330818.19547  20751688.295    20751698.523
       241.000         208.000
 00  3 14  2 17  0.0000000  0  6G17G26G22G21G23G 6
  20829818.219   -25725782.24149 -19811345.70548  20829817.447    20829827.880
       243.000         214.000
  21742475.596   -18023253.86949 -14026138.66246  21742475.088    21742486.185
       230.000         187.000
  23604989.199    -1767514.19249  -1373758.39845  23604988.736    23605004.848
       220.000         161.000
  24209849.475    -5060064.37349  -3922351.16445  24209847.751    24209866.646
       211.000         153.000
  21197638.412   -15766096.96949 -12246282.00447  21197638.001    21197648.632
       242.000         210.000
  20761631.809   -18351434.33349 -14290102.13947  20761631.452    20761641.889
       241.000         208.000
 00  3 14  2 17 30.0000000  0  6G17G26G22G21G23G 6
  20826981.271   -25740690.01649 -19822962.10048  20826981.021    20826991.113
       245.000         214.000
  21742706.513   -18022040.33749 -14025192.99346  21742706.318    21742716.708
       231.000         187.000
  23605568.035    -1764472.72549  -1371388.39745  23605567.006    23605582.653
       218.000         161.000
  24193731.956    -5144760.80649  -3988348.04145  24193731.388    24193749.751
       216.000         154.000
  21189451.782   -15809117.69949 -12279804.54947  21189451.208    21189462.112
       242.000         210.000
  20771666.304   -18298702.06749 -14249012.07247  20771666.554    20771676.900
       241.000         207.000
 00  3 14  2 18  0.0000000  0  6G17G26G22G21G23G 6
  20824178.577   -25755418.29449 -19834438.61948  20824178.291    20824188.450
       245.000         214.000
  21743051.054   -18020229.42949 -14023781.82547  21743051.469    21743061.744
       232.000         188.000
  23606244.871    -1760915.63649  -1368616.62645  23606244.597    23606260.755
       219.000         161.000
  24177645.992    -5229291.78449  -4054216.01145  24177644.885    24177662.587
       214.000         155.000
  21181340.057   -15851744.90249 -12313020.45747  21181339.544    21181350.025
       242.000         210.000
  20781792.036   -18245491.10849 -14207548.99847  20781791.925    20781801.942
       240.000         207.000
 00  3 14  2 18 30.0000000  0  6G17G26G22G21G23G 6
  20821414.279   -25769944.29249 -19845757.52548  20821413.845    20821424.298
       245.000         214.000
  21743510.715   -18017813.82949 -14021899.48447  21743510.781    21743521.181
       232.000         188.000
  23607024.515    -1756818.63449  -1365424.14245  23607023.638    23607039.013
       217.000         161.000
  24161593.018    -5313648.70249  -4119948.39345  24161591.238    24161608.873
       214.000         153.000
  21173307.038   -15893958.42849 -12345914.01447  21173306.455    21173317.937
       242.000         211.000
  20792007.971   -18191806.03049 -14165716.48247  20792008.192    20792018.448
       240.000         207.000
 00  3 14  2 19  0.0000000  0  6G17G26G22G21G23G 6
  20818692.553   -25784246.91849 -19856902.37748  20818691.909    20818702.527
       244.000         214.000
  21744087.452   -18014782.87949 -14019537.64847  21744087.671    21744097.797
       233.000         188.000
  23607907.714    -1752177.61949  -1361807.74745  23607906.826    23607923.377
       218.000         161.000
  24145575.829    -5397818.61949  -4185535.01345  24145575.846    24145592.493
       219.000         155.000
  21165355.137   -15935745.62249 -12378475.36247  21165354.700    21165365.363
       243.000         211.000
  20802313.812   -18137648.60349 -14123515.90047  20802313.798    20802323.462
       241.000         206.000
 00  3 14  2 19 30.0000000  0  6G17G26G22G21G23G 6
  20816016.064   -25798312.23849 -19867862.32448  20816015.362    20816025.600
       244.000         214.000
  21744782.808   -18011128.77849 -14016690.25347  21744782.890    21744792.906
       232.000         189.000
  23608892.606    -1747001.37349  -1357774.29845  23608892.844    23608907.872
       220.000         162.000
  24129598.506    -5481779.27549  -4250958.58845  24129596.758    24129615.722
       214.000         155.000
  21157486.611   -15977094.86349 -12410695.45947  21157485.927    21157496.516
       243.000         210.000
  20812708.557   -18083023.54749 -14080950.93247  20812708.742    20812719.095
       240.000         206.000
 00  3 14  2 20  0.0000000  0  6G17G26G22G21G23G 6
  20813386.630   -25812128.72349 -19878628.37448  20813386.153    20813396.433
       244.000         214.000
  21745600.532   -18006831.66149 -14013341.79047  21745600.844    21745610.982
       231.000         189.000
  23609978.459    -1741295.61649  -1353328.23645  23609976.773    23609993.497
       218.000         162.000
  24113662.065    -5565524.68149  -4316214.44845  24113661.559    24113678.421
       214.000         152.000
  21149702.416   -16018000.58949 -12442569.94947  21149701.816    21149712.961
       243.000         211.000
  20823193.199   -18027926.70349 -14038018.33247  20823193.113    20823202.985
       240.000         206.000
 00  3 14  2 20 30.0000000  0  6G17G26G22G21G23G 6
  20810799.714   -25825723.05049 -19889221.31648  20810799.813    20810809.917
       245.000         214.000
  21746543.716   -18001875.01249 -14009479.41347  21746544.351    21746554.481
       232.000         189.000
  23611162.389    -1735073.83849  -1348480.06746  23611162.662    23611177.318
       218.000         163.000
  24097765.276    -5649061.49749  -4381307.74645  24097764.345    24097782.277
       215.000         154.000
  21141998.626   -16058483.67749 -12474115.11747  21141998.109    21142008.997
       243.000         211.000
  20833770.302   -17972343.53049 -13994706.77447  20833770.421    20833780.452
       241.000         206.000
 00  3 14  2 21  0.0000000  0  6G17G26G22G21G23G 6
  20808250.187   -25839121.88349 -19899661.92048  20808249.569    20808260.053
       245.000         214.000
  21747610.530   -17996268.86049 -14005110.93947  21747610.712    21747621.062
       231.000         189.000
  23612441.428    -1728352.25149  -1343242.43446  23612440.408    23612456.682
       219.000         164.000
  24081908.291    -5732389.33249  -4446238.19745  24081906.013    24081924.081
       217.000         154.000
  21134369.844   -16098572.72549 -12505353.24947  21134369.411    21134380.213
       243.000         211.000
  20844440.144   -17916273.02549 -13951015.48447  20844440.094    20844450.347
       240.000         205.000
 00  3 14  2 21 30.0000000  0  6G17G26G22G21G23G 6
  20805733.094   -25852349.16849 -19909968.86448  20805732.271    20805742.740
       244.000         214.000
  21748797.894   -17990028.72349 -14000248.44547  21748797.980    21748808.077
       231.000         189.000
  23613814.686    -1721135.54949  -1337618.99846  23613813.907    23613829.696
       221.000         165.000
  24066088.299    -5815522.86649  -4511017.26545  24066086.145    24066104.632
       217.000         155.000
  21126813.333   -16138282.24149 -12536295.62947  21126812.782    21126823.566
       243.000         212.000
  20855199.278   -17859733.44049 -13906958.66147  20855199.136    20855209.327
       240.000         205.000
 00  3 14  2 22  0.0000000  0  6G17G26G22G21G23G 6
  20803242.947   -25865434.05449 -19920164.84548  20803242.495    20803252.609
       245.000         214.000
  21750102.497   -17983172.46849 -13994905.87547  21750102.767    21750112.986
       231.000         188.000
  23615281.670    -1713425.65749  -1331611.27046  23615281.631    23615297.084
       221.000         166.000
  24050302.280    -5898477.50449  -4575656.94445  24050301.383    24050318.325
       213.000         153.000
  21119327.158   -16177621.54949 -12566949.54747  21119326.604    21119337.270
       243.000         211.000
  20866048.302   -17802721.16149 -13862533.51847  20866048.415    20866058.628
       240.000         205.000
 00  3 14  2 22 30.0000000  0  6G17G26G22G21G23G 6
  20800777.319   -25878391.60149 -19930261.60748  20800776.702    20800787.524
       244.000         214.000
  21751520.698   -17975719.34349 -13989098.18147  21751520.815    21751531.048
       232.000         188.000
  23616840.563    -1705233.79049  -1325227.94846  23616839.892    23616855.632
       219.000         166.000
  24034551.614    -5981245.83049  -4640151.40045  24034550.437    24034568.021
       214.000         152.000
  21111910.745   -16216594.68249 -12597318.12547  21111910.219    21111920.995
       243.000         211.000
  20876986.411   -17745241.20049 -13817743.94947  20876986.403    20876996.424
       239.000         205.000
 00  3 14  2 23  0.0000000  0  6G17G26G22G21G23G 6
  20798338.133   -25891209.03149 -19940249.17448  20798337.650    20798347.955
       244.000         214.000
  21753051.646   -17967673.72149 -13982828.81947  21753051.946    21753062.254
       232.000         188.000
  23618491.266    -1696558.92249  -1318468.27046  23618490.459    23618506.442
       220.000         167.000
  24018836.821    -6063826.88349  -4704499.97445  24018835.856    24018853.145
       218.000         154.000
  21104568.175   -16255179.55749 -12627384.16847  21104567.612    21104578.877
       242.000         212.000
  20888009.724   -17687313.12949 -13772605.20647  20888009.982    20888019.984
       240.000         204.000
 00  3 14  2 23 30.0000000  0  6G17G26G22G21G23G 6
  20795929.338   -25903866.96449 -19950112.46648  20795928.818    20795939.265
       245.000         214.000
  21754697.965   -17959022.47349 -13976087.54146  21754697.986    21754708.536
       231.000         187.000
  23620233.757    -1687401.49549  -1311332.57646  23620232.613    23620248.931
       221.000         166.000
  24003157.123    -6146222.85149  -4768704.30945  24003156.381    24003173.327
       218.000         155.000
  21097301.178   -16293367.53749 -12657140.94647  21097300.853    21097311.234
       243.000         212.000
  20899119.662   -17628930.15649 -13727111.99647  20899119.661    20899129.850
       240.000         204.000
 00  3 14  2 24  0.0000000  0  6G17G26G22G21G23G 6
  20793553.649   -25916350.96749 -19959840.23148  20793552.993    20793563.165
       244.000         214.000
  21756461.684   -17949753.48149 -13968864.90147  21756462.085    21756471.931
       231.000         188.000
  23622069.323    -1677755.88149  -1303816.46946  23622068.782    23622085.142
       219.000         167.000
  23987514.336    -6228425.46549  -4832757.99445  23987514.140    23987530.545
       219.000         157.000
  21090108.764   -16331163.45449 -12686592.21747  21090108.592    21090119.034
       244.000         212.000
  20910318.578   -17570079.61349 -13681254.44547  20910318.828    20910328.788
       241.000         205.000
 00  3 14  2 24 30.0000000  0  6G17G26G22G21G23G 6
  20791211.912   -25928656.81949 -19969429.18548  20791212.243    20791221.635
       246.000         214.000
  21758345.191   -17939855.36349 -13961152.03647  21758345.171    21758355.372
       231.000         188.000
  23623996.690    -1667627.08649  -1295923.86846  23623996.268    23624012.453
       219.000         167.000
  23971906.636    -6310443.51749  -4896667.84745  23971906.494    23971922.102
       217.000         155.000
  21082989.276   -16368576.42549 -12715745.09148  21082988.881    21082999.518
       243.000         213.000
  20921603.190   -17510778.68749 -13635045.95647  20921603.555    20921613.798
       240.000         205.000
 00  3 14  2 25  0.0000000  0  6G17G26G22G21G23G 6
  20788905.935   -25940775.70449 -19978872.42348  20788905.130    20788915.544
       244.000         214.000
  21760348.331   -17929328.70849 -13952949.41347  21760348.384    21760358.257
       230.000         188.000
  23626016.303    -1657014.33549  -1287654.13546  23626015.430    23626031.274
       219.000         167.000
  23956332.269    -6392285.64449  -4960440.62445  23956331.347    23956348.113
       213.000         153.000
  21075940.381   -16405618.39549 -12744608.87947  21075939.950    21075950.229
       244.000         212.000
  20932973.372   -17451028.38549 -13588487.29447  20932973.184    20932983.354
       240.000         204.000
 00  3 14  2 25 30.0000000  0  6G17G26G22G21G23G 6
  20786634.160   -25952712.97649 -19988174.15648  20786633.573    20786644.447
       244.000         214.000
  21762468.640   -17918186.14849 -13944266.83847  21762468.487    21762479.344
       230.000         188.000
  23628127.187    -1645921.09649  -1279009.99946  23628126.868    23628142.062
       220.000         167.000
  23940792.898    -6473944.18549  -5024070.32945  23940792.504    23940808.437
       219.000         154.000
  21068959.320   -16442304.20549 -12773195.13848  21068958.953    21068969.313
       244.000         213.000
  20944429.153   -17390827.72049 -13541577.70747  20944429.483    20944439.530
       240.000         204.000
 00  3 14  2 26  0.0000000  0  6G17G26G22G21G23G 6
  20784397.790   -25964465.48349 -19997331.91348  20784397.211    20784407.222
       244.000         214.000
  21764704.198   -17906438.01449 -13935112.40747  21764704.159    21764714.831
       230.000         188.000
  23630329.166    -1634349.32149  -1269993.00546  23630329.054    23630344.658
       221.000         167.000
  23925288.015    -6555422.08849  -5087559.28245  23925286.519    23925303.747
       220.000         158.000
  21062049.149   -16478617.45949 -12801491.09248  21062048.677    21062058.957
       244.000         213.000
  20955968.113   -17330190.52049 -13494327.95347  20955968.435    20955977.970
       240.000         204.000
 00  3 14  2 26 30.0000000  0  6G17G26G22G21G23G 6
  20782200.182   -25976013.48349 -20006330.29848  20782199.283    20782209.479
       244.000         214.000
  21767056.519   -17894076.27249 -13925479.84047  21767057.260    21767067.367
       230.000         188.000
  23632621.620    -1622302.44949  -1260605.79446  23632620.967    23632636.835
       220.000         167.000
  23909819.744    -6636707.56949  -5150898.29345  23909818.667    23909834.470
       218.000         157.000
  21055215.681   -16514527.06349 -12829472.52048  21055215.388    21055225.475
       244.000         213.000
  20967590.874   -17269112.98849 -13446735.08247  20967590.999    20967600.811
       240.000         203.000
 00  3 14  2 27  0.0000000  0  6G17G26G22G21G23G 6
  20780045.195   -25987337.75349 -20015154.36848  20780044.884    20780054.620
       244.000         213.000
  21769528.079   -17881088.01149 -13915359.07347  21769528.359    21769538.323
       231.000         188.000
  23635007.096    -1609766.11049  -1250837.18546  23635007.135    23635022.259
       220.000         168.000
  23894392.435    -6717777.66649  -5214069.49245  23894391.227    23894407.556
       218.000         156.000
  21048462.888   -16550012.64649 -12857123.53848  21048462.323    21048472.568
       244.000         213.000
  20979300.117   -17207580.21449 -13398787.48447  20979300.233    20979310.052
       240.000         203.000
 00  3 14  2 27 30.0000000  0  6G17G26G22G21G23G 6
  20777933.042   -25998437.22849 -20023803.26148  20777932.307    20777943.110
       244.000         214.000
  21772120.144   -17867466.04149 -13904744.51347  21772120.365    21772131.056
       232.000         188.000
  23637488.309    -1596727.03049  -1240676.84246  23637488.247    23637503.231
       218.000         168.000
  23879006.599    -6798629.34449  -5277070.43945  23879004.619    23879022.329
       218.000         156.000
  21041793.860   -16585058.17049 -12884431.65548  21041793.320    21041803.558
       244.000         213.000
  20991098.053   -17145581.83049 -13350477.07347  20991098.115    20991107.791
       240.000         203.000
 00  3 14  2 28  0.0000000  0  6G17G26G22G21G23G 6
  20775866.831   -26009295.45349 -20032264.17048  20775866.407    20775876.166
       244.000         214.000
  21774835.010   -17853199.20849 -13893627.45047  21774834.895    21774845.661
       231.000         188.000
  23640067.553    -1583173.12049  -1230115.32046  23640067.362    23640082.565
       218.000         168.000
  23863662.124    -6879263.97149  -5339902.28845  23863660.522    23863677.359
       216.000         158.000
  21035210.202   -16619655.30849 -12911390.38948  21035209.398    21035220.055
       244.000         213.000
  21002988.034   -17083099.43749 -13301789.51447  21002988.094    21002998.054
       240.000         203.000
 00  3 14  2 28 30.0000000  0  6G17G26G22G21G23G 6
  20773841.302   -26019939.29549 -20040558.02748  20773840.619    20773850.947
       244.000         213.000
  21777675.250   -17838273.48649 -13881996.97347  21777675.549    21777685.426
       229.000         188.000
  23642743.308    -1569111.46449  -1219158.17646  23642743.040    23642758.699
       218.000         168.000
  23848361.363    -6959668.42549  -5402554.78045  23848360.554    23848376.541
       217.000         158.000
  21028708.581   -16653821.05049 -12938012.95648  21028707.918    21028718.630
       245.000         213.000
  21014971.788   -17020124.62249 -13252718.25147  21014971.878    21014981.765
       240.000         203.000
 00  3 14  2 29  0.0000000  0  6G17G26G22G21G23G 6
  20771850.414   -26030401.00149 -20048709.95648  20771849.818    20771859.889
       243.000         214.000
  21780638.201   -17822702.63249 -13869863.80647  21780638.877    21780648.501
       231.000         188.000
  23645512.988    -1554557.16949  -1207817.13346  23645511.503    23645527.271
       216.000         167.000
  23833102.788    -7039851.43849  -5465034.72145  23833102.466    23833117.226
       218.000         158.000
  21022283.982   -16687582.34449 -12964320.38648  21022283.126    21022293.583
       244.000         213.000
  21027047.953   -16956663.78349 -13203268.27547  21027048.147    21027057.994
       239.000         203.000
 00  3 14  2 29 30.0000000  0  6G17G26G22G21G23G 6
  20769891.944   -26040692.52549 -20056729.26948  20769891.543    20769901.280
       245.000         214.000
  21783721.222   -17806501.13049 -13857239.22247  21783721.463    21783731.773
       232.000         188.000
  23648372.534    -1539529.77249  -1196107.44846  23648372.333    23648387.886
       218.000         168.000
  23817881.259    -7119840.07749  -5527363.18645  23817879.725    23817896.008
       218.000         157.000
  21015933.529   -16720953.98949 -12990324.19048  21015933.162    21015943.403
       245.000         213.000
  21039213.942   -16892731.20349 -13153450.69747  21039214.055    21039223.714
       238.000         202.000
 00  3 14  2 30  0.0000000  0  6G17G26G22G21G23G 6
  20767965.973   -26050813.62249 -20064615.78748  20767965.017    20767975.656
       244.000         214.000
  21786926.232   -17789658.46849 -13844115.00847  21786926.395    21786936.537
       232.000         189.000
  23651319.529    -1524042.98549  -1184039.81046  23651319.352    23651334.702
       218.000         167.000
  23802697.204    -7199631.33249  -5589537.87145  23802696.706    23802712.509
       217.000         157.000
  21009658.905   -16753927.36749 -13016017.64948  21009658.236    21009668.732
       245.000         214.000
  21051465.660   -16828347.99949 -13103281.98847  21051465.734    21051475.888
       238.000         202.000
 00  3 14  2 30 30.0000000  0  6G17G26G22G21G23G 6
  20766071.861   -26060766.41649 -20072371.16048  20766071.288    20766081.366
       244.000         214.000
  21790251.675   -17772182.71449 -13830497.50547  21790252.022    21790262.646
       232.000         189.000
  23654353.000    -1508102.61249  -1171618.70446  23654351.723    23654368.167
       217.000         167.000
  23787551.732    -7279219.34149  -5651554.15745  23787549.692    23787565.487
       214.000         155.000
  21003460.602   -16786499.21749 -13041398.23848  21003459.847    21003470.308
       245.000         213.000
  21063800.909   -16763525.47349 -13052770.95947  21063800.694    21063810.983
       238.000         202.000
 00  3 14  2 31  0.0000000  0  6G17G26G22G21G23G 6
  20764218.849   -26070504.24949 -20079959.03148  20764218.361    20764228.241
       245.000         214.000
  21793695.045   -17754088.07349 -13816397.74547  21793695.169    21793704.892
       231.000         189.000
  23657478.374    -1491678.46549  -1158820.67246  23657478.798    23657492.860
       216.000         166.000
  23772442.199    -7358618.75149  -5713423.48945  23772441.471    23772456.219
       218.000         156.000
  20997339.622   -16818664.54549 -13066462.05848  20997339.105    20997349.577
       244.000         213.000
  21076220.182   -16698261.54449 -13001915.98447  21076220.286    21076230.549
       238.000         202.000
 00  3 14  2 31 30.0000000  0  6G17G26G22G21G23G 6
  20762412.208   -26079998.03649 -20087356.72348  20762411.931    20762421.613
       245.000         214.000
  21797257.706   -17735366.33549 -13801809.33147  21797257.932    21797267.961
       233.000         189.000
  23660700.312    -1474747.26849  -1145627.52546  23660699.768    23660715.541
       214.000         164.000
  23757370.414    -7437820.66549  -5775138.97945  23757370.365    23757384.942
       219.000         157.000
  20991298.987   -16850407.94049 -13091197.08348  20991298.377    20991308.586
       245.000         213.000
  21088724.370   -16632551.71049 -12950713.54447  21088724.480    21088734.867
       238.000         201.000
 00  3 14  2 32  0.0000000  0  6G17G26G22G21G23G 6
  20760653.241   -26089241.52049 -20094559.39048  20760652.689    20760662.943
       245.000         215.000
  21800940.553   -17716012.84049 -13786728.64147  21800941.063    21800951.141
       231.000         189.000
  23664018.996    -1457307.75549  -1132038.27945  23664018.441    23664034.022
       213.000         162.000
  23742341.657    -7516795.96449  -5836677.84645  23742340.150    23742356.393
       217.000         159.000
  20985338.512   -16881730.25549 -13115604.00848  20985337.693    20985348.001
       245.000         213.000
  21101316.823   -16566378.19949 -12899149.79547  21101316.842    21101326.984
       237.000         201.000
 00  3 14  2 32 30.0000000  0  6G17G26G22G21G23G 6
  20758941.110   -26098238.62949 -20101570.06948  20758940.545    20758950.899
       245.000         215.000
  21804741.796   -17696037.56049 -13771163.44847  21804742.401    21804751.911
       231.000         189.000
  23667435.275    -1439354.68649  -1118048.86445  23667434.906    23667450.331
       212.000         161.000
  23727355.040    -7595550.24849  -5898044.51445  23727353.135    23727370.338
       216.000         160.000
  20979452.359   -16912661.83949 -13139706.46248  20979451.478    20979461.818
       245.000         214.000
  21113999.707   -16499729.11749 -12847215.46847  21113999.892    21114009.764
       238.000         201.000
 00  3 14  2 33  0.0000000  0  6G17G26G22G21G23G 6
  20757271.347   -26107013.40549 -20108407.50948  20757270.191    20757280.334
       244.000         214.000
  21808661.281   -17675440.02949 -13755113.39547  21808661.798    21808671.179
       232.000         189.000
  23670947.913    -1420896.11349  -1103665.53745  23670945.835    23670962.906
       207.000         160.000
  23712407.891    -7674096.60049  -5959249.15545  23712406.952    23712421.254
       218.000         158.000
  20973637.066   -16943220.82749 -13163518.58448  20973636.584    20973646.791
       246.000         214.000
  21126770.447   -16432618.59849 -12794921.58247  21126770.571    21126780.778
       237.000         201.000
 00  3 14  2 33 30.0000000  0  6G17G26G22G21G23G 6
  20755634.460   -26115614.04049 -20115109.25348  20755634.403    20755644.223
       245.000         214.000
  21812698.970   -17654221.66849 -13738579.55347  21812699.432    21812708.697
       231.000         189.000
  23674549.250    -1401970.52749  -1088918.30545  23674547.842    23674565.134
       211.000         160.000
  23697500.787    -7752433.16949  -6020290.33745  23697499.383    23697515.532
       219.000         160.000
  20967889.532   -16973424.13449 -13187053.55448  20967889.262    20967899.018
       245.000         213.000
  21139624.754   -16365069.07349 -12742285.61947  21139624.652    21139635.248
       238.000         201.000
 00  3 14  2 34  0.0000000  0  6G17G26G22G21G23G 6
  20754026.016   -26124067.19649 -20121696.08048  20754025.537    20754034.966
       245.000         214.000
  21816852.035   -17632397.32549 -13721573.54147  21816851.948    21816862.369
       232.000         188.000
  23678236.219    -1382594.73049  -1073820.28845  23678235.918    23678250.801
       212.000         160.000
  23682629.775    -7830579.30649  -6081183.14145  23682628.507    23682643.545
       219.000         161.000
  20962206.225   -17003289.91949 -13210325.51648  20962205.857    20962215.938
       245.000         214.000
  21152557.910   -16297105.15049 -12689326.74947  21152558.269    21152568.254
       238.000         201.000
 00  3 14  2 34 30.0000000  0  6G17G26G22G21G23G 6
  20752442.347   -26132388.91349 -20128180.48448  20752441.764    20752451.465
       245.000         214.000
  21821117.998   -17609978.99249 -13704104.68047  21821118.414    21821128.278
       232.000         188.000
  23682009.825    -1362764.42549  -1058368.09845  23682008.507    23682025.213
       211.000         160.000
  23667791.503    -7908554.08849  -6141942.42945  23667789.410    23667805.563
       219.000         161.000
  20956588.573   -17032810.38549 -13233328.40448  20956588.256    20956598.234
       245.000         214.000
  21165564.554   -16228754.70149 -12636066.69247  21165564.615    21165574.776
       238.000         201.000
 00  3 14  2 35  0.0000000  0  6G17G26G22G21G23G 6
  20750884.973   -26140572.81149 -20134557.50448  20750883.832    20750894.268
       243.000         214.000
  21825497.604   -17586964.05049 -13686170.92147  21825497.632    21825507.707
       231.000         188.000
  23685865.871    -1342500.22849  -1042577.80845  23685865.576    23685881.303
       213.000         160.000
  23652986.948    -7986351.17349  -6202563.25145  23652986.798    23652999.877
       219.000         161.000
  20951039.363   -17061971.32749 -13256051.13948  20951038.948    20951049.278
       245.000         214.000
  21178643.935   -16160022.44649 -12582509.11947  21178644.170    21178654.431
       237.000         201.000
 00  3 14  2 35 30.0000000  0  6G17G26G22G21G23G 6
  20749358.110   -26148595.64449 -20140809.00548  20749357.559    20749368.464
       244.000         214.000
  21829991.488   -17563348.23549 -13667768.96547  21829991.641    21830001.343
       232.000         188.000
  23689803.924    -1321804.97049  -1026451.63045  23689803.590    23689819.386
       213.000         160.000
  23638218.363    -8063959.51849  -6263037.00046  23638217.553    23638232.725
       220.000         163.000
  20945561.767   -17090756.04049 -13278480.70948  20945561.140    20945571.702
       245.000         214.000
  21191797.570   -16090899.78749 -12528647.32647  21191797.924    21191807.851
       239.000         201.000
 00  3 14  2 36  0.0000000  0  6G17G26G22G21G23G 6
  20747868.511   -26156423.42149 -20146908.52148  20747867.470    20747877.731
       244.000         214.000
  21834599.791   -17539131.40949 -13648898.67347  21834599.451    21834609.842
       231.000         188.000
  23693827.645    -1300660.22549  -1009975.20145  23693827.315    23693842.023
       213.000         159.000
  23623488.336    -8141365.56349  -6323353.11746  23623487.040    23623502.149
       218.000         163.000
  20940160.414   -17119139.95349 -13300597.97048  20940159.959    20940170.109
       245.000         214.000
  21205030.132   -16021362.40149 -12474462.37447  21205030.313    21205040.343
       237.000         200.000
 00  3 14  2 36 30.0000000  0  6G17G26G22G21G23G 6
  20746420.387   -26164032.72849 -20152837.80748  20746420.162    20746429.908
       244.000         214.000
  21839325.408   -17514297.96049 -13629547.89847  21839325.200    21839335.448
       232.000         188.000
  23697935.606    -1279072.10849   -993153.29245  23697935.341    23697951.026
       213.000         159.000
  23608802.592    -8218538.61649  -6383487.69746  23608801.677    23608816.127
       221.000         164.000
  20934835.461   -17147122.37049 -13322402.37948  20934834.985    20934845.124
       245.000         214.000
  21218347.528   -15951379.24249 -12419930.06847  21218347.873    21218357.870
       238.000         200.000
 00  3 14  2 37  0.0000000  0  6G17G26G22G21G23G 6
  20745016.362   -26171411.56549 -20158587.49248  20745015.425    20745025.759
       243.000         214.000
  21844169.053   -17488844.29749 -13609713.85647  21844169.486    21844179.144
       230.000         188.000
  23702126.759    -1257047.44249   -975991.20145  23702126.319    23702142.383
       217.000         158.000
  23594163.093    -8295468.93049  -6443433.14246  23594162.661    23594177.251
       219.000         165.000
  20929584.063   -17174718.29449 -13343905.61948  20929583.461    20929593.645
       245.000         214.000
  21231752.046   -15880938.52349 -12365041.21647  21231752.014    21231762.392
       237.000         201.000
 00  3 14  2 37 30.0000000  0  6G17G26G22G21G23G 6
  20743653.288   -26178574.26849 -20164168.77348  20743652.868    20743662.681
       244.000         214.000
  21849129.155   -17462778.45149 -13589402.77346  21849128.833    21849139.296
       230.000         187.000
  23706404.230    -1234569.57849   -958475.96545  23706403.908    23706419.366
       215.000         159.000
  23579569.934    -8372155.25249  -6503188.43746  23579568.045    23579584.552
       220.000         166.000
  20924406.329   -17201927.25849 -13365107.33848  20924405.835    20924415.912
       245.000         214.000
  21245242.945   -15810043.27249 -12309798.19347  21245243.334    21245253.281
       238.000         200.000
 00  3 14  2 38  0.0000000  0  6G17G26G22G21G23G 6
  20742328.692   -26185535.41349 -20169592.99448  20742328.385    20742338.118
       244.000         215.000
  21854204.874   -17436105.13749 -13568618.33846  21854205.099    21854215.377
       231.000         187.000
  23710766.977    -1211642.98449   -940611.07845  23710767.147    23710781.764
       218.000         158.000
  23565022.245    -8448602.57449  -6562757.51746  23565021.575    23565035.920
       220.000         165.000
  20919298.915   -17228766.63749 -13386021.06748  20919298.391    20919308.423
       245.000         214.000
  21258819.012   -15738700.82149 -12254206.69547  21258819.406    21258829.359
       238.000         200.000
 00  3 14  2 38 30.0000000  0  6G17G26G22G21G23G 6
  20741036.803   -26192324.14349 -20174882.86248  20741035.890    20741046.031
       243.000         215.000
  21859397.318   -17408818.81249 -13547356.23747  21859397.444    21859406.867
       231.000         188.000
  23715212.781    -1188280.17349   -922406.28245  23715211.181    23715228.281
       220.000         159.000
  23550515.797    -8524833.05649  -6622157.62546  23550515.038    23550529.619
       220.000         164.000
  20914259.592   -17255247.90549 -13406655.75048  20914259.150    20914269.232
       245.000         214.000
  21272475.468   -15666936.10049 -12198286.15147  21272475.492    21272485.940
       237.000         200.000
 00  3 14  2 39  0.0000000  0  6G17G26G22G21G23G 6
  20739773.751   -26198960.54749 -20180054.04548  20739773.194    20739783.517
       243.000         214.000
  21864704.927   -17380927.03849 -13525622.35746  21864705.030    21864715.060
       230.000         187.000
  23719743.620    -1164470.78149   -903853.50845  23719742.604    23719758.014
       220.000         159.000
  23536045.371    -8600875.18849  -6681410.98646  23536044.236    23536058.333
       219.000         166.000
  20909291.835   -17281353.88049 -13426997.99948  20909291.499    20909301.203
       245.000         214.000
  21286208.662   -15594767.55449 -12142050.95047  21286208.385    21286218.871
       237.000         200.000
 00  3 14  2 39 30.0000000  0  6G17G26G22G21G23G 6
  20738541.324   -26205437.01849 -20185100.60448  20738541.257    20738551.013
       244.000         214.000
  21870128.630   -17352424.73649 -13503412.75746  21870128.935    21870138.561
       230.000         187.000
  23724359.248    -1140215.62049   -884953.39445  23724359.378    23724374.800
       219.000         159.000
  23521609.224    -8676736.21449  -6740523.22746  23521607.640    23521623.088
       218.000         165.000
  20904398.357   -17307068.76349 -13447035.50048  20904397.866    20904407.850
       245.000         214.000
  21300019.951   -15522188.54649 -12085495.91647  21300020.393    21300030.119
       237.000         199.000
 00  3 14  2 40  0.0000000  0  6G17G26G22G21G23G 6
  20737343.841   -26211730.00649 -20190004.18548  20737342.926    20737352.785
       243.000         214.000
  21875670.534   -17323301.82449 -13480719.55546  21875670.568    21875681.003
       230.000         187.000
  23729059.948    -1115513.65749   -865705.12145  23729059.344    23729075.129
       218.000         158.000
  23507208.459    -8752411.66749  -6799490.86246  23507208.308    23507222.311
       220.000         165.000
  20899581.075   -17332383.83849 -13466761.46348  20899580.472    20899590.289
       245.000         215.000
  21313911.481   -15449188.49449 -12028612.78347  21313911.606    21313921.259
       236.000         199.000
 00  3 14  2 40 30.0000000  0  6G17G26G22G21G23G 6
  20736183.959   -26217824.77449 -20194753.31548  20736183.629    20736193.664
       244.000         214.000
  21881330.376   -17293558.61849 -13457542.99946  21881330.560    21881340.792
       231.000         187.000
  23733849.474    -1090344.73549   -846092.99345  23733849.158    23733865.370
       217.000         159.000
  23492843.740    -8827897.98649  -6858311.13046  23492842.464    23492856.670
       217.000         165.000
  20894842.531   -17357284.68549 -13486164.65248  20894841.892    20894851.763
       245.000         214.000
  21327884.717   -15375758.86649 -11971394.91747  21327884.783    21327894.926
       237.000         199.000
 00  3 14  2 41  0.0000000  0  6G17G26G22G21G23G 6
  20735068.462   -26223686.81549 -20199321.10048  20735068.101    20735077.357
       244.000         214.000
  21887106.927   -17263202.68949 -13433889.02046  21887107.081    21887117.232
       230.000         187.000
  23738729.321    -1064701.12649   -826110.95745  23738728.640    23738745.058
       217.000         159.000
  23478519.203    -8903172.56649  -6916966.36846  23478517.720    23478532.703
       218.000         166.000
  20890184.196   -17381763.94349 -13505239.33148  20890183.897    20890193.624
       246.000         215.000
  21341940.465   -15301895.16149 -11913838.82547  21341940.912    21341950.830
       237.000         199.000
 00  3 14  2 41 30.0000000  0  6G17G26G22G21G23G 6
  20734002.044   -26229290.49649 -20203687.55848  20734001.290    20734011.116
       243.000         213.000
  21893001.343   -17232227.25549 -13409752.28546  21893002.170    21893011.342
       232.000         187.000
  23743699.764    -1038581.50049   -805758.00245  23743698.719    23743714.414
       217.000         159.000
  23464240.332    -8978207.25849  -6975434.72146  23464239.925    23464253.617
       222.000         167.000
  20885606.375   -17405820.22049 -13523984.41048  20885605.616    20885615.749
       245.000         215.000
  21356079.153   -15227596.25449 -11855943.59847  21356079.184    21356088.935
       237.000         198.000
 00  3 14  2 42  0.0000000  0  6G17G26G22G21G23G 6
  20732983.577   -26234642.10349 -20207857.58748  20732982.895    20732992.923
       244.000         213.000
  21899013.234   -17200634.60349 -13385134.60746  21899013.668    21899023.008
       231.000         187.000
  23748762.018    -1011979.17649   -785028.92745  23748761.824    23748776.477
       220.000         160.000
  23450009.695    -9052989.10849  -7033706.07246  23450007.937    23450022.798
       217.000         166.000
  20881108.731   -17429455.15649 -13542401.17648  20881108.429    20881118.105
       246.000         215.000
  21370298.809   -15152871.58049 -11797716.60147  21370298.700    21370309.130
       236.000         197.000
 00  3 14  2 42 30.0000000  0  6G17G26G22G21G23G 6
  20732013.230   -26239741.07749 -20211830.76748  20732012.736    20732022.574
       243.000         214.000
  21905142.443   -17168425.17449 -13360036.32746  21905142.925    21905152.391
       231.000         187.000
  23753914.945     -984900.26549   -763928.49645  23753914.807    23753930.877
       220.000         159.000
  23435826.237    -9127521.42149  -7091782.93546  23435825.626    23435840.084
       221.000         167.000
  20876691.190   -17452669.59949 -13560490.28648  20876690.598    20876700.848
       246.000         215.000
  21384598.536   -15077725.87849 -11739161.53947  21384598.291    21384608.513
       235.000         196.000
 00  3 14  2 43  0.0000000  0  6G17G26G22G21G23G 6
  20731091.512   -26244584.64849 -20215604.93248  20731091.324    20731100.809
       244.000         214.000
  21911391.142   -17135588.11249 -13334448.99446  21911391.439    21911401.055
       231.000         186.000
  23759154.030     -957368.63449   -742475.28645  23759153.500    23759166.828
       220.000         159.000
  23421691.007    -9201801.45149  -7149663.22646  23421691.101    23421704.174
       220.000         168.000
  20872352.979   -17475466.45749 -13578254.00448  20872352.811    20872362.211
       246.000         215.000
  21398978.004   -15002160.93849 -11680279.79447  21398978.076    21398988.606
       236.000         196.000
 00  3 14  2 43 30.0000000  0  6G17G26G22G21G23G 6
  20730214.447   -26249193.93349 -20219196.52148  20730213.952    20730223.501
       244.000         214.000
  21917759.558   -17102121.99449 -13308371.46246  21917759.241    21917769.490
       230.000         186.000
  23764478.195     -929389.97549   -720673.73945  23764476.555    23764492.645
       218.000         159.000
  23407602.210    -9275837.85949  -7207353.70046  23407601.305    23407615.612
       221.000         170.000
  20868089.917   -17497869.12849 -13595710.56848  20868088.983    20868098.797
       245.000         214.000
  21413441.622   -14926154.39949 -11621053.95247  21413441.563    21413452.118
       236.000         196.000
 00  3 14  2 44  0.0000000  0  6G17G26G22G21G23G 6
  20729377.955   -26253589.29649 -20222621.43548  20729377.411    20729387.338
       244.000         214.000
  21924245.245   -17068039.36149 -13281813.52946  21924245.760    21924255.428
       232.000         187.000
  23769884.425     -900980.16249   -698536.21845  23769883.672    23769900.055
       218.000         158.000
  23393554.970    -9349655.65949  -7264873.82946  23393554.559    23393568.312
       222.000         170.000
  20863898.390   -17519894.96349 -13612873.48548  20863898.004    20863907.799
       246.000         214.000
  21427989.005   -14849707.28349 -11561484.79647  21427989.052    21427999.342
       235.000         196.000
 00  3 14  2 44 30.0000000  0  6G17G26G22G21G23G 6
  20728581.070   -26257776.76849 -20225884.35248  20728580.712    20728590.178
       244.000         214.000
  21930847.169   -17033346.42049 -13254780.04446  21930847.100    21930856.774
       231.000         186.000
  23775370.746     -872149.47049   -676070.74645  23775370.054    23775384.985
       220.000         158.000
  23379548.333    -9423260.42949  -7322227.97146  23379547.026    23379560.655
       218.000         170.000
  20859776.427   -17541556.21349 -13629752.31948  20859775.948    20859785.804
       246.000         215.000
  21442619.353   -14772824.64049 -11501576.27747  21442619.523    21442629.333
       235.000         196.000
 00  3 14  2 45  0.0000000  0  6G17G26G22G21G23G 6
  20727820.428   -26261773.94049 -20228998.97848  20727819.719    20727829.581
       243.000         214.000
  21937562.247   -16998058.41149 -13227282.87946  21937562.751    21937572.343
       231.000         186.000
  23780935.806     -842904.64249   -653282.57645  23780935.851    23780950.389
       219.000         156.000
  23365583.311    -9496645.41449  -7379410.83046  23365583.323    23365596.849
       224.000         171.000
  20855720.650   -17562869.23549 -13646359.80248  20855719.966    20855729.911
       245.000         214.000
  21457330.392   -14695517.65349 -11441337.09647  21457330.669    21457340.481
       236.000         196.000
 00  3 14  2 45 30.0000000  0  6G17G26G22G21G23G 6
  20727092.206   -26265600.59449 -20231980.73548  20727091.763    20727101.775
       244.000         215.000
  21944385.379   -16962202.54949 -13199343.21446  21944385.578    21944395.200
       231.000         187.000
  23786581.496     -813236.34249   -630164.42245  23786580.763    23786596.716
       216.000         154.000
  23351659.341    -9569816.62749  -7436427.16346  23351659.103    23351672.662
       223.000         172.000
  20851730.124   -17583839.26749 -13662700.03248  20851729.818    20851739.346
       245.000         215.000
  21472120.356   -14617796.20449 -11380774.96247  21472120.600    21472130.514
       235.000         195.000
 00  3 14  2 46  0.0000000  0  6G17G26G22G21G23G 6
  20726399.146   -26269242.79249 -20234818.77148  20726398.823    20726408.218
       244.000         215.000
  21951317.131   -16925776.13549 -13170958.97046  21951317.469    21951327.113
       231.000         186.000
  23792307.224     -783147.65549   -606718.68845  23792306.079    23792320.946
       213.000         152.000
  23337776.018    -9642772.62949  -7493275.75746  23337776.044    23337788.650
       222.000         172.000
  20847807.892   -17604450.25449 -13678760.47548  20847807.483    20847817.128
       246.000         215.000
  21486982.454   -14539695.26049 -11319917.11447  21486982.422    21486993.103
       234.000         194.000
 00  3 14  2 46 30.0000000  0  6G17G26G22G21G23G 6
  20725743.088   -26272689.47649 -20237504.44148  20725742.577    20725752.325
       243.000         214.000
  21958359.158   -16888769.59749 -13142122.67546  21958359.564    21958369.195
       231.000         186.000
  23798112.824     -752638.88649   -582945.62745  23798110.961    23798128.453
       213.000         151.000
  23323936.288    -9715500.07449  -7549946.27746  23323935.076    23323949.468
       222.000         173.000
  20843952.873   -17624708.03849 -13694545.70048  20843952.512    20843962.159
       245.000         215.000
  21501914.509   -14461226.81449 -11258772.91047  21501914.634    21501924.895
       234.000         194.000
 00  3 14  2 47  0.0000000  0  6G17G26G22G21G23G 6
  20725125.002   -26275937.71749 -20240035.48648  20725124.255    20725134.175
       244.000         214.000
  21965510.493   -16851189.12649 -13112839.16346  21965510.933    21965520.534
       231.000         186.000
  23803997.050     -721717.27949   -558850.86245  23803996.576    23804011.844
       215.000         150.000
  23310138.625    -9788006.06849  -7606444.22846  23310137.667    23310151.563
       222.000         174.000
  20840165.720   -17644609.47949 -13710053.24848  20840165.264    20840175.182
       245.000         214.000
  21516916.070   -14382393.28249 -11197344.21247  21516916.399    21516926.418
       235.000         194.000
 00  3 14  2 47 30.0000000  0  6G17G26G22G21G23G 6
  20724547.177   -26278974.18849 -20242401.52348  20724546.105    20724556.174
       242.000         214.000
  21972773.711   -16813020.70449 -13083097.51346  21972773.855    21972783.628
       229.000         185.000
  23809960.662     -690377.81249   -534430.50245  23809959.718    23809975.397
       216.000         151.000
  23296381.034    -9860301.99649  -7662778.51946  23296380.012    23296393.657
       221.000         174.000
  20836447.519   -17664148.42449 -13725278.33748  20836447.238    20836456.839
       246.000         214.000
  21531988.864   -14303185.70749 -11135624.05247  21531989.034    21531999.295
       235.000         194.000
 00  3 14  2 48  0.0000000  0  6G17G26G22G21G23G 6
  20724010.471   -26281793.76249 -20244598.53848  20724010.046    20724019.495
       243.000         213.000
  21980150.996   -16774252.69149 -13052888.65246  21980150.848    21980161.080
       229.000         185.000
  23816001.586     -658632.91649   -509694.20445  23815999.607    23816017.309
       213.000         150.000
  23282664.528    -9932381.35549  -7718944.02246  23282663.757    23282678.225
       222.000         174.000
  20832796.129   -17683336.41549 -13740229.96548  20832795.376    20832805.497
       245.000         215.000
  21547131.510   -14223610.89549 -11073617.73347  21547132.271    21547142.015
       236.000         194.000
 00  3 14  2 48 30.0000000  0  6G17G26G22G21G23G 6
  20723511.411   -26284416.19749 -20246641.94748  20723510.922    20723520.491
       243.000         214.000
  21987639.468   -16734900.25749 -13022224.39746  21987639.394    21987649.755
       230.000         185.000
  23822119.507     -626483.61449   -484642.79345  23822118.970    23822134.228
       214.000         149.000
  23268987.957   -10004251.60349  -7774946.61846  23268986.506    23269001.108
       222.000         175.000
  20829211.265   -17702174.50149 -13754908.92848  20829211.087    20829220.813
       247.000         216.000
  21562346.396   -14143656.76449 -11011315.85047  21562346.618    21562356.737
       235.000         194.000
 00  3 14  2 49  0.0000000  0  6G17G26G22G21G23G 6
  20723049.721   -26286842.00749 -20248532.14048  20723049.182    20723058.565
       243.000         214.000
  21995237.219   -16694973.24449 -12991112.43446  21995237.694    21995247.077
       230.000         184.000
  23828316.197     -593919.61349   -459268.25845  23828315.381    23828330.474
       214.000         147.000
  23255350.338   -10075916.58549  -7830789.26346  23255349.097    23255363.634
       222.000         175.000
  20825696.960   -17720642.67649 -13769299.65048  20825696.260    20825706.106
       246.000         215.000
  21577635.617   -14063311.40149 -10948709.10547  21577635.854    21577645.977
       234.000         194.000
 00  3 14  2 49 30.0000000  0  6G17G26G22G21G23G 6
  20722627.009   -26289063.71149 -20250263.29148  20722626.744    20722636.170
       244.000         214.000
  22002946.957   -16654458.19549 -12959542.23546  22002946.917    22002957.515
       229.000         184.000
  23834592.157     -560939.02749   -433569.10645  23834591.716    23834608.256
       216.000         147.000
  23241754.410   -10147363.07349  -7886461.65146  23241753.869    23241767.382
       224.000         176.000
  20822253.024   -17738740.44649 -13783401.74348  20822252.245    20822262.050
       244.000         215.000
  21592999.240   -13982574.95049 -10885797.63647  21592999.348    21593009.326
       234.000         194.000
 00  3 14  2 50  0.0000000  0  6G17G26G22G21G23G 6
  20722242.812   -26291082.66949 -20251836.46548  20722242.260    20722251.855
       244.000         214.000
  22010768.253   -16613356.62449 -12927515.02046  22010768.592    22010778.265
       229.000         184.000
  23840946.027     -527549.03649   -407550.92645  23840944.887    23840958.662
       213.000         147.000
  23228200.998   -10218586.40949  -7941960.17646  23228200.012    23228213.941
       223.000         176.000
  20818881.708   -17756456.22749 -13797206.18348  20818881.378    20818890.843
       245.000         215.000
  21608435.114   -13901459.37049 -10822590.73647  21608435.002    21608445.538
       233.000         193.000
 00  3 14  2 50 30.0000000  0  6G17G26G22G21G23G 6
  20721899.944   -26292884.21849 -20253240.23448  20721899.567    20721908.780
       245.000         214.000
  22018701.979   -16571664.71549 -12895027.80246  22018701.610    22018712.178
       229.000         183.000
  23847380.654     -493734.81749   -381202.20545  23847379.902    23847395.727
       212.000         147.000
  23214688.727   -10289592.56949  -7997289.44846  23214688.306    23214701.460
       223.000         175.000
  20815587.495   -17773767.28149 -13810695.24748  20815587.049    20815596.556
       246.000         215.000
  21623945.719   -13819950.52749 -10759077.39647  21623945.664    21623955.840
       233.000         192.000
 00  3 14  2 51  0.0000000  0  6G17G26G22G21G23G 6
  20721603.452   -26294441.84749 -20254453.92848  20721602.953    20721612.556
       244.000         214.000
  22026750.347   -16529369.90249 -12862070.79546  22026750.738    22026759.939
       229.000         184.000
  23853895.695     -459498.40349   -354524.46345  23853894.692    23853911.951
       213.000         147.000
  23201220.079   -10360370.30149  -8052440.75046  23201219.110    23201233.319
       223.000         178.000
  20812369.528   -17790677.85349 -13823872.25548  20812369.197    20812378.394
       246.000         215.000
  21639532.870   -13738040.07549 -10695251.10147  21639533.133    21639543.514
       234.000         192.000
 00  3 14  2 51 30.0000000  0  6G17G26G22G21G23G 6
  20721354.410   -26295751.10649 -20255474.09648  20721353.855    20721363.671
       244.000         215.000
  22034914.719   -16486466.41849 -12828639.49846  22034915.076    22034924.659
       228.000         184.000
  23860488.557     -424852.54149   -327527.71945  23860487.728    23860502.898
       215.000         148.000
  23187795.993   -10430913.34049  -8107409.17746  23187795.423    23187808.836
       223.000         176.000
  20809226.016   -17807196.85349 -13836744.13948  20809225.753    20809234.752
       246.000         215.000
  21655196.630   -13655726.63349 -10631110.80147  21655196.449    21655206.595
       233.000         192.000
 00  3 14  2 52  0.0000000  0  6G17G26G22G21G23G 6
  20721151.982   -26296814.67749 -20256302.81548  20721151.375    20721160.731
       244.000         214.000
  22043192.480   -16442966.44649 -12794743.40946  22043192.555    22043202.114
       229.000         183.000
  23867160.316     -389791.99449   -300207.82645  23867160.569    23867175.414
       216.000         147.000
  23174416.189   -10501224.21549  -8162196.69246  23174415.086    23174428.891
       222.000         176.000
  20806157.616   -17823321.18349 -13849308.48348  20806157.137    20806166.692
       246.000         215.000
  21670937.397   -13573008.54249 -10566655.18147  21670937.682    21670947.790
       233.000         192.000
 00  3 14  2 52 30.0000000  0  6G17G26G22G21G23G 6
  20720996.581   -26297630.85049 -20256938.76148  20720995.723    20721005.721
       243.000         214.000
  22051582.280   -16398877.54249 -12760388.41546  22051582.277    22051592.147
       228.000         183.000
  23873911.477     -354314.71549   -272563.20545  23873910.815    23873926.012
       214.000         147.000
  23161081.969   -10571294.72749  -8216796.92046  23161081.457    23161095.005
       224.000         176.000
  20803162.293   -17839061.61149 -13861573.69448  20803161.791    20803171.191
       245.000         216.000
  21686757.055   -13489875.47449 -10501876.20447  21686756.801    21686767.862
       233.000         191.000
 00  3 14  2 53  0.0000000  0  6G17G26G22G21G23G 6
  20720884.730   -26298218.15549 -20257396.36048  20720884.230    20720893.968
       243.000         214.000
  22060084.621   -16354196.96249 -12725572.37046  22060085.231    22060094.426
       230.000         183.000
  23880738.431     -318438.94449   -244608.05845  23880737.809    23880752.936
       213.000         146.000
  23147795.942   -10641112.57249  -8271200.23546  23147795.465    23147809.110
       221.000         176.000
  20800237.141   -17854432.77349 -13873551.15548  20800236.866    20800246.394
       247.000         216.000
  21702652.043   -13406346.67049 -10436788.86147  21702651.947    21702662.239
       233.000         190.000
 00  3 14  2 53 30.0000000  0  6G17G26G22G21G23G 6
  20720812.178   -26298599.30349 -20257693.32448  20720811.741    20720821.459
       243.000         214.000
  22068699.162   -16308927.43149 -12690297.40846  22068699.767    22068709.199
       229.000         183.000
  23887640.269     -282169.19549   -216345.91445  23887639.421    23887655.628
       212.000         146.000
  23134556.562   -10710685.66049  -8325412.90046  23134556.150    23134569.367
       223.000         175.000
  20797380.626   -17869443.97649 -13885248.12548  20797380.023    20797389.936
       246.000         216.000
  21718617.095   -13322449.66549 -10371414.61347  21718616.884    21718627.537
       231.000         190.000
 00  3 14  2 54  0.0000000  0  6G17G26G22G21G23G 6
  20720776.395   -26298787.41149 -20257839.86748  20720775.855    20720785.240
       243.000         214.000
  22077424.034   -16263077.92249 -12654570.52146  22077424.927    22077433.323
       230.000         182.000
  23894616.451     -245509.51049   -187779.93545  23894614.093    23894631.615
       211.000         145.000
  23121361.418   -10780025.26549  -8379443.54946  23121361.475    23121374.630
       223.000         174.000
  20794591.887   -17884098.27649 -13896666.99548  20794591.474    20794600.947
       246.000         216.000
  21734647.645   -13238208.60949 -10305772.28247  21734647.926    21734658.233
       233.000         190.000
 00  3 14  2 54 30.0000000  0  6G17G26G22G21G23G 6
  20720778.273   -26298777.65449 -20257832.22948  20720777.684    20720787.697
       243.000         214.000
  22086260.002   -16216644.77249 -12618388.83346  22086259.571    22086269.563
       229.000         182.000
  23901662.402     -208483.09449   -158928.19245  23901662.184    23901676.418
       210.000         145.000
  23108210.568   -10849133.06349  -8433293.60746  23108209.340    23108222.498
       221.000         173.000
  20791868.751   -17898408.21149 -13907817.53348  20791868.519    20791877.955
       247.000         216.000
  21750742.429   -13153630.11949 -10239867.00747  21750742.584    21750752.829
       233.000         190.000
 00  3 14  2 55  0.0000000  0  6G17G26G22G21G23G 6
  20720818.228   -26298566.83149 -20257667.91448  20720817.796    20720827.310
       244.000         214.000
  22095206.386   -16169630.34949 -12581754.19346  22095206.727    22095216.582
       228.000         182.000
  23908776.905     -171095.60349   -129795.08145  23908776.528    23908791.316
       211.000         143.000
  23095102.335   -10918016.57049  -8486968.90346  23095101.994    23095114.903
       223.000         174.000
  20789210.837   -17912375.59149 -13918701.14448  20789210.199    20789219.835
       246.000         216.000
  21766899.601   -13068723.93749 -10173706.38747  21766899.659    21766910.133
       232.000         190.000
 00  3 14  2 55 30.0000000  0  6G17G26G22G21G23G 6
  20720899.235   -26298140.89849 -20257335.97448  20720898.800    20720908.219
       244.000         214.000
  22104258.857   -16122059.16749 -12544685.73346  22104259.679    22104268.536
       229.000         182.000
  23915962.363     -133335.72349   -100371.79545  23915963.483    23915976.824
       209.000         143.000
  23082035.373   -10986682.66949  -8540474.76146  23082035.240    23082047.261
       223.000         172.000
  20786619.000   -17925995.49849 -13929313.99448  20786618.613    20786627.664
       246.000         216.000
  21783122.255   -12983473.31149 -10107277.36747  21783122.238    21783132.815
       231.000         190.000
 00  3 14  2 56  0.0000000  0  6G17G26G22G21G23G 6
  20721025.104   -26297479.93249 -20256820.90448  20721024.623    20721034.220
       243.000         214.000
  22113414.684   -16073945.07649 -12507194.22246  22113415.041    22113425.100
       228.000         182.000
  23923219.177      -95200.40649    -70655.96545  23923218.910    23923233.207
       210.000         142.000
  23069013.643   -11055112.13949  -8593796.23946  23069012.285    23069025.746
       222.000         173.000
  20784097.183   -17939247.52449 -13939640.19248  20784096.669    20784105.921
       246.000         216.000
  21799415.544   -12897851.27449 -10040558.94547  21799415.719    21799426.583
       231.000         190.000
 00  3 14  2 56 30.0000000  0  6G17G26G22G21G23G 6
  20721199.711   -26296562.20649 -20256105.76148  20721199.222    20721208.257
       243.000         214.000
  22122674.819   -16025282.69449 -12469275.46746  22122674.791    22122684.843
       228.000         182.000
  23930549.977      -56676.19149    -40637.09745  23930549.615    23930564.957
       210.000         142.000
  23056039.279   -11123291.68349  -8646922.98946  23056039.216    23056051.873
       223.000         172.000
  20781647.275   -17952121.66449 -13949671.92248  20781646.615    20781656.646
       246.000         216.000
  21815784.352   -12811832.76749  -9973531.59047  21815784.657    21815795.073
       232.000         190.000
 00  3 14  2 57  0.0000000  0  6G17G26G22G21G23G 6
  20721423.963   -26295383.48849 -20255187.23848  20721423.197    20721432.665
       243.000         213.000
  22132038.801   -15976074.40149 -12430931.33346  22132039.018    22132048.729
       228.000         182.000
  23937961.015      -17731.25249    -10290.37545  23937959.555    23937976.603
       210.000         142.000
  23043112.760   -11191220.61549  -8699854.43446  23043112.225    23043125.505
       223.000         173.000
  20779272.184   -17964602.47349 -13959397.17748  20779271.690    20779280.964
       246.000         216.000
  21832229.488   -12725412.87449  -9906191.45947  21832229.232    21832240.179
       232.000         189.000
 00  3 14  2 57 30.0000000  0  6G17G26G22G21G23G 6
  20721697.822   -26293944.04949 -20254065.56948  20721697.387    20721706.705
       244.000         213.000
  22141507.936   -15926313.98549 -12392156.96846  22141507.963    22141517.844
       227.000         181.000
  23945453.709       21643.33549     20391.11945  23945454.217    23945469.447
       213.000         143.000
  23030234.734   -11258894.67649  -8752587.28946  23030234.281    23030246.834
       224.000         173.000
  20776973.269   -17976682.69549 -13968810.27448  20776972.791    20776982.417
       245.000         216.000
  21848751.863   -12638587.32749  -9838535.24147  21848752.084    21848762.222
       232.000         189.000
 00  3 14  2 58  0.0000000  0  6G17G26G22G21G23G 6
  20722020.085   -26292250.41249 -20252745.82548  20722019.514    20722028.800
       243.000         213.000
  22151086.266   -15875978.90049 -12352934.81646  22151086.782    22151095.991
       228.000         181.000
  23953026.171       61437.16449     51399.29645  23953026.435    23953041.097
       211.000         142.000
  23017403.387   -11326323.27749  -8805128.86446  23017402.084    23017415.807
       224.000         172.000
  20774749.827   -17988367.10649 -13977914.95248  20774749.590    20774759.060
       247.000         216.000
  21865349.967   -12551364.26549  -9770569.26347  21865350.093    21865360.445
       232.000         188.000
 00  3 14  2 58 30.0000000  0  6G17G26G22G21G23G 6
  20722387.028   -26290321.90949 -20251243.06848  20722386.520    20722396.153
       243.000         213.000
  22160777.198   -15825053.01849 -12313252.30146  22160777.603    22160788.176
       227.000         181.000
  23960677.774      101646.47649     82731.23345  23960676.089    23960693.177
       211.000         143.000
  23004614.568   -11393527.85449  -8857495.89646  23004613.837    23004626.067
       224.000         173.000
  20772598.120   -17999674.57149 -13986725.90948  20772597.500    20772606.808
       245.000         216.000
  21882020.488   -12463760.13849  -9702306.34747  21882020.532    21882031.122
       232.000         188.000
 00  3 14  2 59  0.0000000  0  6G17G26G22G21G23G 6
  20722794.465   -26288180.69849 -20249574.56148  20722793.668    20722803.444
       242.000         213.000
  22170578.696   -15773545.65149 -12273116.67846  22170578.838    22170588.436
       227.000         181.000
  23968403.013      142243.21849    114365.06045  23968402.940    23968420.396
       212.000         143.000
  22991866.501   -11460518.65049  -8909696.30346  22991865.253    22991877.752
       223.000         173.000
  20770513.813   -18010626.97149 -13995260.19948  20770513.283    20770522.898
       246.000         216.000
  21898759.785   -12375794.68949  -9633761.88247  21898759.744    21898770.516
       232.000         188.000
 00  3 14  2 59 30.0000000  0  6G17G26G22G21G23G 6
  20723240.532   -26285836.21149 -20247747.65748  20723240.209    20723249.457
       244.000         213.000
  22180489.848   -15721462.33849 -12232532.27346  22180490.066    22180499.985
       228.000         180.000
  23976194.824      183189.81649    146271.48845  23976193.617    23976209.763
       211.000         144.000
  22979159.265   -11527295.32349  -8961729.90846  22979157.560    22979171.426
       224.000         173.000
  20768494.610   -18021237.60149 -14003528.18148  20768494.181    20768503.149
       245.000         216.000
  21915565.730   -12287479.09549  -9564944.58146  21915565.510    21915576.381
       229.000         186.000
 00  3 14  3  0  0.0000000  0  7G17G26G22G21G29G23G 6
  20723716.236   -26283336.82249 -20245800.05648  20723715.620    20723725.179
       243.000         213.000
  22190500.527   -15668855.88949 -12191540.23246  22190500.826    22190510.266
       227.000         180.000
  23984041.850      224425.13849    178402.92545  23984039.335    23984058.245
       208.000         144.000
  22966483.802   -11593904.01149  -9013632.57346  22966484.434    22966495.395
       228.000         174.000
  24478648.249    -2483466.03749  -1652634.89045  24478647.725    24478665.425
       207.000         139.000
  20766530.642   -18031558.04049 -14011570.02548  20766529.910    20766539.437
       244.000         215.000
  21932426.139   -12198876.56949  -9495903.71246  21932425.688    21932436.792
       229.000         186.000
 00  3 14  3  0 30.0000000  0  7G17G26G22G21G29G23G 6
  20724230.036   -26280636.33349 -20243695.74448  20724229.405    20724239.171
       243.000         213.000
  22200614.748   -15615705.10149 -12150124.01546  22200614.295    22200624.579
       226.000         180.000
  23991951.562      265990.57449    210791.55945  23991949.869    23991966.554
       210.000         146.000
  22953848.763   -11660301.52049  -9065370.71846  22953849.201    22953860.922
       227.000         174.000
  24457982.421    -2592064.51349  -1737256.55945  24457981.861    24457997.110
       203.000         135.000
  20764628.431   -18041554.22649 -14019359.22148  20764628.147    20764637.799
       245.000         216.000
  21949345.790   -12109962.92149  -9426620.41346  21949346.334    21949356.792
       230.000         186.000
 00  3 14  3  1  0.0000000  0  7G17G26G22G21G29G23G 6
  20724792.328   -26277681.27249 -20241393.06548  20724791.725    20724801.066
       243.000         213.000
  22210838.307   -15561979.47149 -12108259.88946  22210838.506    22210848.236
       226.000         179.000
  23999932.425      307931.05949    243472.44345  23999933.702    23999949.036
       213.000         147.000
  22941263.742   -11726435.53749  -9116903.52746  22941262.295    22941274.464
       225.000         174.000
  24437309.391    -2700699.90449  -1821907.00044  24437309.733    24437326.770
       196.000         131.000
  20762797.469   -18051175.76949 -14026856.47748  20762796.865    20762806.187
       245.000         216.000
  21966332.890   -12020696.18749  -9357061.95346  21966333.384    21966343.575
       229.000         185.000
 00  3 14  3  1 30.0000000  0  7G17G26G22G21G29G23G 6
  20725401.555   -26274479.78149 -20238898.35648  20725400.963    20725410.999
       243.000         214.000
  22221169.059   -15507690.94149 -12065957.14046  22221169.894    22221179.509
       228.000         179.000
  24007987.272      350259.83849    276455.90745  24007987.086    24008002.970
       214.000         147.000
  22928727.961   -11792311.00349  -9168234.88646  22928727.103    22928740.644
       227.000         175.000
  24416631.638    -2809358.90849  -1906575.81044  24416628.790    24416648.361
       195.000         129.000
  20761038.481   -18060419.18049 -14034059.09048  20761038.102    20761047.163
       246.000         216.000
  21983386.789   -11931077.25149  -9287229.05946  21983387.168    21983397.793
       229.000         184.000
 00  3 14  3  2  0.0000000  0  7G17G26G22G21G29G23G 6
  20726055.965   -26271040.96949 -20236218.72948  20726055.320    20726064.553
       243.000         214.000
  22231604.849   -15452850.33849 -12023224.20246  22231604.860    22231615.136
       227.000         179.000
  24016116.891      392981.12649    309745.22845  24016116.199    24016132.750
       214.000         150.000
  22916240.090   -11857934.34949  -9219369.77946  22916239.368    22916251.459
       227.000         176.000
  24395954.141    -2918018.27049  -1991244.96545  24395951.924    24395969.480
       203.000         133.000
  20759350.236   -18069291.04549 -14040972.19248  20759349.701    20759359.123
       245.000         216.000
  22000508.391   -11841103.46649  -9217119.66546  22000508.975    22000519.167
       229.000         185.000
 00  3 14  3  2 30.0000000  0  7G17G26G22G21G29G23G 6
  20726753.873   -26267373.05449 -20233360.57948  20726753.117    20726762.803
       243.000         213.000
  22242142.865   -15397472.24249 -11980072.44346  22242142.955    22242153.026
       227.000         179.000
  24024319.872      436088.60649    343335.47445  24024319.959    24024335.239
       213.000         150.000
  22903800.168   -11923305.57949  -9270308.22146  22903799.180    22903812.270
       228.000         176.000
  24375278.585    -3026665.88649  -2075904.90545  24375277.996    24375294.181
       210.000         141.000
  20757729.965   -18077805.17949 -14047606.53348  20757729.263    20757738.940
       245.000         216.000
  22017698.773   -11750767.59549  -9146728.13046  22017698.505    22017709.309
       230.000         185.000
 00  3 14  3  3  0.0000000  0  7G17G26G22G21G29G23G 6
  20727493.505   -26263485.90949 -20230331.60348  20727493.065    20727502.498
       243.000         213.000
  22252782.104   -15341562.70049 -11936506.55546  22252782.559    22252792.606
       227.000         179.000
  24032593.677      479567.73049    377215.29645  24032592.522    24032608.776
       214.000         151.000
  22891407.462   -11988429.33649  -9321053.82646  22891406.479    22891418.660
       225.000         176.000
  24354608.796    -3135285.80249  -2160543.26345  24354607.786    24354624.617
       210.000         142.000
  20756176.342   -18085969.34549 -14053968.18248  20756175.828    20756185.199
       245.000         215.000
  22034958.149   -11660069.08349  -9076054.02646  22034958.606    22034969.274
       230.000         185.000
 00  3 14  3  3 30.0000000  0  7G17G26G22G21G29G23G 6
  20728275.439   -26259376.66949 -20227129.56148  20728274.864    20728284.428
       244.000         213.000
  22263522.539   -15285121.69749 -11892526.54846  22263523.134    22263532.708
       227.000         179.000
  24040934.328      523397.80149    411368.61545  24040932.269    24040950.368
       211.000         152.000
  22879061.388   -12053307.47749  -9371608.05246  22879061.086    22879073.377
       228.000         177.000
  24333945.103    -3243872.27549  -2245155.55645  24333942.792    24333961.142
       204.000         140.000
  20754688.761   -18093786.38149 -14060059.33248  20754688.018    20754697.433
       243.000         215.000
  22052284.253   -11569020.15849  -9005106.87046  22052284.031    22052295.454
       230.000         185.000
 00  3 14  3  4  0.0000000  0  7G17G26G22G21G29G23G 6
  20729102.914   -26255028.21849 -20223741.12548  20729102.291    20729111.562
       243.000         213.000
  22274366.815   -15228134.55849 -11848120.98646  22274367.286    22274377.144
       229.000         180.000
  24049338.234      567560.14249    445780.82745  24049336.920    24049352.253
       215.000         152.000
  22866761.335   -12117944.33849  -9421974.27546  22866759.942    22866772.497
       226.000         176.000
  24313283.429    -3352448.03649  -2329759.46045  24313281.426    24313298.129
       205.000         136.000
  20753266.154   -18101261.75149 -14065884.24948  20753265.863    20753275.361
       245.000         216.000
  22069674.111   -11477635.83249  -8933898.36346  22069674.422    22069685.230
       230.000         185.000
 00  3 14  3  4 30.0000000  0  7G17G26G22G21G29G23G 6
  20729977.739   -26250430.74249 -20220158.64347  20729976.786    20729986.179
       242.000         212.000
  22285315.071   -15170601.17049 -11803289.77446  22285315.707    22285325.085
       229.000         179.000
  24057804.335      612049.94549    480448.18945  24057805.128    24057819.334
       216.000         152.000
  22854506.422   -12182343.46049  -9472155.25646  22854505.865    22854518.052
       227.000         176.000
  24292623.325    -3461015.60549  -2414357.00245  24292623.777    24292637.892
       205.000         135.000
  20751908.328   -18108397.28149 -14071444.35048  20751907.833    20751916.916
       244.000         216.000
  22087125.293   -11385929.56549  -8862438.99346  22087124.802    22087135.994
       229.000         185.000
 00  3 14  3  5  0.0000000  0  7G17G26G22G21G29G23G 6
  20730899.989   -26245583.69649 -20216381.69147  20730899.457    20730908.870
       242.000         212.000
  22296369.424   -15112509.91849 -11758023.87246  22296369.535    22296379.566
       228.000         179.000
  24066331.262      656859.50949    515364.71845  24066331.675    24066344.723
       218.000         152.000
  22842295.936   -12246509.53649  -9522154.64146  22842295.468    22842307.338
       226.000         176.000
  24271964.597    -3569575.27249  -2498948.36045  24271963.249    24271980.855
       206.000         140.000
  20750615.721   -18115189.26249 -14076736.76348  20750615.038    20750624.717
       244.000         215.000
  22104634.091   -11293920.43849  -8790743.64046  22104634.450    22104644.319
       230.000         184.000
 00  3 14  3  5 30.0000000  0  7G17G26G22G21G29G23G 6
  20731869.915   -26240486.47049 -20212409.79947  20731869.286    20731879.032
       242.000         212.000
  22307529.275   -15053864.85949 -11712326.42746  22307528.739    22307539.300
       227.000         179.000
  24074919.415      701990.13049    550531.43945  24074919.140    24074934.962
       213.000         152.000
  22830128.797   -12310447.33549  -9571976.13446  22830128.181    22830140.091
       228.000         176.000
  24251307.773    -3678125.65049  -2583532.52345  24251305.900    24251324.407
       205.000         145.000
  20749389.731   -18121631.63849 -14081756.74348  20749389.397    20749398.554
       244.000         215.000
  22122199.567   -11201613.57749  -8718816.26446  22122199.800    22122210.342
       231.000         184.000
 00  3 14  3  6  0.0000000  0  7G17G26G22G21G29G23G 6
  20732888.123   -26235135.06949 -20208239.83347  20732887.711    20732897.317
       242.000         212.000
  22318792.878   -14994674.27949 -11666203.91146  22318793.291    22318803.557
       228.000         179.000
  24083570.021      747448.65449    585953.68145  24083569.292    24083585.040
       213.000         152.000
  22818004.798   -12374158.82749  -9621621.31646  22818003.915    22818016.185
       227.000         175.000
  24230656.431    -3786646.74049  -2668093.86745  24230654.667    24230672.644
       207.000         147.000
  20748229.135   -18127730.41749 -14086508.99248  20748228.630    20748238.163
       244.000         215.000
  22139823.372   -11108999.99549  -8646649.89346  22139823.429    22139834.472
       229.000         184.000
 00  3 14  3  6 30.0000000  0  7G17G26G22G21G29G23G 6
  20733952.436   -26229541.70149 -20203881.32148  20733952.214    20733961.406
       243.000         213.000
  22330156.941   -14934955.43949 -11619669.75646  22330156.954    22330166.914
       227.000         179.000
  24092284.727      793244.47049    621638.73545  24092283.869    24092300.752
       212.000         151.000
  22805923.153   -12437647.52649  -9671092.87046  22805921.919    22805933.504
       228.000         176.000
  24210015.785    -3895112.61749  -2752612.19545  24210014.616    24210031.541
       207.000         147.000
  20747133.393   -18133488.28749 -14090995.59548  20747133.069    20747142.391
       245.000         215.000
  22157506.230   -11016075.72549  -8574241.43546  22157506.927    22157516.996
       228.000         184.000
